     2              OBSERVATION DATA    GPS                 RINEX VERSION / TYPE
teqc 2002Apr3 20041016 21:16:21UTC                          PGM / RUN BY / DATE
                                                            COMMENT
L2: 1 -> 1; 150 -> 5; 250 -> 9                              COMMENT
L2: 1 -> 1; 150 -> 5; 250 -> 9                              COMMENT
L2: 1 -> 1; 150 -> 5; 250 -> 9                              COMMENT
L2: 1 -> 1; 150 -> 5; 250 -> 9                              COMMENT
L2: 1 -> 1; 150 -> 5; 250 -> 9                              COMMENT
Original Marker Name: STG2                                  COMMENT
Campaign Name: PFO Seismic Vault                            COMMENT
4-Character Station Name: FONW                              COMMENT
6-Character Antenna Code: DMRCHT                            COMMENT
Vertical Measurement Point: BCR                             COMMENT
Vertical Offset to Rinex Ref. Point: 0.0348                 COMMENT
Radial Measurement Point: ECF                               COMMENT
Radial Offset to Rinex Ref. Point: 0.1897                   COMMENT
Antenna Height from Field Measurement: 1.1425 m             COMMENT
Additional Antenna Identification Info.:                    COMMENT
Turborogue and Ashtech Choke Ring                           COMMENT
Original XYZ: 0.0000 0.0000 0.0000                          COMMENT
New XYZ position is based on association with SCEC monument COMMENT
E1D0K5S3+0004. Position of that monument is believed to be  COMMENT
valid to within 1 m horizontally; vertical accuracy         COMMENT
should be no worse than 3-times this value.                 COMMENT
                                                            COMMENT
Revised Rinex header created by UCSD GPS archive for        COMMENT
GSAC on 21-Jul-2005 (2005:202) 16:57:35 GMT                 COMMENT
For assistance contact dagnew@ucsd.edu                      COMMENT
or anderson@python.ucsd.edu                                 COMMENT
                                                            COMMENT
UNSTAMPED                                                   MARKER NAME
SJB SCRIPPS INSTITUTION OF OCEANOGRAPHY                     OBSERVER / AGENCY
312 ASHTECH Z-XII3 CC00                                     REC # / TYPE / VERS
636 DORNE-MARGOL. TYPE T                                    ANT # / TYPE
 -2369326.0000 -4761391.0000  3511255.0000                  APPROX POSITION XYZ
        1.0918        0.0000        0.0000                  ANTENNA: DELTA H/E/N
     1     1     0                                          WAVELENGTH FACT L1/2
     7    C1    L1    L2    P1    P2    S1    S2            # / TYPES OF OBSERV
     0                                                      INTERVAL
  2004    10    13     1     7    0.000000                  TIME OF FIRST OBS
  2004    10    13    16     5    0.000000                  TIME OF LAST OBS
                                                            END OF HEADER
 04 10 13  1  7  0.0000000  0  2G28G 7
  22472009.9064    -144113.28159   -106592.57446  22472010.1114   22472013.7624
       226.0004        173.0004
  21528929.3484    -183345.05859   -132240.82247  21528928.7234   21528933.9724
       238.0004        202.0004
 04 10 13  1  7 30.0000000  0  2G28G 7
  22461590.3264    -198866.92949   -149257.74346  22461590.3754   22461594.3874
       224.0004        172.0004
  21517767.1474    -242002.98049   -177948.27647  21517766.4604   21517771.7724
       238.0004        203.0004
 04 10 13  1  8  0.0000000  0  1G 7
  21531221.4524   -1746720.69349  -1350455.57047  21531220.9064   21531226.3114
       239.0004        204.0004
 04 10 13  1  8 30.0000000  0  1G 7
  21541119.2264   -1694707.93349  -1309926.12847  21541118.7344   21541123.9004
       240.0004        205.0004
 04 10 13  1  9  0.0000000  0  3G31G24G 7
  22197395.8094   -1309296.08259  -1014790.43846  22197394.7634   22197399.3334
       226.0004        180.0004
  22268434.6864   -1823632.32259  -1381751.74146  22268434.0944   22268441.3124
       225.0004        176.0004
  21551043.6974   -1642554.93749  -1269287.40747  21551043.2734   21551048.6304
       240.0004        205.0004
 04 10 13  1  9 30.0000000  0  3G31G24G 7
  22212980.0734   -1227397.88749   -950973.65546  22212979.5644   22212984.3354
       225.0004        179.0004
  22250621.9374   -1917239.43449  -1454692.26146  22250620.3964   22250627.4384
       225.0004        176.0004
  21560995.5324   -1590258.15149  -1228536.64747  21560995.0344   21561000.2184
       241.0004        206.0004
 04 10 13  1 10  0.0000000  0  2G31G24
  22228655.4994   -1145023.10849   -886785.50046  22228654.7234   22228659.8944
       227.0004        179.0004
  22232934.1864   -2010187.34549  -1527119.12346  22232933.4204   22232940.0354
       227.0004        176.0004
 04 10 13  1 10 30.0000000  0  3G31G28G24
  22244277.4744   -1062929.19449   -822816.19446  22244276.9974   22244281.4164
       228.0004        179.0004
                   -943537.06759   -724635.54645                  22529729.1394
       223.0004        157.0004
  22215228.7624   -2103229.17149  -1599619.16046  22215228.5474   22215234.4504
       228.0004        177.0004
 04 10 13  1 11  0.0000000  0  4G31G28G24G 4
  22259882.2504    -980925.54149   -758917.22946  22259881.4354   22259886.8134
       228.0004        180.0004
  22540590.5634    -886435.37349   -680140.69646  22540590.7544   22540595.9004
       221.0004        168.0004
  22197542.6434   -2196169.89149  -1672040.43946  22197542.4114   22197547.6774
       230.0004        179.0004
  20764118.6264   -1202414.63259   -921556.31947  20764118.7104   20764123.3524
       246.0004        210.0004
 04 10 13  1 11 30.0000000  0  5G31G28G24G 4G 7
  22275519.7234    -898750.11249   -694884.41946  22275519.3894   22275523.9924
       227.0004        179.0004
  22551515.0344    -829027.47549   -635407.25046  22551515.0414   22551520.6074
       223.0004        171.0004
  22179926.5264   -2288743.55649  -1744175.70646  22179926.5764   22179932.8094
       231.0004        180.0004
  20756954.7884   -1240062.28649   -950892.11247  20756954.8094   20756958.8204
       246.0004        210.0004
                   -728157.90659   -555118.08147                  21601055.8234
       243.0004        191.0004
 04 10 13  1 12  0.0000000  0  5G31G28G24G 4G 7
  22291185.7144    -816425.22949   -630735.14746  22291185.6734   22291189.5064
       228.0004        179.0004
  22562495.7764    -771333.85449   -590451.17446  22562494.4904   22562498.6994
       227.0004        174.0004
  22162377.0174   -2380968.18249  -1816038.97046  22162377.2654   22162382.7594
       232.0004        182.0004
  20749912.0074   -1277072.04849   -979730.83647  20749911.9054   20749915.6114
       246.0004        209.0004
  21611108.7454    -675306.71649   -513935.31547  21611107.9814   21611112.6334
       243.0004        202.0004
 04 10 13  1 12 30.0000000  0  5G31G28G24G 4G 7
  22306875.7494    -733974.09849   -566487.50846  22306875.5514   22306879.3644
       229.0004        181.0004
  22573524.8664    -713375.89149   -545289.12846  22573524.3644   22573526.6154
       227.0004        174.0004
  22144890.3024   -2472862.67249  -1887644.98046  22144889.8324   22144895.9094
       230.0004        182.0004
  20742986.6794   -1313464.29649  -1008088.38347  20742986.3394   20742990.5154
       246.0004        208.0004
  21621194.9774    -622302.81749   -472633.56147  21621194.5884   21621198.9574
       242.0004        203.0004
 04 10 13  1 13  0.0000000  0  5G31G28G24G 4G 7
  22322586.3134    -651415.12649   -502155.83346  22322585.3064   22322590.8074
       230.0004        182.0004
  22584600.6874    -655170.37149   -499934.19046  22584599.0274   22584603.9054
       226.0004        174.0004
  22127463.3764   -2564441.33849  -1959004.88246  22127462.3274   22127469.5484
       229.0004        182.0004
  20736175.8964   -1349254.74949  -1035977.00847  20736175.6244   20736179.9604
       245.0004        208.0004
  21631306.9634    -569164.27649   -431226.89347  21631306.1384   21631310.9064
       242.0004        203.0004
 04 10 13  1 13 30.0000000  0  5G31G28G24G 4G 7
  22338315.7964    -568756.40949   -437746.43046  22338315.5664   22338319.8404
       230.0004        183.0004
  22595722.5554    -596723.75149   -454391.37446  22595722.2574   22595726.2324
       226.0004        174.0004
  22110095.6544   -2655708.10149  -2030121.75346  22110094.7504   22110102.2404
       229.0004        183.0004
  20729478.5984   -1384448.71049  -1063400.82747  20729477.9914   20729483.1444
       244.0004        208.0004
  21641443.0114    -515898.91049   -389721.39847  21641442.0914   21641446.6044
       241.0004        201.0004
 04 10 13  1 14  0.0000000  0  5G31G28G24G 4G 7
  22354062.7824    -486005.35949   -373265.06946  22354062.0154   22354066.9964
       230.0004        182.0004
  22606889.3744    -538041.72149   -408665.11546  22606888.8074   22606893.1244
       226.0004        176.0004
  22092786.9134   -2746666.02749  -2100997.97246  22092786.9224   22092792.9084
       231.0004        184.0004
  20722893.8444   -1419050.88849  -1090363.52047  20722893.5594   20722898.5034
       244.0004        208.0004
  21651601.8704    -462513.81249   -348122.60447  21651601.4284   21651605.7774
       241.0004        200.0004
 04 10 13  1 14 30.0000000  0  6G31G28G24G 4G 9G 7
  22369826.5774    -403165.67649   -308714.64246  22369826.2724   22369831.0674
       228.0004        180.0004
  22618100.6204    -479126.30649   -362756.97746  22618100.2954   22618103.4274
       226.0004        176.0004
  22075537.0654   -2837314.83449  -2171633.31646  22075537.4034   22075542.9804
       232.0004        185.0004
  20716421.6624   -1453062.07149  -1116865.69747  20716421.5804   20716426.4634
       245.0004        209.0004
  21342541.0294    -429242.29259   -300853.47547  21342540.8864   21342545.2824
       236.0004        197.0004
  21661782.8794    -409012.34149   -306433.12447  21661782.2304   21661786.6604
       241.0004        199.0004
 04 10 13  1 15  0.0000000  0  6G31G28G24G 4G 9G 7
  22385606.7434    -320239.65849   -244096.94546  22385605.4284   22385610.9584
       227.0004        178.0004
  22629356.0744    -419978.17249   -316667.53646  22629355.8534   22629359.0204
       227.0004        174.0004
  22058346.4674   -2927652.43449  -2242026.15846  22058346.5844   22058352.2534
       231.0004        185.0004
  20710062.0324   -1486481.96449  -1142907.13347  20710061.9324   20710066.5734
       244.0004        209.0004
  21334975.4724    -468995.08149   -331829.64847  21334975.8644   21334980.8014
       235.0004        197.0004
  21671985.6544    -355396.59849   -264654.60147  21671985.0374   21671989.7104
       240.0004        198.0004
 04 10 13  1 15 30.0000000  0  6G31G28G24G 4G 9G 7
  22401401.4804    -237237.39349   -179419.83546  22401401.3734   22401406.2164
       227.0004        176.0004
  22640654.2384    -360605.80049   -270403.35346  22640654.0414   22640657.8134
       228.0004        174.0004
  22041213.8104   -3017684.82649  -2312181.17446  22041213.2064   22041219.5334
       230.0004        185.0004
  20703813.4174   -1519318.06849  -1168493.65847  20703813.0284   20703817.9014
       242.0004        209.0004
  21327517.3984    -508188.04949   -362369.59247  21327517.5074   21327522.6704
       235.0004        197.0004
  21682208.3304    -301676.32249   -222794.62547  21682207.7504   21682212.6054
       239.0004        197.0004
 04 10 13  1 16  0.0000000  0  6G31G28G24G 4G 9G 7
  22417212.1574    -154151.81549   -114677.81346  22417211.7974   22417216.6464
       227.0004        176.0004
  22651996.8704    -301000.42949   -223957.61746  22651995.7604   22652000.1464
       228.0004        174.0004
  22024141.1374   -3107401.28649  -2382090.02046  22024140.1754   22024147.0954
       229.0004        184.0004
  20697677.7384   -1551560.74449  -1193617.77347  20697677.7164   20697682.3454
       243.0004        208.0004
  21320167.7754    -546811.38449   -392465.67047  21320167.7654   21320173.0074
       234.0004        197.0004
  21692452.2274    -247844.19149   -180847.49047  21692451.5984   21692456.4454
       239.0004        196.0004
 04 10 13  1 16 30.0000000  0  6G31G28G24G 4G 9G 7
  22433038.7194     -70982.99849    -49870.91846  22433038.6214   22433043.1654
       228.0004        176.0004
  22663384.0064    -241160.59849   -177329.17446  22663383.1364   22663387.1524
       225.0004        172.0004
  22007129.5254   -3196797.30049  -2451749.16946  22007129.0524   22007135.7814
       230.0004        184.0004
  20691655.5494   -1583207.32749  -1218277.40847  20691655.5754   20691660.3424
       244.0004        209.0004
  21312927.0424    -584862.16949   -422115.61347  21312927.0284   21312931.8874
       235.0004        198.0004
  21702717.4454    -193899.99049   -138813.02247  21702716.7024   21702721.7414
       238.0004        195.0004
 04 10 13  1 17  0.0000000  0  6G31G28G24G 4G 9G 7
  22448881.4514      12270.83249     15002.21046  22448880.5834   22448885.5604
       229.0004        177.0004
  22674816.1114    -181083.02449   -130515.47746  22674814.8524   22674820.7314
       224.0004        170.0004
  21990180.0474   -3285867.31949  -2521154.29046  21990179.5954   21990185.5094
       231.0004        184.0004
  20685747.6494   -1614253.87349  -1242469.48347  20685747.8354   20685752.2694
       245.0004        210.0004
  21305796.1774    -622335.70749   -451315.74447  21305796.1944   21305800.9414
       236.0004        199.0004
  21713004.3164    -139841.62849    -96689.59547  21713003.3314   21713008.5084
       236.0004        193.0004
 04 10 13  1 17 30.0000000  0  6G31G28G24G 4G 9G 7
  22464740.1384      95608.65149     79940.79846  22464739.9344   22464744.4524
       229.0004        177.0004
  22686293.7254    -120766.96449    -83515.95446  22686293.5764   22686296.5504
       224.0004        170.0004
  21973293.2264   -3374608.25149  -2590302.99346  21973293.0964   21973298.5144
       233.0004        185.0004
  20679954.2924   -1644698.72649  -1266192.70847  20679954.5554   20679958.8964
       244.0004        211.0004
  21298775.4084    -659230.37349   -480064.81047  21298775.3854   21298780.1074
       236.0004        199.0004
  21723312.7594     -85669.88649    -54477.82347  21723311.3944   21723316.8184
       234.0004        191.0004
 04 10 13  1 18  0.0000000  0  6G31G28G24G 4G 9G 7
  22480614.0574     179026.54949    144941.77346  22480613.9754   22480618.3394
       228.0004        176.0004
  22697816.4714     -60215.02049    -36332.62646  22697816.4594   22697819.7264
       225.0004        170.0004
  21956469.0454   -3463020.12949  -2659195.29746  21956468.4134   21956474.5184
       233.0004        185.0004
  20674275.0864   -1674543.17349  -1289448.07947  20674275.1374   20674279.6044
       244.0004        211.0004
  21291864.6014    -695547.05349   -508363.49447  21291864.3294   21291869.2934
       237.0004        200.0004
  21733642.0764     -31388.18249    -12180.36647  21733641.4934   21733646.3284
       233.0004        189.0004
 04 10 13  1 18 30.0000000  0  6G31G28G24G 4G 9G 7
  22496502.7684     262522.12649    210003.27246  22496502.2564   22496507.1544
       227.0004        175.0004
  22709383.8894        572.12149     11033.98746  22709383.1114   22709387.8944
       225.0004        170.0004
  21939707.7204   -3551101.23749  -2727829.86646  21939707.1374   21939713.2354
       233.0004        185.0004
  20668710.0624   -1703787.38649  -1312235.73147  20668710.0004   20668714.4114
       243.0004        210.0004
  21285063.8124    -731285.48849   -536211.60047  21285063.6874   21285068.1974
       237.0004        201.0004
  21743991.9264      23001.09549     30200.91147  21743991.1684   21743996.4384
       233.0004        188.0004
 04 10 13  1 19  0.0000000  0  6G31G28G24G 4G 9G 7
  22512406.0254     346094.22749    275124.40846  22512405.2264   22512410.1944
       226.0004        174.0004
  22720996.0804      61594.82349     58584.15346  22720995.0924   22721000.6974
       225.0004        170.0004
  21923009.8654   -3638848.65649  -2796204.42046  21923008.9374   21923015.8054
       231.0004        185.0004
  20663259.4644   -1732430.25549  -1334554.80847  20663259.4134   20663263.7084
       244.0004        209.0004
  21278373.3954    -766444.13649   -563607.92847  21278373.3694   21278377.9854
       239.0004        202.0004
  21754362.1624      77497.19849     72665.42147  21754361.6194   21754366.6144
       232.0004        188.0004
 04 10 13  1 19 30.0000000  0  6G31G28G24G 4G 9G 7
  22528323.5114     429740.95549    340303.69846  22528323.4264   22528327.1124
       225.0004        173.0004
  22732653.1084     122852.79149    106317.62546  22732652.6724   22732656.5504
       224.0004        170.0004
  21906375.7784   -3726260.58849  -2864317.54846  21906375.0124   21906381.6514
       229.0004        184.0004
  20657923.4834   -1760471.11849  -1356404.78547  20657923.4674   20657928.1704
       244.0004        210.0004
  21271793.5024    -801022.13849   -590551.80247  21271793.5544   21271797.9694
       240.0004        203.0004
  21764752.4594     132098.40849    115211.82847  21764752.2764   21764757.0994
       232.0004        188.0004
 04 10 13  1 20  0.0000000  0  6G31G28G24G 4G 9G 7
  22544254.9664     513461.41149    405540.43946  22544253.9184   22544259.0094
       223.0004        172.0004
  22744354.9164     184346.34649    154234.67946  22744355.2214   22744359.0254
       224.0004        170.0004
  21889806.0634   -3813334.07449  -2932166.95246  21889805.3334   21889811.8494
       231.0004        184.0004
  20652702.3014   -1787908.51249  -1377784.52947  20652702.4624   20652707.1394
       245.0004        212.0004
  21265324.4204    -835017.77449   -617041.88447  21265324.2424   21265328.6974
       240.0004        203.0004
  21775162.7334     186804.14949    157839.68847  21775162.5994   21775167.5234
       233.0004        190.0004
 04 10 13  1 20 30.0000000  0  6G31G28G24G 4G 9G 7
  22560200.1114     597253.90249    470833.31246  22560199.2194   22560203.5264
       223.0004        171.0004
  22756101.5074     246075.38249    202335.23346  22756101.0294   22756105.3864
       225.0004        171.0004
  21873301.4214   -3900066.35349  -2999750.47046  21873301.8784   21873306.9284
       232.0004        185.0004
  20647596.0564   -1814741.97649  -1398693.68547  20647596.1874   20647600.7974
       245.0004        212.0004
  21258966.3174    -868429.98049   -643077.34647  21258966.1544   21258970.7524
       241.0004        204.0004
  21785592.6714     241613.13149    200547.99547  21785592.2584   21785597.2394
       232.0004        190.0004
 04 10 13  1 21  0.0000000  0  6G31G28G24G 4G 9G 7
  22576158.6264     681116.58149    536180.87746  22576158.1914   22576162.2714
       224.0004        171.0004
  22767893.0314     308039.45949    250618.94646  22767892.9164   22767897.0024
       226.0004        172.0004
  21856862.1714   -3986455.54549  -3067066.65646  21856862.3994   21856867.7314
       234.0004        187.0004
  20642604.8454   -1840971.00349  -1419131.84747  20642604.8224   20642609.3364
       245.0004        212.0004
  21252719.3274    -901258.14149   -668657.70547  21252718.8394   21252723.8354
       242.0004        204.0004
  21796041.8364     296523.57049    243335.36147  21796041.2554   21796046.2104
       232.0004        190.0004
 04 10 13  1 21 30.0000000  0  6G31G28G24G 4G 9G 7
  22592130.1674     765047.35549    601581.49646  22592128.8854   22592134.2194
       224.0004        172.0004
  22779729.2264     370238.14349    299085.46646  22779728.6024   22779733.2104
       225.0004        173.0004
  21840488.6414   -4072499.71549  -3134113.99747  21840488.1554   21840493.6814
       233.0004        188.0004
  20637728.6144   -1866595.74349  -1439099.13447  20637728.8184   20637732.9214
       245.0004        212.0004
  21246583.6394    -933501.56449   -693782.42547  21246583.4364   21246588.2084
       242.0004        205.0004
  21806509.9284     351533.77549    286200.46347  21806508.9284   21806514.0684
       232.0004        191.0004
 04 10 13  1 22  0.0000000  0  6G31G28G24G 4G 9G 7
  22608114.6064     849045.54049    667034.63946  22608114.2684   22608118.6674
       226.0004        173.0004
  22791610.0994     432672.00549    347735.21946  22791609.3774   22791613.8134
       223.0004        171.0004
  21824181.1044   -4158195.92649  -3200890.20747  21824180.1944   21824186.4354
       233.0004        188.0004
  20632967.7334   -1891614.59749  -1458594.30447  20632967.9644   20632972.1704
       245.0004        212.0004
  21240559.4704    -965158.56449   -718450.19547  21240558.9874   21240563.8974
       241.0004        205.0004
  21816996.8814     406643.32049    329142.97547  21816995.6084   21817001.0954
       232.0004        192.0004
 04 10 13  1 22 30.0000000  0  6G31G28G24G 4G 9G 7
  22624111.4134     933108.80849    732538.49746  22624110.7744   22624115.5194
       226.0004        174.0004
  22803535.3844     495340.27349    396567.65246  22803534.3724   22803539.0524
       223.0004        169.0004
  21807940.0654   -4243542.64549  -3267394.08646  21807939.2984   21807945.4564
       233.0004        187.0004
  20628322.0924   -1916027.65249  -1477617.41847  20628322.2304   20628326.3924
       245.0004        212.0004
  21234646.9474    -996228.70549   -742660.66947  21234646.7804   21234651.2414
       241.0004        204.0004
  21827502.2154     461850.03249    372161.20647  21827501.2954   21827506.5124
       233.0004        192.0004
 04 10 13  1 23  0.0000000  0  6G31G28G24G 4G 9G 7
  22640120.7974    1017237.88549    798093.62246  22640120.6814   22640124.8854
       226.0004        174.0004
  22815505.7124     558244.97749    445584.30846  22815505.3844   22815509.9014
       223.0004        168.0004
  21791766.4544   -4328535.37749  -3333622.13746  21791766.1244   21791771.5804
       233.0004        187.0004
  20623792.2094   -1939832.14249  -1496166.33747  20623792.4564   20623796.5714
       245.0004        212.0004
  21228846.6614   -1026709.03549   -766411.55147  21228846.4554   21228851.2794
       241.0004        204.0004
  21838026.3094     517155.03549    415256.02347  21838025.6294   21838030.5994
       233.0004        192.0004
 04 10 13  1 23 30.0000000  0  6G31G28G24G 4G 9G 7
  22656142.2724    1101431.00849    863698.67146  22656141.5304   22656145.5114
       225.0004        173.0004
  22827521.0204     621385.62749    494784.82246  22827520.2274   22827525.0704
       222.0004        169.0004
  21775660.7224   -4413171.97949  -3399572.66846  21775660.3444   21775666.1914
       233.0004        186.0004
  20619378.2574   -1963027.65849  -1514240.73247  20619378.3414   20619382.4034
       245.0004        212.0004
  21223158.9204   -1056598.77849   -789702.22947  21223159.0034   21223163.4144
       241.0004        204.0004
  21848568.8444     572556.86849    458426.29447  21848568.0114   21848573.4934
       234.0004        193.0004
 04 10 13  1 24  0.0000000  0  6G31G28G24G 4G 9G 7
  22672175.5864    1185686.78349    929352.51946  22672174.3104   22672179.4164
       223.0004        171.0004
  22839581.1184     684762.21049    544169.18146  22839580.6974   22839584.6224
       220.0004        168.0004
  21759623.1884   -4497450.01449  -3465243.79746  21759622.1074   21759628.4924
       233.0004        187.0004
  20615080.2734   -1985613.80449  -1531840.29647  20615080.4874   20615084.2174
       245.0004        212.0004
  21217583.7444   -1085896.96249   -812531.95547  21217583.3434   21217588.0174
       241.0004        203.0004
  21859129.6784     628054.26749    501671.03047  21859129.3104   21859134.5104
       235.0004        193.0004
 04 10 13  1 24 30.0000000  0  6G31G28G24G 4G 9G 7
  22688220.6724    1270004.85249    995054.91046  22688219.9824   22688224.1104
       222.0004        171.0004
  22851686.2214     748375.76949    593738.19446  22851685.7774   22851690.3474
       221.0004        167.0004
  21743654.3394   -4581366.05649  -3530632.85847  21743653.6324   21743659.6374
       234.0004        188.0004
  20610898.5614   -2007588.84749  -1548963.67247  20610898.6224   20610902.4824
       245.0004        212.0004
  21212121.4294   -1114601.62949   -834899.20647  21212121.1844   21212125.6614
       241.0004        202.0004
  21869708.7604     683647.18849    544990.20147  21869708.2364   21869713.2574
       236.0004        194.0004
 04 10 13  1 25  0.0000000  0  6G31G28G24G 4G 9G 7
  22704277.3274    1354383.76649   1060804.71446  22704276.5964   22704281.0634
       221.0004        171.0004
  22863836.5424     812226.11949    643491.71046  22863835.4064   22863839.7934
       220.0004        166.0004
  21727754.8514   -4664918.04249  -3595738.23547  21727754.3494   21727760.9644
       234.0004        190.0004
  20606833.2244   -2028952.29749  -1565610.48347  20606833.2564   20606837.5064
       244.0004        212.0004
  21206772.1724   -1142711.81049   -856803.22347  21206772.0174   21206776.0294
       241.0004        202.0004
  21880305.8044     739334.34049    588382.79947  21880305.5104   21880310.1734
       236.0004        194.0004
 04 10 13  1 25 30.0000000  0  6G31G28G24G 4G 9G 7
  22720345.0904    1438821.00049   1126599.96946  22720343.9734   22720349.0574
       223.0004        171.0004
  22876031.6844     876312.10549    693428.84946  22876030.8734   22876035.3424
       219.0004        165.0004
  21711924.9704   -4748104.60549  -3660558.86447  21711924.7374   21711930.3074
       234.0004        191.0004
  20602884.0334   -2049704.81049  -1581781.23747  20602883.9704   20602888.5554
       244.0004        212.0004
  21201536.0444   -1170227.55149   -878244.03947  21201535.9624   21201540.0524
       241.0004        201.0004
  21890920.3664     795113.61849    631847.18747  21890919.6024   21890924.8084
       236.0004        194.0004
 04 10 13  1 26  0.0000000  0  6G31G28G24G 4G 9G 7
  22736423.8804    1523315.69549   1192439.99746  22736423.1924   22736427.6544
       223.0004        172.0004
  22888271.5734     940634.23349    743550.00146  22888270.7704   22888275.8774
       220.0004        165.0004
  21696165.1454   -4830922.80549  -3725092.46147  21696164.6484   21696170.5824
       234.0004        191.0004
  20599051.3904   -2069845.36049  -1597475.14348  20599051.7534   20599055.9994
       246.0004        213.0004
  21196413.3644   -1197147.47949   -899220.58747  21196413.1984   21196417.3024
       242.0004        201.0004
  21901552.2344     850984.29349    675382.78947  21901551.6214   21901556.5744
       236.0004        194.0004
 04 10 13  1 26 30.0000000  0  6G31G28G24G 4G 9G 7
  22752513.5164    1607866.98549   1258324.12846  22752512.9934   22752517.5524
       224.0004        173.0004
  22900556.5464    1005192.78649    793855.36246  22900556.3554   22900561.7914
       220.0004        165.0004
  21680475.9474   -4913369.71649  -3789336.73447  21680475.3094   21680481.5514
       234.0004        190.0004
  20595335.5044   -2089372.93749  -1612691.41048  20595335.7664   20595339.7104
       245.0004        213.0004
  21191404.3324   -1223470.33049   -919731.88347  21191404.0564   21191408.5894
       241.0004        201.0004
  21912201.3344     906945.90749    718989.25747  21912200.6994   21912205.7614
       235.0004        194.0004
 04 10 13  1 27  0.0000000  0  6G31G28G24G 4G 9G 7
  22768613.5604    1692472.90549   1324250.81946  22768613.9174   22768617.2794
       224.0004        173.0004
  22912886.5394    1069987.11749    844344.45246  22912886.9684   22912890.4614
       222.0004        165.0004
  21664857.6984   -4995443.68749  -3853290.41647  21664857.3814   21664863.3624
       234.0004        190.0004
  20591736.0524   -2108287.89849  -1627430.31447  20591735.7684   20591740.0854
       244.0004        212.0004
  21186508.9014   -1249195.92049   -939777.78647  21186508.6554   21186513.0204
       240.0004        201.0004
  21922867.3744     962996.48449    762665.03947  21922866.6254   21922871.9394
       236.0004        195.0004
 04 10 13  1 27 30.0000000  0  6G31G28G24G 4G 9G 7
  22784723.6674    1777131.92949   1390218.89446  22784722.2754   22784727.5944
       223.0004        173.0004
  22925261.3594    1135016.77249    895016.92146  22925261.0224   22925265.1764
       222.0004        164.0004
  21649310.8544   -5077142.75149  -3916951.96547  21649310.3544   21649316.5874
       236.0004        190.0004
  20588253.2054   -2126589.55349  -1641691.31247  20588252.5994   20588257.1974
       243.0004        210.0004
  21181727.2674   -1274323.63649   -959357.81247  21181727.3554   21181731.3344
       241.0004        202.0004
  21933550.1894    1019134.92449    806409.29347  21933549.7004   21933555.0694
       237.0004        195.0004
 04 10 13  1 28  0.0000000  0  7G31G28G17G24G 4G 9G 7
  22800843.6604    1861843.28959   1456227.97446  22800842.3254   22800847.5024
       222.0004        172.0004
  22937680.8054    1200281.48459    945872.56346  22937680.2244   22937684.2264
       223.0004        164.0004
                   -860589.37359   -649608.30843
       211.0004         74.0004
  21633835.9704   -5158463.70359  -3980318.65947  21633835.5174   21633840.5104
       236.0004        191.0004
  20584887.1714   -2144277.39459  -1655473.79547  20584886.9194   20584890.7954
       244.0004        209.0004
  21177059.4784   -1298852.96859   -978471.56547  21177059.0774   21177063.6794
       240.0004        202.0004
  21944249.6324    1075360.58259    850221.73847  21944249.3824   21944253.8184
       237.0004        196.0004
 04 10 13  1 28 30.0000000  0  7G31G28G17G24G 4G 9G 7
  22816973.3594    1946606.09849   1522276.92046  22816972.3894   22816977.0744
       223.0004        171.0004
  22950145.5674    1265783.45949    996913.04446  22950145.3254   22950149.9684
       223.0004        165.0004
                   -961627.40849   -227945.65143
       213.0004         74.0004
  21618433.4964   -5239403.89549  -4043388.87647  21618433.1104   21618438.3564
       236.0004        192.0004
  20581638.2704   -2161350.35949  -1668777.36847  20581638.5484   20581642.1844
       245.0004        210.0004
  21172506.1604   -1322780.57249   -997116.43647  21172505.7994   21172510.4394
       239.0004        201.0004
  21954965.5494    1131673.00649    894101.56847  21954965.0144   21954969.7374
       236.0004        196.0004
 04 10 13  1 29  0.0000000  0  7G31G28G17G24G 4G 9G 7
  22833112.4714    2031418.42449   1588364.47046  22833111.6564   22833116.6454
       223.0004        172.0004
  22962655.0774    1331521.03049   1048137.12446  22962654.5254   22962658.6744
       222.0004        165.0004
                  -1062611.60949   -306634.62643
       213.0004         74.0004
  21603103.6774   -5319962.14249  -4106161.46447  21603102.8934   21603109.0234
       234.0004        192.0004
  20578506.3504   -2177808.87749  -1681602.14647  20578506.2874   20578510.5674
       245.0004        211.0004
  21168067.1914   -1346107.28349  -1015293.08447  21168066.8324   21168071.5354
       240.0004        201.0004
  21965697.5614    1188070.40149    938047.61147  21965696.9244   21965701.6174
       236.0004        195.0004
 04 10 13  1 29 30.0000000  0  7G31G28G17G24G 4G 9G 7
  22849260.6454    2116277.91359   1654488.53946  22849259.8874   22849264.6424
       224.0004        172.0004
  22975209.2644    1397493.98859   1099544.63446  22975208.9344   22975213.6034
       222.0004        165.0004
                  -1163539.16059   -385278.93744                  24303695.4714
       215.0004        123.0004
  21587846.9754   -5400135.75559  -4168634.33247  21587846.1854   21587852.5634
       234.0004        192.0004
  20575491.3244   -2193652.63759  -1693947.89647  20575491.5444   20575495.6424
       245.0004        212.0004
  21163742.8614   -1368831.62559  -1033000.13347  21163742.5664   21163747.0064
       241.0004        202.0004
  21976445.5094    1244551.53359    982058.90147  21976444.5144   21976449.4514
       236.0004        195.0004
 04 10 13  1 30  0.0000000  0  7G31G28G17G24G 4G 9G 7
  22865418.2884    2201186.99859   1720651.69646  22865417.8914   22865422.1734
       224.0004        173.0004
  22987808.4334    1463702.76559   1151135.90446  22987808.9114   22987812.3784
       225.0004        166.0004
  24284493.4384   -1264408.16959   -463877.82745  24284491.9364   24284500.2674
       213.0004        145.0004
  21572664.2264   -5479920.78659  -4230804.18847  21572663.2264   21572670.0594
       235.0004        192.0004
  20572593.7204   -2208879.63859  -1705812.83848  20572593.9004   20572597.9134
       246.0004        213.0004
  21159533.1224   -1390954.10859  -1050238.41947  21159533.0004   21159537.0624
       240.0004        202.0004
  21987209.5774    1301117.32159   1026136.38047  21987208.8924   21987213.4814
       236.0004        195.0004
 04 10 13  1 30 30.0000000  0  7G31G28G17G24G 4G 9G 7
  22881584.9224    2286143.46649   1786851.55546  22881584.7394   22881589.1854
       225.0004        174.0004
  23000453.0374    1530149.45249   1202912.54946  23000453.6474   23000457.0154
       225.0004        167.0004
  24265310.3034   -1365215.32549   -542428.71445  24265308.8764   24265317.1154
       212.0004        150.0004
  21557555.8614   -5559314.96549  -4292669.72047  21557555.1554   21557561.0384
       236.0004        193.0004
  20569813.5884   -2223489.48549  -1717197.10248  20569813.7744   20569817.8744
       246.0004        214.0004
  21155438.5764   -1412470.87549  -1067004.72747  21155438.1054   21155442.6524
       240.0004        202.0004
  21997989.5394    1357766.66049   1070278.73847  21997988.6494   21997993.4454
       236.0004        195.0004
 04 10 13  1 31  0.0000000  0  7G31G28G17G24G 4G 9G 7
  22897759.9874    2371144.08249   1853085.81246  22897759.3514   22897764.0994
       224.0004        174.0004
  23013142.1974    1596830.86649   1254872.11146  23013142.1834   23013145.7094
       225.0004        167.0004
  24246138.9634   -1465960.40749   -620931.22145  24246137.4784   24246145.6664
       213.0004        152.0004
  21542521.9674   -5638318.13049  -4354230.57147  21542521.7034   21542527.2144
       237.0004        194.0004
  20567150.4994   -2237484.02149  -1728101.89748  20567150.5384   20567154.3604
       246.0004        214.0004
  21151458.8214   -1433384.16549  -1083300.78947  21151458.4804   21151463.0724
       239.0004        202.0004
  22008784.8104    1414496.51749   1114483.83147  22008783.9964   22008789.1354
       235.0004        194.0004
 04 10 13  1 31 30.0000000  0  7G31G28G17G24G 4G 9G 7
  22913943.8194    2456190.79449   1919355.97546  22913942.5684   22913947.5654
       223.0004        174.0004
  23025876.4474    1663749.87249   1307016.80046  23025876.1084   23025879.6264
       225.0004        166.0004
  24226980.4434   -1566638.20549   -699381.28345  24226978.9124   24226986.3614
       212.0004        153.0004
  21527563.6144   -5716924.79949  -4415482.46247  21527563.2584   21527568.5744
       238.0004        194.0004
  20564605.1384   -2250859.91449  -1738524.63548  20564605.2404   20564608.7314
       246.0004        213.0004
  21147594.6204   -1453690.27449  -1099123.72147  21147594.4554   21147598.5824
       240.0004        202.0004
  22019595.8404    1471309.17949   1158753.43847  22019595.2914   22019600.1184
       235.0004        194.0004
 04 10 13  1 32  0.0000000  0  7G31G28G17G24G 4G 9G 7
  22930135.9234    2541281.09849   1985660.11746  22930135.5574   22930140.2324
       223.0004        173.0004
  23038655.7244    1730905.34149   1359345.75446  23038654.9114   23038660.0534
       224.0004        167.0004
  24207834.8954   -1667247.86449   -777778.26345  24207833.5364   24207841.0644
       215.0004        154.0004
  21512680.9024   -5795134.13249  -4476424.73647  21512680.8414   21512686.2384
       237.0004        194.0004
  20562177.3254   -2263618.18249  -1748466.10947  20562177.3114   20562180.7434
       246.0004        212.0004
  21143845.9574   -1473389.81049  -1114473.99947  21143845.8504   21143849.9184
       239.0004        202.0004
  22030422.1904    1528202.19949   1203085.66047  22030421.3674   22030426.0344
       235.0004        194.0004
 04 10 13  1 32 30.0000000  0  7G31G28G17G24G 4G 9G 7
  22946336.1104    2626413.83849   2051997.31746  22946335.8624   22946339.7204
       223.0004        173.0004
  23051479.9784    1798297.16849   1411858.87746  23051479.4334   23051483.4244
       223.0004        166.0004
  24188702.7184   -1767786.93149   -856120.23845  24188701.5604   24188709.1594
       214.0004        156.0004
  21497874.2114   -5872943.64149  -4537055.46347  21497873.3724   21497879.7864
       236.0004        195.0004
  20559867.0724   -2275758.37349  -1757925.96147  20559866.9004   20559870.6814
       245.0004        212.0004
  21140212.8674   -1492482.07549  -1129351.08147  21140212.5154   21140217.2374
       240.0004        202.0004
  22041263.6974    1585174.81149   1247479.90647  22041263.0614   22041267.6714
       234.0004        192.0004
 04 10 13  1 33  0.0000000  0  7G31G28G17G24G 4G 9G 7
  22962544.1834    2711587.83049   2118366.66246  22962543.2124   22962547.9534
       223.0004        172.0004
  23064349.1134    1865925.19849   1464556.06946  23064348.9534   23064352.8214
       222.0004        165.0004
  24169584.2914   -1868253.36049   -934405.61845  24169583.1364   24169590.7164
       215.0004        157.0004
  21483143.8264   -5950351.38449  -4597373.11747  21483143.1004   21483149.9764
       236.0004        195.0004
  20557674.4064   -2287280.67849  -1766904.34147  20557674.5484   20557678.1684
       246.0004        212.0004
  21136695.4214   -1510966.45649  -1143754.48247  21136695.1404   21136699.4774
       239.0004        202.0004
  22052120.1284    1642225.89949   1291935.31347  22052119.2954   22052124.3714
       232.0004        191.0004
 04 10 13  1 33 30.0000000  0  7G31G28G17G24G 4G 9G 7
  22978759.8654    2796801.92649   2184767.26746  22978760.5454   22978764.2214
       224.0004        171.0004
  23077263.1734    1933789.27649   1517437.19346  23077262.0344   23077266.5434
       221.0004        164.0004
  24150480.2614   -1968644.77949  -1012632.56845  24150479.4014   24150487.0774
       214.0004        158.0004
  21468490.4764   -6027354.87649  -4657375.77347  21468490.1444   21468496.3714
       236.0004        195.0004
  20555599.4794   -2298184.59949  -1775400.87348  20555599.5954   20555603.0564
       246.0004        213.0004
  21133293.7644   -1528842.42049  -1157683.79047  21133293.4254   21133297.9434
       240.0004        202.0004
  22062991.3124    1699354.65449   1336451.22747  22062990.4004   22062995.4494
       232.0004        190.0004
 04 10 13  1 34  0.0000000  0  7G31G28G17G24G 4G 9G 7
  22994982.9914    2882054.80349   2251198.08746  22994982.5854   22994986.8194
       225.0004        171.0004
  23090222.1274    2001889.00549   1570501.93546  23090221.1634   23090226.2724
       221.0004        164.0004
  24131390.9364   -2068959.30049  -1090799.58945  24131390.1764   24131396.8884
       216.0004        158.0004
  21453914.5404   -6103951.82349  -4717061.63747  21453914.1144   21453919.9044
       236.0004        195.0004
  20553642.1564   -2308470.27449  -1783415.65348  20553642.0404   20553645.6694
       246.0004        213.0004
  21130007.8924   -1546109.50549  -1171138.64047  21130007.5204   21130012.1034
       238.0004        202.0004
  22073877.0754    1756560.05249   1381026.87947  22073876.0144   22073881.2434
       232.0004        189.0004
 04 10 13  1 34 30.0000000  0  7G31G28G17G24G 4G 9G 7
  23011213.2834    2967345.31249   2317658.22746  23011213.0194   23011217.0764
       225.0004        171.0004
  23103225.9614    2070224.37049   1623750.28846  23103224.9904   23103230.7794
       220.0004        165.0004
  24112316.7024   -2169194.74749  -1168905.01045  24112316.1214   24112322.8454
       216.0004        159.0004
  21439416.2494   -6180140.41949  -4776429.31247  21439415.4324   21439421.2384
       237.0004        195.0004
  20551802.4434   -2318137.87249  -1790948.81348  20551802.5134   20551806.0514
       246.0004        213.0004
  21126837.9304   -1562767.23949  -1184118.67347  21126837.4554   21126842.2754
       238.0004        201.0004
  22084777.2254    1813841.04049   1425661.42547  22084776.5274   22084781.4034
       231.0004        188.0004
 04 10 13  1 35  0.0000000  0  7G31G28G17G24G 4G 9G 7
  23027450.4964    3052672.32049   2384146.81046  23027449.7484   23027455.2314
       225.0004        172.0004
  23116274.5294    2138795.28349   1677182.20146  23116273.9674   23116278.8884
       220.0004        165.0004
  24093258.0754   -2269348.66349  -1246946.89845  24093257.9854   24093263.3714
       218.0004        159.0004
  21424996.1064   -6255918.42049  -4835477.05047  21424995.8344   21425001.2074
       237.0004        195.0004
  20550080.4584   -2327186.99149  -1798000.03848  20550080.6254   20550084.3564
       246.0004        213.0004
  21123784.0424   -1578814.99649  -1196623.39647  21123783.9194   21123788.5734
       238.0004        201.0004
  22095691.5794    1871196.78249   1470354.21546  22095690.8914   22095696.0544
       231.0004        187.0004
 04 10 13  1 35 30.0000000  0  7G31G28G17G24G 4G 9G 7
  23043694.5584    3138035.20949   2450663.35746  23043693.5534   23043699.2204
       223.0004        172.0004
  23129368.0024    2207601.86849   1730797.73246  23129367.7324   23129371.0754
       220.0004        164.0004
  24074215.4464   -2369418.41049  -1324923.21645  24074214.5384   24074221.2024
       218.0004        159.0004
  21410654.6514   -6331282.85449  -4894202.53247  21410654.1534   21410659.9714
       237.0004        194.0004
  20548476.2554   -2335617.15449  -1804568.96748  20548476.3764   20548480.0454
       247.0004        214.0004
  21120846.5194   -1594251.93849  -1208652.15947  21120846.7024   21120850.6414
       239.0004        201.0004
  22106620.2034    1928626.88149   1515104.95446  22106619.9754   22106624.6694
       231.0004        186.0004
 04 10 13  1 36  0.0000000  0  7G31G28G17G24G 4G 9G 7
  23059945.0604    3223432.14849   2517206.42946  23059944.4934   23059948.8114
       224.0004        172.0004
  23142506.1584    2276643.36949   1784596.30745  23142505.8674   23142508.4674
       218.0004        162.0004
  24055189.0314   -2469402.81549  -1402833.03145  24055188.5994   24055194.2964
       217.0004        159.0004
  21396392.0844   -6406232.51849  -4952604.82347  21396391.3174   21396397.5894
       235.0004        194.0004
  20546989.6224   -2343429.33249  -1810656.35548  20546989.6754   20546993.4054
       247.0004        214.0004
  21118025.2404   -1609078.38049  -1220205.20847  21118025.0854   21118029.3914
       239.0004        201.0004
  22117562.6624    1986129.71349   1559912.36446  22117562.1304   22117566.6264
       231.0004        186.0004
 04 10 13  1 36 30.0000000  0  7G31G28G17G24G 4G 9G 7
  23076202.1354    3308863.43149   2583776.26846  23076201.5484   23076205.7874
       223.0004        172.0004
  23155689.1584    2345921.23749   1838579.08045  23155688.7004   23155693.3514
       218.0004        160.0004
  24036179.6294   -2569297.85849  -1480673.20845  24036178.9104   24036184.6084
       216.0004        157.0004
  21382209.1444   -6480763.80449  -5010681.10047  21382208.6454   21382214.8004
       236.0004        194.0004
  20545620.9284   -2350621.69949  -1816260.77448  20545620.8834   20545624.8694
       246.0004        214.0004
  21115320.4424   -1623292.22549  -1231280.90847  21115320.2084   21115324.4254
       240.0004        202.0004
  22128519.0714    2043705.80149   1604776.85846  22128518.6754   22128523.0894
       231.0004        185.0004
 04 10 13  1 37  0.0000000  0  7G31G28G17G24G 4G 9G 7
  23092464.8334    3394324.38449   2650369.22846  23092464.2404   23092469.3994
       223.0004        172.0004
  23168916.4344    2415431.46749   1892742.91345  23168916.8034   23168919.4764
       220.0004        161.0004
  24017186.8954   -2669105.24149  -1558445.08545  24017185.3494   24017192.2994
       212.0004        156.0004
  21368105.6934   -6554878.07449  -5068432.43347  21368105.6584   21368111.0404
       237.0004        195.0004
  20544369.4104   -2357198.26049  -1821385.34448  20544369.3694   20544373.4914
       246.0004        215.0004
  21112731.5924   -1636896.57749  -1241881.68547  21112731.2304   21112735.5204
       240.0004        202.0004
  22139488.5214    2101350.75149   1649695.00446  22139487.6324   22139492.0804
       230.0004        184.0004
 04 10 13  1 37 30.0000000  0  7G31G28G17G24G 4G 9G 7
  23108733.8824    3479818.83549   2716988.28546  23108733.0174   23108737.7324
       223.0004        172.0004
  23182189.0434    2485178.60849   1947091.33945  23182188.7954   23182192.9524
       222.0004        162.0004
  23998212.1004   -2768817.67949  -1636142.97745  23998211.4844   23998217.0594
       210.0004        154.0004
  21354082.9864   -6628568.39349  -5125853.41447  21354082.5964   21354088.6604
       237.0004        196.0004
  20543236.0264   -2363154.06649  -1826026.20448  20543235.9744   20543240.1404
       246.0004        214.0004
  21110259.7824   -1649886.22149  -1252003.46847  21110259.6514   21110263.9644
       241.0004        203.0004
  22150471.8144    2159068.30849   1694669.72946  22150471.1584   22150475.8324
       231.0004        183.0004
 04 10 13  1 38  0.0000000  0  7G31G28G17G24G 4G 9G 7
  23125008.7634    3565343.73049   2783631.06446  23125008.7804   23125012.9314
       223.0004        173.0004
  23195506.3914    2555160.67849   2001622.82745  23195506.2954   23195510.1114
       221.0004        162.0004
  23979255.3684   -2868435.02749  -1713766.77045  23979254.4984   23979261.6114
       209.0004        152.0004
  21340140.9634   -6701834.23349  -5182943.62747  21340140.5984   21340146.4564
       237.0004        197.0004
  20542220.3244   -2368491.28049  -1830185.04748  20542220.1874   20542224.2214
       245.0004        213.0004
  21107904.6174   -1662262.58049  -1261647.37047  21107904.3324   21107908.9084
       240.0004        203.0004
  22161468.4814    2216855.87949   1739699.01346  22161468.0254   22161472.8274
       232.0004        184.0004
 04 10 13  1 38 30.0000000  0  7G31G28G17G24G 4G 9G 7
  23141289.3114    3650898.48049   2850297.11546  23141288.8294   23141293.3694
       223.0004        172.0004
  23208868.2464    2625377.90049   2056337.55345  23208867.8954   23208871.6874
       219.0004        161.0004
  23960317.2344   -2967954.50749  -1791314.31545  23960316.1584   23960324.0624
       208.0004        152.0004
  21326280.1034   -6774673.41449  -5239701.38147  21326279.7544   21326285.6174
       237.0004        197.0004
  20541322.4254   -2373209.29649  -1833861.40347  20541322.2194   20541325.9254
       245.0004        212.0004
  21105666.2614   -1674024.96549  -1270812.85647  21105665.9614   21105670.5084
       240.0004        203.0004
  22172478.4804    2274713.14349   1784782.61546  22172477.8134   22172482.7614
       231.0004        184.0004
 04 10 13  1 39  0.0000000  0  7G31G28G17G24G 4G 9G 7
  23157575.2624    3736481.74449   2916985.37446  23157574.3654   23157579.5394
       223.0004        172.0004
  23222274.6874    2695830.08449   2111235.36445  23222273.5354   23222278.3414
       219.0004        161.0004
  23941398.1994   -3067374.04449  -1868783.96845  23941397.0364   23941404.3784
       208.0004        151.0004
  21312500.7484   -6847084.36049  -5296125.44647  21312500.6634   21312505.9494
       239.0004        198.0004
  20540542.3234   -2377308.72749  -1837055.74147  20540542.5184   20540546.1864
       245.0004        212.0004
  21103544.7284   -1685173.52249  -1279500.02847  21103544.3304   21103549.0454
       240.0004        203.0004
  22183501.4914    2332638.89849   1829919.59646  22183500.9724   22183505.5384
       231.0004        184.0004
 04 10 13  1 39 30.0000000  0  7G31G28G17G24G 4G 9G 7
  23173866.4004    3822092.44749   2983695.01846  23173865.6274   23173870.4694
       224.0004        171.0004
  23235725.9494    2766516.68749   2166315.82945  23235726.2714   23235730.0304
       219.0004        162.0004
  23922498.5414   -3166691.78049  -1946174.29745  23922497.8794   23922504.5214
       206.0004        149.0004
  21298803.3544   -6919065.00849  -5352214.21847  21298803.4754   21298808.5834
       240.0004        200.0004
  20539879.8914   -2380789.75149  -1839768.20247  20539879.9774   20539883.9054
       245.0004        212.0004
  21101540.0754   -1695707.95149  -1287708.66247  21101539.7084   21101544.3754
       240.0004        203.0004
  22194537.2564    2390632.22149   1875109.21246  22194536.3624   22194541.4374
       231.0004        184.0004
 04 10 13  1 40  0.0000000  0  7G31G28G17G24G 4G 9G 7
  23190162.6124    3907730.26549   3050425.78546  23190161.8654   23190166.6704
       222.0004        170.0004
  23249221.9664    2837438.29549   2221579.42646  23249221.5194   23249225.8784
       219.0004        163.0004
  23903618.8854   -3265904.59049  -2023482.86345  23903618.7194   23903625.9304
       207.0004        147.0004
  21285188.4724   -6990612.21449  -5407965.24247  21285188.3114   21285193.9844
       239.0004        200.0004
  20539335.2124   -2383651.70849  -1841998.26548  20539335.1644   20539339.2804
       245.0004        213.0004
  21099652.4844   -1705627.10749  -1295437.86547  21099652.2454   21099656.9534
       240.0004        203.0004
  22205585.8424    2448693.10349   1920351.46946  22205584.7644   22205589.1864
       230.0004        184.0004
 04 10 13  1 40 30.0000000  0  7G31G28G17G24G 4G 9G 7
  23206463.6824    3993393.43049   3117176.31746  23206463.0804   23206467.6744
       222.0004        170.0004
  23262762.3454    2908593.94249   2277025.39345  23262761.1964   23262766.8084
       218.0004        161.0004
  23884759.4194   -3365011.13449  -2100708.62145  23884759.2554   23884765.6864
       209.0004        146.0004
  21271656.2334   -7061724.63149  -5463377.46947  21271656.3394   21271661.6924
       239.0004        200.0004
  20538908.1394   -2385895.86549  -1843746.93348  20538908.2304   20538911.9914
       247.0004        213.0004
  21097881.8714   -1714931.71549  -1302688.20447  21097881.7904   21097886.3014
       240.0004        204.0004
  22216646.8924    2506819.89549   1965645.09346  22216645.6364   22216651.0194
       229.0004        184.0004
 04 10 13  1 41  0.0000000  0  7G31G28G17G24G 4G 9G 7
  23222769.5884    4079081.39349   3183946.16146  23222769.6014   23222773.5554
       221.0004        169.0004
  23276347.2534    2979983.81449   2332653.86845  23276346.6814   23276351.1604
       218.0004        160.0004
  23865920.7874   -3464008.58949  -2177849.39945  23865919.8184   23865926.9744
       210.0004        146.0004
  21258207.1664   -7132399.97449  -5518449.12647  21258207.0494   21258212.3424
       239.0004        200.0004
  20538598.7724   -2387521.70249  -1845013.79748  20538598.8144   20538602.5224
       248.0004        213.0004
  21096228.4584   -1723620.93449  -1309459.01547  21096228.3754   21096233.0134
       241.0004        204.0004
  22227720.4184    2565012.36749   2010989.88946  22227719.3704   22227725.0494
       229.0004        183.0004
 04 10 13  1 41 30.0000000  0  7G31G28G17G24G 4G 9G 7
  23239079.9414    4164792.41349   3250733.97446  23239079.7504   23239084.1964
       222.0004        169.0004
  23289976.6854    3051607.07349   2388464.20245  23289976.5954   23289980.0684
       219.0004        160.0004
  23847103.2364   -3562895.45449  -2254904.00645  23847103.2244   23847109.3024
       213.0004        147.0004
  21244841.5214   -7202636.96749  -5573179.20847  21244841.3724   21244846.3474
       240.0004        199.0004
  20538406.8254   -2388530.39649  -1845799.77148  20538406.7674   20538410.6074
       247.0004        213.0004
  21094691.9674   -1731695.50149  -1315750.87647  21094692.0594   21094696.0974
       241.0004        205.0004
  22238806.2174    2623268.88549   2056384.58846  22238805.4254   22238810.2054
       228.0004        182.0004
 04 10 13  1 42  0.0000000  0  7G31G28G17G24G 4G 9G 7
  23255394.6014    4250525.97349   3317539.35746  23255394.2164   23255399.0074
       222.0004        168.0004
  23303650.5224    3123463.78249   2444456.44945  23303649.9194   23303655.2464
       215.0004        159.0004
  23828307.2174   -3661669.28949  -2331870.55345  23828306.7174   23828312.5534
       215.0004        147.0004
  21231559.7814   -7272432.94749  -5627565.63547  21231559.0974   21231563.9974
       239.0004        199.0004
  20538332.2734   -2388921.89249  -1846104.79648  20538332.2684   20538336.3344
       246.0004        213.0004
  21093272.5344   -1739154.65949  -1321563.19347  21093272.1824   21093276.6654
       241.0004        206.0004
  22249904.2194    2681589.13149   2101828.94846  22249904.0424   22249908.5754
       229.0004        183.0004
 04 10 13  1 42 30.0000000  0  7G31G28G17G24G 4G 9G 7
  23271713.3824    4336281.31549   3384361.69646  23271712.9684   23271717.0944
       222.0004        167.0004
  23317368.6544    3195553.97749   2500630.64145  23317368.1824   23317372.2944
       215.0004        158.0004
  23809533.2124   -3760327.56149  -2408747.04345  23809531.4644   23809538.4544
       218.0004        149.0004
  21218362.1834   -7341785.82049  -5681606.79847  21218361.4844   21218366.7844
       238.0004        198.0004
  20538375.1684   -2388696.17549  -1845928.88447  20538375.0494   20538379.1854
       246.0004        212.0004
  21091970.2104   -1745998.03049  -1326895.69147  21091969.7634   21091974.6714
       241.0004        206.0004
  22261014.3654    2739972.63249   2147322.59246  22261013.5414   22261018.2644
       230.0004        184.0004
 04 10 13  1 43  0.0000000  0  7G31G28G17G24G 4G 9G 7
  23288036.0354    4422057.33549   3451200.14246  23288036.2784   23288040.2214
       221.0004        166.0004
  23331131.2434    3267877.26649   2556986.45945  23331130.9044   23331136.1654
       216.0004        157.0004
  23790781.5244   -3858868.01749  -2485531.73445  23790780.3454   23790786.6734
       219.0004        152.0004
  21205249.3194   -7410693.69649  -5735301.20347  21205248.9524   21205254.1204
       238.0004        198.0004
  20538535.4394   -2387853.65749  -1845272.35547  20538535.4984   20538539.2984
       246.0004        212.0004
  21090785.1404   -1752225.63649  -1331748.36547  21090785.1034   21090789.3954
       242.0004        207.0004
  22272136.3284    2798418.43649   2192864.78346  22272135.8714   22272140.4504
       230.0004        185.0004
 04 10 13  1 43 30.0000000  0  7G31G28G17G24G 4G 9G 7
  23304362.4014    4507853.17349   3518054.05246  23304362.3464   23304366.8134
       221.0004        164.0004
  23344938.3564    3340433.31749   2613523.63445  23344938.0864   23344942.7444
       218.0004        158.0004
  23772052.6844   -3957288.48949  -2562222.92945  23772052.1314   23772057.7874
       220.0004        155.0004
  21192221.5634   -7479154.67649  -5788647.37747  21192221.3204   21192226.8204
       239.0004        199.0004
  20538813.0444   -2386394.70549  -1844135.48848  20538813.1954   20538817.1404
       246.0004        213.0004
  21089717.3384   -1757837.38249  -1336121.14847  21089717.4824   21089721.7374
       243.0004        207.0004
  22283269.9714    2856925.89349   2238455.01446  22283269.0844   22283273.9164
       229.0004        184.0004
 04 10 13  1 44  0.0000000  0  7G31G28G17G24G 4G 9G 7
  23320692.3494    4593667.74549   3584922.54046  23320691.6514   23320696.4444
       219.0004        163.0004
  23358789.6224    3413221.73549   2670241.88745  23358789.6364   23358793.7714
       217.0004        159.0004
  23753347.0674   -4055586.91449  -2638819.01845  23753346.2514   23753353.1224
       222.0004        158.0004
  21179279.3184   -7547166.64549  -5841643.66847  21179279.2504   21179284.6364
       240.0004        200.0004
  20539207.8484   -2384319.93249  -1842518.75548  20539207.9924   20539212.2444
       247.0004        213.0004
  21088766.6884   -1762833.28349  -1340014.05347  21088766.5114   21088770.9274
       242.0004        208.0004
  22294415.1224    2915494.07549   2284092.56446  22294414.5884   22294419.2134
       229.0004        183.0004
 04 10 13  1 44 30.0000000  0  7G31G28G17G24G 4G 9G 7
  23337025.5294    4679499.25349   3651804.21945  23337025.6634   23337029.0254
       220.0004        162.0004
  23372684.7974    3486241.58749   2727140.47045  23372684.1774   23372688.7524
       218.0004        159.0004
  23734664.9314   -4153761.82949  -2715318.86245  23734664.0844   23734671.1294
       220.0004        159.0004
  21166422.7304   -7614728.59949  -5894289.29647  21166422.4114   21166427.5954
       240.0004        200.0004
  20539719.6094   -2381630.60549  -1840423.14848  20539719.6484   20539723.7714
       247.0004        214.0004
  21087933.0354   -1767214.02149  -1343427.61547  21087932.7584   21087937.2074
       241.0004        207.0004
  22305571.4564    2974121.41949   2329776.21046  22305570.1954   22305575.0944
       229.0004        182.0004
 04 10 13  1 45  0.0000000  0  7G31G28G17G24G 4G 9G 7
  23353362.1414    4765348.86849   3718700.02945  23353362.0144   23353366.5244
       218.0004        161.0004
  23386624.3744    3559494.57849   2784220.71545  23386625.2464   23386628.4184
       218.0004        159.0004
  23716007.0934   -4251809.07449  -2791719.21945  23716005.9614   23716012.3124
       220.0004        160.0004
  21153652.4664   -7681836.78449  -5946581.33847  21153651.9124   21153657.0724
       240.0004        200.0004
  20540348.6154   -2378325.03149  -1837847.35048  20540348.4034   20540352.4874
       246.0004        213.0004
  21087216.8084   -1770977.68149  -1346360.33547  21087216.6744   21087220.9244
       241.0004        206.0004
  22316739.2964    3032809.34749   2375507.07846  22316737.9444   22316742.9124
       228.0004        182.0004
 04 10 13  1 45 30.0000000  0  7G31G28G17G24G 4G 9G 7
  23369701.9404    4851215.14049   3785608.82045  23369701.3924   23369705.8384
       218.0004        160.0004
  23400608.3354    3632980.05449   2841482.12645  23400608.0764   23400612.3674
       219.0004        158.0004
  23697373.7814   -4349726.87749  -2868018.70445  23697372.5104   23697379.1724
       218.0004        160.0004
  21140968.6904   -7748489.76649  -5998518.69247  21140967.7834   21140973.8184
       238.0004        200.0004
  20541094.6404   -2374404.21649  -1834792.14847  20541094.5264   20541098.5304
       245.0004        211.0004
  21086617.9484   -1774124.66349  -1348812.52547  21086617.5984   21086622.0124
       241.0004        206.0004
  22327918.3834    3091556.58149   2421284.14646  22327917.5344   22327922.3154
       227.0004        182.0004
 04 10 13  1 46  0.0000000  0  7G31G28G17G24G 4G 9G 7
  23386044.7514    4937096.98949   3852529.73145  23386044.8784   23386047.9824
       218.0004        160.0004
  23414636.3484    3706697.33949   2898924.14645  23414636.8644   23414639.8354
       218.0004        157.0004
  23678765.4954   -4447513.26149  -2944215.78545  23678764.0034   23678771.9464
       217.0004        161.0004
  21128371.8784   -7814685.60449  -6050099.82847  21128371.1034   21128376.9714
       238.0004        199.0004
  20541957.6094   -2369868.95449  -1831258.15647  20541957.5094   20541961.7614
       245.0004        211.0004
  21086136.4284   -1776655.15549  -1350784.33647  21086136.4914   21086140.4854
       241.0004        205.0004
  22339108.6564    3150362.26549   2467106.75846  22339107.9774   22339113.1644
       228.0004        182.0004
 04 10 13  1 46 30.0000000  0  7G31G28G17G24G 4G 9G 7
  23402390.2984    5022993.22049   3919461.84745  23402390.7324   23402394.5814
       218.0004        159.0004
  23428708.3174    3780645.82649   2956546.33945  23428707.9534   23428711.9594
       217.0004        156.0004
  23660182.7144   -4545166.19349  -3020308.89145  23660182.3874   23660189.4614
       216.0004        161.0004
  21115862.3674   -7880423.06749  -6101323.77847  21115861.9934   21115867.4444
       238.0004        199.0004
  20542937.3884   -2364720.00249  -1827245.96548  20542937.5004   20542941.7864
       247.0004        213.0004
  21085772.1014   -1778569.72549  -1352276.20647  21085771.8544   21085776.2684
       241.0004        205.0004
  22350309.9674    3209225.39349   2512974.13846  22350309.4234   22350314.0224
       229.0004        182.0004
 04 10 13  1 47  0.0000000  0  7G31G28G17G24G 4G 9G 7
  23418738.4174    5108902.87949   3986404.43545  23418737.7254   23418742.9904
       219.0004        159.0004
  23442824.1854    3854825.29449   3014348.50445  23442824.2504   23442827.6084
       215.0004        154.0004
  23641625.8284   -4642683.76949  -3096296.51245  23641626.0734   23641632.5084
       216.0004        161.0004
  21103440.6044   -7945700.30349  -6152189.11247  21103440.5424   21103445.9154
       241.0004        201.0004
  20544033.9484   -2358958.05449  -1822756.11548  20544034.3514   20544037.9454
       248.0004        214.0004
  21085524.9724   -1779868.47049  -1353288.21947  21085524.7954   21085528.8064
       242.0004        205.0004
  22361522.0954    3268145.12649   2558885.61946  22361521.7514   22361526.0604
       230.0004        182.0004
 04 10 13  1 47 30.0000000  0  7G31G28G17G24G 4G 9G 7
  23435088.9364    5194825.70749   4053357.28845  23435087.8964   23435092.8174
       220.0004        159.0004
  23456983.9974    3929235.85349   3072330.74745  23456982.9394   23456988.1074
       213.0004        153.0004
  23623095.0814   -4740063.08349  -3172176.40345  23623093.9824   23623101.1784
       214.0004        159.0004
  21091107.0034   -8010514.70949  -6202693.79547  21091107.1404   21091112.2774
       242.0004        203.0004
  20545247.1394   -2352583.11949  -1817788.60648  20545247.2514   20545251.0354
       247.0004        214.0004
  21085395.1874   -1780550.93549  -1353820.00547  21085395.0754   21085399.2814
       241.0004        205.0004
  22372744.9594    3327121.32749   2604841.11346  22372744.8714   22372748.8344
       230.0004        183.0004
 04 10 13  1 48  0.0000000  0  7G31G28G17G24G 4G 9G 7
  23451441.8824    5280761.46549   4120320.21045  23451440.7054   23451445.3914
       217.0004        158.0004
  23471187.7804    4003877.85849   3130493.36145  23471186.2964   23471191.2764
       211.0004        151.0004
  23604591.1704   -4837301.19149  -3247946.25945  23604590.8224   23604596.2834
       215.0004        158.0004
  21078861.8834   -8074863.81149  -6252835.90747  21078861.6984   21078866.9704
       242.0004        204.0004
  20546576.8824   -2345594.95049  -1812343.25048  20546576.7114   20546580.8824
       244.0004        213.0004
  21085382.7034   -1780616.61949  -1353871.18447  21085382.4534   21085386.7634
       241.0004        205.0004
  22383978.6094    3386154.27149   2650840.82946  22383977.6754   22383982.4674
       231.0004        183.0004
 04 10 13  1 48 30.0000000  0  8G31G28G 5G17G24G 4G 9G 7
  23467796.8704    5366707.73349   4187291.32545  23467796.4234   23467800.8204
       217.0004        157.0004
  23485435.2564    4078749.34549   3188834.78745  23485434.9824   23485439.3414
       210.0004        149.0004
  22993530.3864   -1211003.63259   -910828.92545  22993528.3224   22993532.9594
       208.0004        135.0004
  23586114.2284   -4934397.58849  -3323605.68545  23586113.4434   23586119.3134
       213.0004        157.0004
  21066705.2154   -8138747.30749  -6302615.20547  21066704.7244   21066710.1724
       241.0004        204.0004
  20548022.8174   -2337995.97149  -1806421.94547  20548022.8504   20548026.9624
       244.0004        212.0004
  21085487.1714   -1780067.20649  -1353443.06947  21085486.9014   21085491.2024
       241.0004        205.0004
  22395222.4964    3445241.49449   2696882.83946  22395221.4814   22395226.2414
       230.0004        184.0004
 04 10 13  1 49  0.0000000  0  8G31G28G 5G17G24G 4G 9G 7
  23484153.6084    5452663.13349   4254269.57245  23484152.9194   23484157.3704
       216.0004        155.0004
  23499726.2884    4153849.59849   3247354.46445  23499725.1894   23499729.0464
       212.0004        148.0004
  22977088.9354   -1297409.03849   -978157.76345  22977086.8344   22977091.9374
       207.0004        138.0004
  23567664.6084   -5031350.51449  -3399153.30945  23567663.5564   23567670.2474
       213.0004        157.0004
  21054637.3974   -8202163.82749  -6352030.63147  21054636.8484   21054642.3444
       241.0004        204.0004
  20549584.8624   -2329787.30949  -1800025.55447  20549584.8584   20549588.9164
       245.0004        212.0004
  21085708.5824   -1778903.44049  -1352536.22847  21085708.2684   21085712.5904
       241.0004        205.0004
  22406476.5304    3504381.90449   2742966.29446  22406475.4504   22406480.9364
       230.0004        184.0004
 04 10 13  1 49 30.0000000  0  8G31G28G 5G17G24G 4G 9G 7
  23500511.8594    5538626.22349   4321253.80545  23500510.9454   23500515.6224
       217.0004        155.0004
  23514060.6954    4229177.73249   3306051.70745  23514060.0954   23514063.8394
       211.0004        149.0004
  22960660.2714   -1383739.06649  -1045427.89045  22960659.1364   22960662.5834
       211.0004        140.0004
  23549242.5674   -5128158.27549  -3474587.82145  23549241.2504   23549248.1564
       215.0004        158.0004
  21042658.6764   -8265112.25549  -6401081.32147  21042658.4014   21042663.3214
       242.0004        204.0004
  20551262.7544   -2320970.04549  -1793154.93748  20551262.8274   20551266.5904
       246.0004        213.0004
  21086046.8654   -1777126.02949  -1351151.23647  21086047.0034   21086050.9604
       242.0004        205.0004
  22417740.4674    3563574.16649   2789090.13746  22417739.7324   22417744.5264
       230.0004        184.0004
 04 10 13  1 50  0.0000000  0  8G31G28G 5G17G24G 4G 9G 7
  23516871.7644    5624597.83749   4388244.67145  23516871.8484   23516875.1814
       217.0004        154.0004
  23528438.8214    4304734.82849   3364927.35245  23528438.8614   23528443.4494
       212.0004        151.0004
  22944247.0794   -1469990.57549  -1112636.80845  22944245.8594   22944251.0534
       212.0004        142.0004
  23530848.8224   -5224817.30749  -3549906.45145  23530847.5434   23530854.8924
       217.0004        159.0004
  21030769.6604   -8327589.36149  -6449764.74947  21030768.9624   21030774.2594
       240.0004        203.0004
  20553056.5094   -2311543.63149  -1785809.66348  20553056.5454   20553060.5214
       245.0004        213.0004
  21086502.1954   -1774733.69149  -1349287.07247  21086502.0884   21086506.2404
       241.0004        205.0004
  22429014.4674    3622819.25049   2835255.14346  22429013.5474   22429018.5984
       230.0004        184.0004
 04 10 13  1 50 30.0000000  0  8G31G28G 5G17G24G 4G 9G 7
  23533233.1334    5710577.39349   4455241.73045  23533232.3024   23533237.8424
       215.0004        152.0004
  23542860.6264    4380520.83849   3423981.37345  23542861.0064   23542864.7024
       214.0004        153.0004
  22927849.0954   -1556161.45549  -1179782.92945  22927848.8914   22927853.0014
       212.0004        145.0004
  23512483.9114   -5321325.02449  -3625107.18145  23512482.8874   23512489.7384
       219.0004        160.0004
  21018970.6154   -8389593.06049  -6498079.28147  21018970.0304   21018975.6414
       241.0004        202.0004
  20554966.1414   -2301508.25749  -1777989.87148  20554966.1634   20554970.5314
       244.0004        213.0004
  21087074.4154   -1771726.74249  -1346943.98747  21087074.1824   21087078.3124
       240.0004        205.0004
  22440298.4344    3682116.74149   2881460.98846  22440297.8854   22440301.7854
       232.0004        184.0004
 04 10 13  1 51  0.0000000  0  8G31G28G 5G17G24G 4G 9G 7
  23549596.1074    5796565.20549   4522245.21945  23549594.2254   23549600.4554
       215.0004        150.0004
  23557326.0404    4456536.61249   3483214.43745  23557326.1424   23557329.9514
       212.0004        153.0004
  22911467.0714   -1642249.23949  -1246864.28745  22911466.0724   22911470.5404
       213.0004        147.0004
  23494148.5304   -5417677.97949  -3700187.30445  23494147.3704   23494153.5654
       220.0004        161.0004
  21007262.2984   -8451120.47749  -6546022.68247  21007261.9954   21007267.4814
       241.0004        203.0004
  20556991.7004   -2290863.76049  -1769695.44148  20556991.6514   20556996.4624
       243.0004        213.0004
  21087763.7494   -1768104.00849  -1344121.07247  21087763.2254   21087767.7674
       240.0004        205.0004
  22451592.5184    3741467.42549   2927708.29446  22451591.9064   22451596.6784
       232.0004        183.0004
 04 10 13  1 51 30.0000000  0  8G31G28G 5G17G24G 4G 9G 7
  23565960.4844    5882559.97149   4589254.13145  23565958.5764   23565964.2584
       214.0004        150.0004
  23571834.8834    4532780.97049   3542625.62645  23571834.1194   23571838.6994
       212.0004        153.0004
  22895100.9924   -1728252.95849  -1313880.14445  22895100.2524   22895105.2814
       213.0004        148.0004
  23475842.8124   -5513874.66349  -3775145.67045  23475841.5334   23475849.3534
       220.0004        161.0004
  20995644.8704   -8512170.41449  -6593594.01647  20995644.4984   20995649.7544
       241.0004        204.0004
  20559132.8564   -2279611.43549  -1760927.37948  20559132.6794   20559137.3834
       243.0004        213.0004
  21088570.1204   -1763866.34349  -1340818.99047  21088569.9074   21088574.1604
       240.0004        204.0004
  22462896.3904    3800869.84549   2973995.90846  22462896.5104   22462900.2334
       231.0004        182.0004
 04 10 13  1 52  0.0000000  0  8G31G28G 5G17G24G 4G 9G 7
  23582325.7764    5968559.62549   4656266.84345  23582325.6864   23582329.9584
       213.0004        148.0004
  23586386.9584    4609252.43449   3602213.77745  23586385.9554   23586391.3794
       212.0004        152.0004
  22878751.0414   -1814172.21749  -1380830.19345  22878751.2204   22878755.0384
       215.0004        149.0004
  23457566.9214   -5609914.00949  -3849981.43145  23457565.6454   23457572.7834
       218.0004        162.0004
  20984118.3184   -8572742.29649  -6640792.84547  20984117.8084   20984123.2164
       242.0004        204.0004
  20561389.3574   -2267753.13049  -1751687.12348  20561389.3364   20561393.8034
       245.0004        213.0004
  21089493.2854   -1759015.15649  -1337038.84047  21089493.0884   21089497.4054
       240.0004        204.0004
  22474209.7824    3860322.29449   3020322.50946  22474209.5984   22474214.0764
       231.0004        182.0004
 04 10 13  1 52 30.0000000  0  8G31G28G 5G17G24G 4G 9G 7
  23598692.1314    6054565.06049   4723284.07345  23598692.1054   23598695.4674
       212.0004        147.0004
  23600982.5424    4685952.34949   3661979.93345  23600983.0894   23600986.1724
       215.0004        153.0004
  22862417.9164   -1900003.84749  -1447711.93345  22862416.4884   22862421.9794
       215.0004        149.0004
  23439321.7914   -5705792.27749  -3924691.67845  23439321.0864   23439327.9494
       218.0004        162.0004
  20972683.3284   -8632833.34649  -6687616.99647  20972682.9144   20972688.5454
       242.0004        205.0004
  20563761.3854   -2255288.29249  -1741974.23948  20563761.7444   20563765.6764
       246.0004        214.0004
  21090533.3954   -1753549.32949  -1332779.74447  21090532.9484   21090537.4654
       240.0004        204.0004
  22485532.9994    3919825.89349   3066688.96146  22485532.4604   22485536.9934
       232.0004        182.0004
 04 10 13  1 53  0.0000000  0  8G31G28G 5G17G24G 4G 9G 7
  23615059.3654    6140575.27049   4790305.00145  23615059.9644   23615063.8664
       211.0004        145.0004
  23615621.6044    4762880.01049   3721923.53745  23615622.1654   23615625.0064
       215.0004        153.0004
  22846101.4234   -1985746.45949  -1514524.34045  22846100.9134   22846104.9544
       213.0004        149.0004
  23421107.8624   -5801507.37049  -3999274.76546  23421106.7454   23421113.9754
       219.0004        163.0004
  20961340.1714   -8692441.86649  -6734065.15747  20961339.7264   20961345.3734
       241.0004        204.0004
  20566248.7294   -2242217.79649  -1731789.41648  20566249.2424   20566253.1584
       247.0004        215.0004
  21091690.2134   -1747469.73849  -1328042.39447  21091689.6974   21091694.4214
       239.0004        203.0004
  22496865.7424    3979379.74049   3113094.56446  22496865.1844   22496869.8484
       231.0004        183.0004
 04 10 13  1 53 30.0000000  0  8G31G28G 5G17G24G 4G 9G 7
  23631427.2104    6226589.21949   4857328.87245  23631426.2944   23631430.9164
       207.0004        143.0004
  23630303.7504    4840034.73649   3782044.08945  23630303.0624   23630306.3134
       212.0004        153.0004
  22829802.2124   -2071398.78249  -1581266.38645  22829800.7784   22829806.3974
       216.0004        151.0004
  23402925.3324   -5897057.58149  -4073729.37546  23402924.1534   23402930.8474
       219.0004        164.0004
  20950089.0764   -8751566.44649  -6780136.22247  20950088.8454   20950094.2684
       242.0004        204.0004
  20568851.0884   -2228542.95049  -1721133.66848  20568851.3514   20568855.5374
       247.0004        216.0004
  21092963.7294   -1740776.85849  -1322827.15247  21092963.3054   21092967.9954
       239.0004        203.0004
  22508207.9174    4038983.14049   3159538.77946  22508207.2624   22508211.8414
       232.0004        184.0004
 04 10 13  1 54  0.0000000  0  8G31G28G 5G17G24G 4G 9G 7
  23647795.4814    6312606.05249   4924354.96845  23647793.5534   23647798.6284
       206.0004        140.0004
  23645028.9344    4917416.06049   3842341.22745  23645028.5974   23645032.3944
       214.0004        152.0004
  22813520.4284   -2156959.44049  -1647936.98645  22813519.3494   22813525.2544
       216.0004        153.0004
  23384774.5734   -5992440.87549  -4148053.92446  23384774.2684   23384779.4814
       220.0004        165.0004
  20938930.5214   -8810205.33849  -6825828.82847  20938930.4204   20938935.5734
       242.0004        205.0004
  20571568.2164   -2214264.63149  -1710007.67648  20571568.2504   20571572.1784
       247.0004        216.0004
  21094353.8894   -1733471.33149  -1317134.52747  21094353.7434   21094358.2954
       240.0004        204.0004
  22519559.3604    4098635.19649   3206020.91046  22519558.9044   22519563.3824
       230.0004        184.0004
 04 10 13  1 54 30.0000000  0  8G31G28G 5G17G24G 4G 9G 7
  23664164.1974    6398625.19949   4991382.89245  23664162.6414   23664167.8644
       206.0004        137.0004
  23659797.2484    4995023.57149   3902814.58845  23659796.5844   23659801.0564
       215.0004        152.0004
  22797256.5084   -2242426.38049  -1714534.56345  22797256.2684   22797261.2714
       218.0004        156.0004
  23366656.0474   -6087654.76449  -4222246.47046  23366654.6624   23366660.8784
       220.0004        165.0004
  20927864.7254   -8868357.03349  -6871141.79847  20927864.4214   20927869.6594
       243.0004        205.0004
  20574399.9404   -2199383.84949  -1698412.24348  20574400.0894   20574403.5524
       246.0004        214.0004
  21095860.6804   -1725553.50449  -1310964.77747  21095860.5604   21095864.8604
       241.0004        204.0004
  22530919.9234    4158335.59649   3252540.71446  22530918.8194   22530924.1034
       229.0004        183.0004
 04 10 13  1 55  0.0000000  0  8G31G28G 5G17G24G 4G 9G 7
  23680533.1274    6484645.35549   5058411.57445  23680533.4384   23680537.9914
       201.0004        133.0004
  23674608.3184    5072856.19649   3963463.37245  23674607.3804   23674612.3074
       213.0004        153.0004
  22781010.8164   -2327798.61849  -1781058.34445  22781010.1554   22781015.4824
       220.0004        159.0004
  23348569.8864   -6182697.81349  -4296305.90746  23348568.6024   23348575.0444
       219.0004        165.0004
  20916891.7684   -8926020.44849  -6916074.29147  20916891.5974   20916896.7184
       243.0004        206.0004
  20577346.0064   -2183902.03249  -1686348.47048  20577345.9104   20577349.6434
       246.0004        213.0004
  21097483.6914   -1717024.43249  -1304318.73847  21097483.4864   21097488.1014
       241.0004        204.0004
  22542289.3924    4218083.21249   3299097.30846  22542288.4484   22542293.1144
       229.0004        183.0004
 04 10 13  1 55 30.0000000  0  8G31G28G 5G17G24G 4G 9G 7
  23696902.1754    6570666.08649   5125440.70244  23696901.8664   23696906.0504
       201.0004        131.0004
  23689462.1974    5150914.05549   4024287.68245  23689462.3364   23689465.9704
       214.0004        153.0004
  22764783.3824   -2413074.31649  -1847506.88745  22764783.0194   22764787.6694
       219.0004        161.0004
  23330516.6684   -6277567.23949  -4370230.05046  23330515.7904   23330522.3014
       219.0004        166.0004
  20906012.0784   -8983193.67549  -6960624.81747  20906011.6494   20906017.1034
       242.0004        206.0004
  20580406.2614   -2167819.90149  -1673816.91347  20580406.1914   20580410.0644
       246.0004        212.0004
  21099222.9404   -1707884.47749  -1297196.69147  21099222.7624   21099227.2084
       242.0004        205.0004
  22553667.8344    4277877.83849   3345690.53546  22553666.8614   22553672.0664
       230.0004        183.0004
 04 10 13  1 56  0.0000000  0  8G31G28G 5G17G24G 4G 9G 7
  23713271.2734    6656686.58549   5192469.68744  23713271.1044   23713276.6734
       199.0004        130.0004
  23704358.9234    5229196.55449   4085287.02345  23704358.3644   23704362.1024
       216.0004        154.0004
  22748574.5944   -2498251.81849  -1913878.92245  22748573.7204   22748579.3854
       219.0004        162.0004
  23312496.9114   -6372261.14849  -4444017.43546  23312495.9254   23312501.8244
       220.0004        167.0004
  20895225.8034   -9039875.25149  -7004792.23747  20895224.9674   20895230.9904
       241.0004        206.0004
  20583580.5584   -2151138.54949  -1660818.42447  20583580.5144   20583584.4964
       246.0004        212.0004
  21101078.4034   -1698134.19549  -1289599.06047  21101078.3574   21101082.3234
       242.0004        205.0004
  22565055.1434    4337718.80549   3392319.87646  22565054.4484   22565059.6034
       229.0004        183.0004
 04 10 13  1 56 30.0000000  0  8G31G28G 5G17G24G 4G 9G 7
  23729639.9844    6742705.35349   5259497.25944  23729639.6224   23729644.7634
       196.0004        126.0004
  23719298.1624    5307702.32349   4146460.33945  23719297.6824   23719301.8814
       215.0004        155.0004
  22732384.5144   -2583330.45549  -1980173.90945  22732383.3384   22732389.0564
       220.0004        162.0004
  23294510.9364   -6466778.20249  -4517667.00846  23294509.9364   23294515.3804
       222.0004        167.0004
  20884533.2314   -9096064.30549  -7048575.87847  20884532.6894   20884538.2214
       240.0004        205.0004
  20586868.5994   -2133859.68749  -1647354.35147  20586868.6674   20586872.3634
       245.0004        212.0004
  21103049.6374   -1687775.23249  -1281527.13847  21103049.4034   21103053.5714
       241.0004        204.0004
  22576451.1164    4397604.85749   3438984.34246  22576450.6684   22576455.1214
       230.0004        182.0004
 04 10 13  1 57  0.0000000  0  8G31G28G 5G17G24G 4G 9G 7
  23746008.5224    6828723.22648   5326524.20744  23746005.9824   23746013.6704
       193.0004        124.0004
  23734279.9024    5386432.45849   4207808.50845  23734279.0014   23734282.7584
       212.0004        155.0004
  22716213.9534   -2668306.73349  -2046389.13046  22716212.2344   22716219.0394
       220.0004        163.0004
  23276559.3564   -6561114.59849  -4591175.81246  23276559.1734   23276564.5264
       221.0004        167.0004
  20873934.9924   -9151757.96049  -7091973.49047  20873934.9064   20873939.9484
       241.0004        205.0004
  20590270.4034   -2115982.83849  -1633424.32247  20590270.3224   20590274.1514
       244.0004        211.0004
  21105136.9094   -1676806.47749  -1272980.04647  21105136.6484   21105140.8834
       240.0004        203.0004
  22587855.8834    4457536.96949   3485684.69746  22587855.3434   22587860.2394
       228.0004        182.0004
 04 10 13  1 57 30.0000000  0  8G31G28G 5G17G24G 4G 9G 7
  23762376.6384    6914738.95558   5393549.46244  23762376.1494   23762382.6394
       192.0004        121.0004
  23749304.1564    5465385.92749   4269330.68445  23749302.9804   23749307.6684
       214.0004        156.0004
  22700063.0704   -2753179.55949  -2112523.73946  22700062.0544   22700068.0024
       223.0004        164.0004
  23258642.2514   -6655269.09749  -4664542.88646  23258640.7284   23258647.8224
       219.0004        166.0004
  20863431.3014   -9206955.29549  -7134984.35947  20863431.0174   20863436.2694
       241.0004        205.0004
  20593785.5964   -2097509.88249  -1619029.79647  20593785.6894   20593789.5984
       245.0004        212.0004
  21107340.0114   -1665229.11249  -1263958.71047  21107339.8534   21107344.3214
       241.0004        204.0004
  22599269.1324    4517514.07549   3532420.10046  22599268.4124   22599273.4694
       228.0004        181.0004
 04 10 13  1 58  0.0000000  0  8G31G28G 5G17G24G 4G 9G 7
  23778744.3014    7000751.57748   5460572.27844  23778742.4194   23778745.8594
       192.0004        117.0004
  23764370.7764    5544562.03849   4331026.34045  23764369.5294   23764373.7404
       213.0004        154.0004
  22683932.2694   -2837947.59849  -2178576.69446  22683931.8114   22683936.9774
       224.0004        166.0004
  23240760.1894   -6749239.28549  -4737766.33746  23240759.5774   23240765.1124
       220.0004        164.0004
  20853022.3814   -9261654.97949  -7177607.44847  20853022.1334   20853027.3354
       242.0004        205.0004
  20597414.1764   -2078441.96749  -1604171.66648  20597414.7364   20597418.5574
       248.0004        215.0004
  21109658.8104   -1653043.86849  -1254463.70847  21109658.5974   21109663.1094
       240.0004        204.0004
  22610690.7484    4577535.43649   3579189.99146  22610689.6654   22610694.6144
       228.0004        181.0004
 04 10 13  1 58 30.0000000  0  8G31G28G 5G17G24G 4G 9G 7
  23795111.5464    7086760.71348   5527592.36044  23795113.4264   23795113.4224
       189.0004        114.0004
  23779479.5814    5623960.49249   4392895.26645  23779479.2194   23779483.6144
       212.0004        153.0004
  22667821.7724   -2922609.23549  -2244546.72846  22667820.6944   22667826.3134
       225.0004        168.0004
  23222913.6174   -6843023.13249  -4810844.60245  23222912.3024   23222918.6944
       218.0004        162.0004
  20842708.3814   -9315855.40349  -7219841.51047  20842708.1334   20842713.2014
       241.0004        206.0004
  20601155.8614   -2058780.07349  -1588850.69248  20601156.0264   20601159.9754
       247.0004        217.0004
  21112093.0834   -1640251.37949  -1244495.52947  21112092.5224   21112097.3344
       241.0004        204.0004
  22622120.7764    4637600.66249   3625994.06546  22622120.2424   22622125.1144
       228.0004        181.0004
 04 10 13  1 59  0.0000000  0  8G31G28G 5G17G24G 4G 9G 7
  23811477.9504    7172765.45448   5594609.06144  23811473.1004   23811479.5754
       187.0004        109.0004
  23794630.7574    5703580.58549   4454936.88945  23794629.8014   23794634.5754
       213.0004        154.0004
  22651731.7964   -3007162.64849  -2310432.43546  22651731.1334   22651735.0494
       226.0004        170.0004
  23205102.9024   -6936618.38349  -4883775.90745  23205101.8724   23205107.9714
       218.0004        162.0004
  20832489.5344   -9369555.40849  -7261685.63047  20832488.9284   20832494.2994
       241.0004        205.0004
  20605010.1654   -2038525.58349  -1573067.94748  20605010.0684   20605014.2814
       246.0004        216.0004
  21114642.8344   -1626852.32449  -1234054.69547  21114642.8274   21114647.1174
       242.0004        205.0004
  22633559.0804    4697709.27549   3672831.95846  22633558.7934   22633563.8724
       228.0004        181.0004
 04 10 13  1 59 30.0000000  0  8G31G28G 5G17G24G 4G 9G 7
  23827842.9414    7258763.28248   5661620.29544  23827842.6084
       188.0004        108.0004
  23809823.6084    5783419.92149   4517149.35545  23809822.6834   23809828.6514
       213.0004        155.0004
  22635662.4384   -3091608.04749  -2376233.97546  22635661.3284   22635666.9304
       226.0004        172.0004
  23187328.1344   -7030025.08949  -4956560.30146  23187327.8674   23187333.0704
       221.0004        164.0004
  20822365.7904   -9422755.35849  -7303140.10447  20822364.9074   20822370.4194
       240.0004        205.0004
  20608976.6104   -2017681.31249  -1556825.64048  20608976.6824   20608980.6164
       246.0004        215.0004
  21117307.6694   -1612849.36949  -1223143.28747  21117307.9224   21117311.7434
       242.0004        206.0004
  22645005.1484    4757858.79149   3719701.71846  22645004.7194   22645009.6444
       227.0004        181.0004
 04 10 13  2  0  0.0000000  0  8G31G28G 5G17G24G 4G 9G 7
  23844207.0274    7344755.95848   5728627.58744  23844206.8994
       186.0004        107.0004
  23825058.6104    5863480.37249   4579534.12645  23825058.2554   23825062.3744
       214.0004        154.0004
  22619614.2284   -3175941.49049  -2441948.27646  22619612.3584   22619618.1024
       226.0004        173.0004
  23169590.1884   -7123238.56649  -5029194.11946  23169589.7174   23169595.4024
       224.0004        168.0004
  20812337.9604   -9475451.43449  -7344201.94047  20812337.4794   20812342.9264
       241.0004        205.0004
  20613055.5164   -1996246.49049  -1540123.16448  20613055.7484   20613059.4144
       246.0004        214.0004
  21120087.5894   -1598241.23349  -1211760.30847  21120087.3284   21120091.9604
       242.0004        206.0004
  22656459.4084    4818051.17749   3766604.87846  22656458.7704   22656464.3724
       226.0004        180.0004
 04 10 13  2  0 30.0000000  0  8G31G28G 5G17G24G 4G 9G 7
  23860570.0874    7430742.55248   5795630.13344  23860573.3794
       189.0004        108.0004
  23840335.6754    5943761.18649   4642090.58445  23840334.6004   23840339.0794
       215.0004        154.0004
  22603587.5894   -3260161.45149  -2507574.18146  22603587.1624   22603592.2634
       226.0004        174.0004
  23151889.4894   -7216257.04349  -5101675.99446  23151889.1014   23151894.6174
       225.0004        172.0004
  20802406.3084   -9527642.63849  -7384870.36547  20802406.1044   20802410.9254
       242.0004        205.0004
  20617246.6254   -1974222.17949  -1522961.34548  20617246.5474   20617250.4034
       246.0004        214.0004
  21122982.3184   -1583028.86849  -1199906.51247  21122981.6744   21122986.3314
       241.0004        206.0004
  22667921.5834    4878285.69449   3813540.85446  22667920.7654   22667925.3114
       226.0004        180.0004
 04 10 13  2  1  0.0000000  0  8G31G28G 5G17G24G 4G 9G 7
  23876931.8834    7516722.96848   5862627.84344  23876929.8454
       187.0004        106.0004
  23855654.6184    6024262.37049   4704818.76645  23855653.8154   23855657.8004
       214.0004        154.0004
  22587583.0674   -3344265.51649  -2573109.76146  22587582.3824   22587587.4294
       226.0004        175.0004
  23134226.3244   -7309077.61849  -5174003.65246  23134225.1194   23134230.5884
       225.0004        173.0004
  20792571.1004   -9579327.18249  -7425143.99447  20792570.7534   20792575.4464
       242.0004        205.0004
  20621549.5924   -1951609.47649  -1505341.03048  20621549.4684   20621553.6174
       246.0004        214.0004
  21125991.9214   -1567212.60749  -1187582.14147  21125991.4404   21125996.0434
       242.0004        206.0004
  22679391.8194    4938562.47449   3860509.77646  22679391.3044   22679396.0084
       226.0004        180.0004
 04 10 13  2  1 30.0000000  0  8G31G28G 5G17G24G 4G 9G 7
  23893292.1664    7602695.60948   5929619.54744  23893286.4024
       179.0004        107.0004
  23871015.0984    6104982.32849   4767717.43245  23871014.5514   23871018.3814
       214.0004        153.0004
  22571600.6644   -3428253.02049  -2638554.53346  22571599.9374   22571605.0554
       226.0004        176.0004
  23116600.8864   -7401699.28849  -5246176.32446  23116600.7404   23116605.9434
       222.0004        173.0004
  20782832.4564   -9630504.38249  -7465022.30547  20782832.2954   20782837.0844
       243.0004        206.0004
  20625964.1334   -1928410.47349  -1487263.86748  20625964.3024   20625968.4074
       246.0004        214.0004
  21129116.2474   -1550794.15149  -1174788.53247  21129116.2074   21129120.1094
       242.0004        206.0004
  22690869.9184    4998880.05249   3907510.47446  22690869.2484   22690874.4104
       227.0004        180.0004
 04 10 13  2  2  0.0000000  0  8G31G28G 5G17G24G 4G 9G 7
                   7688660.60858   5996605.24044
       180.0004        105.0004
  23886417.2884    6185921.25249   4830786.71745  23886417.6474   23886420.6444
       215.0004        153.0004
  22555640.9044   -3512121.65549  -2703906.66546  22555640.7554   22555644.9754
       227.0004        177.0004
  23099013.8724   -7494119.22549  -5318191.79946  23099013.2064   23099018.2614
       220.0004        170.0004
  20773190.7124   -9681172.33549  -7504503.79747  20773190.8494   20773195.0534
       244.0004        207.0004
  20630490.2794   -1904625.62549  -1468730.21048  20630490.5694   20630494.3504
       245.0004        214.0004
  21132355.1454   -1533773.79549  -1161525.90747  21132355.0754   21132359.2614
       242.0004        206.0004
  22702355.8724    5059238.68349   3954543.17546  22702355.5264   22702359.8024
       228.0004        180.0004
 04 10 13  2  2 30.0000000  0  8G31G28G 5G17G24G 4G 9G 7
                   7774617.34658   7939474.32043
       177.0004         74.0004
  23901861.1274    6267078.65049   4894026.23845  23901860.3164   23901865.7774
       214.0004        152.0004
  22539704.1404   -3595869.67349  -2769164.82546  22539703.6384   22539708.8804
       229.0004        179.0004
  23081465.7144   -7586335.46349  -5390048.52846  23081464.4654   23081471.1674
       217.0004        167.0004
  20763646.1754   -9731329.81149  -7543587.51347  20763646.1474   20763650.8114
       244.0004        208.0004
  20635127.6454   -1880256.25349  -1449741.08848  20635127.6684   20635131.5884
       244.0004        213.0004
  21135708.4054   -1516152.51849  -1147795.03547  21135708.1044   21135712.6604
       242.0004        207.0004
  22713849.5454    5119637.91849   4001607.52646  22713849.1794   22713853.0944
       228.0004        179.0004
 04 10 13  2  3  0.0000000  0  8G31G28G 5G17G24G 4G 9G 7
                   7860564.58858   8006438.44643
       173.0004         74.0004
  23917346.3254    6348453.31149   4957435.05845  23917346.1864   23917350.2004
       215.0004        152.0004
  22523790.7094   -3679495.63749  -2834327.86046  22523790.4444   22523794.7074
       229.0004        180.0004
  23063956.5364   -7678346.40049  -5461745.30746  23063955.2064   23063962.0884
       216.0004        163.0004
  20754198.8204   -9780976.07049  -7582272.86847  20754198.4874   20754203.4774
       243.0004        208.0004
  20639875.6834   -1855304.60949  -1430298.23347  20639875.3024   20639879.6084
       243.0004        211.0004
  21139175.6414   -1497931.93849  -1133597.17047  21139175.5634   21139180.0744
       241.0004        207.0004
  22725350.6994    5180076.74649   4048702.72646  22725350.0284   22725354.6134
       227.0004        179.0004
 04 10 13  2  3 30.0000000  0  8G31G28G 5G17G24G 4G 9G 7
                   7946497.13758   8073355.72243
       176.0004         74.0004
  23932873.0964    6430046.56549   5021014.20645  23932871.8084   23932876.5854
       214.0004        151.0004
  22507901.1414   -3762996.04449  -2899393.07246  22507900.0354   22507905.6934
       229.0004        180.0004
  23046487.0484   -7770147.95349  -5533278.93045  23046486.7194   23046491.9764
       218.0004        162.0004
  20744849.2784   -9830108.10949  -7620557.53547  20744848.8604   20744853.8504
       243.0004        209.0004
  20644734.6704   -1829769.72449  -1410400.89347  20644734.6984   20644738.5854
       244.0004        210.0004
  21142757.1164   -1479110.91449  -1118931.43047  21142756.7944   21142761.3184
       240.0004        207.0004
  22736859.6644    5240556.62449   4095829.90946  22736858.4904   22736863.5844
       226.0004        178.0004
 04 10 13  2  4  0.0000000  0  7G28G 5G17G24G 4G 9G 7
  23948440.0674    6511851.73449   5084758.49145  23948439.0714   23948443.9434
       213.0004        151.0004
  22492034.5444   -3846375.38949  -2964363.95346  22492033.7894   22492038.4004
       229.0004        181.0004
  23029056.7134   -7861744.14949  -5604652.55946  23029055.7964   23029062.0104
       222.0004        164.0004
  20735596.6364   -9878730.84849  -7658445.34447  20735596.4254   20735601.2914
       243.0004        208.0004
  20649703.3004   -1803659.61749  -1390055.32247  20649703.7584   20649707.0894
       246.0004        211.0004
  21146451.5374   -1459696.49249  -1103803.29747  21146451.4064   21146455.8804
       240.0004        207.0004
  22748375.1854    5301071.06549   4142984.02146  22748374.6284   22748379.5914
       226.0004        177.0004
 04 10 13  2  4 30.0000000  0  7G28G 5G17G24G 4G 9G 7
  23964047.9894    6593872.65849   5148670.90845  23964046.8964   23964051.9364
       213.0004        150.0004
  22476192.1954   -3929627.05149  -3029235.34146  22476191.0774   22476195.9214
       230.0004        182.0004
  23011666.8824   -7953128.42549  -5675861.05646  23011666.3054   23011672.1134
       228.0004        169.0004
  20726442.0664   -9926838.35049  -7695931.67547  20726441.5734   20726446.6444
       242.0004        208.0004
  20654782.0844   -1776970.94849  -1369258.92648  20654782.4224   20654785.8974
       247.0004        213.0004
  21150259.5314   -1439685.20949  -1088210.07747  21150259.2804   21150263.8084
       240.0004        207.0004
  22759898.1024    5361624.19249   4190168.26846  22759897.9014   22759902.1344
       227.0004        178.0004
 04 10 13  2  5  0.0000000  0  7G28G 5G17G24G 4G 9G 7
  23979697.3524    6676110.31849   5212752.19245  23979697.2614   23979701.3164
       213.0004        149.0004
  22460374.7824   -4012747.89949  -3094004.78646  22460374.1774   22460378.5354
       229.0004        183.0004
  22994318.2044   -8044297.14749  -5746901.57946  22994318.0354   22994323.7164
       231.0004        175.0004
  20717385.9774   -9974428.08249  -7733014.55047  20717385.7124   20717390.4724
       242.0004        208.0004
  20659970.9504   -1749703.41049  -1348011.47148  20659971.0204   20659974.9534
       247.0004        214.0004
  21154181.2274   -1419076.60749  -1072151.41447  21154181.0754   21154185.5274
       241.0004        206.0004
  22771428.6254    5422217.06949   4237383.50746  22771428.0084   22771432.5534
       228.0004        179.0004
 04 10 13  2  5 30.0000000  0  7G28G 5G17G24G 4G 9G 7
  23995387.5934    6758562.39549   5277000.56145  23995386.3904   23995390.2574
       211.0004        147.0004
  22444582.3594   -4095737.71049  -3158672.13946  22444581.6494   22444586.8844
       230.0004        184.0004
  22977010.5694   -8135249.78849  -5817773.72346  22977010.2374   22977015.4594
       230.0004        179.0004
  20708428.3754  -10021500.49349  -7769694.31547  20708428.0044   20708432.7994
       243.0004        208.0004
  20665269.3404   -1721860.12649  -1326315.38948  20665269.4624   20665273.5314
       246.0004        215.0004
  21158216.1134   -1397873.24249  -1055629.30047  21158216.0424   21158220.0724
       241.0004        206.0004
  22782966.3174    5482847.69749   4284628.15446  22782965.1014   22782970.3034
       228.0004        180.0004
 04 10 13  2  6  0.0000000  0  7G28G 5G17G24G 4G 9G 7
  24011118.4524    6841228.87549   5341416.00645  24011119.4084   24011121.5194
       211.0004        145.0004
  22428815.2564   -4178594.27949  -3223235.66246  22428814.6954   22428819.2064
       231.0004        185.0004
  22959744.4374   -8225983.78449  -5888475.48546  22959743.6304   22959749.1064
       229.0004        179.0004
  20699569.5764  -10068053.53849  -7805969.38647  20699569.0774   20699574.2874
       243.0004        208.0004
  20670677.0664   -1693442.25649  -1304171.58448  20670677.1184   20670681.4874
       245.0004        215.0004
  21162364.1094   -1376075.76349  -1038644.23747  21162364.1204   21162367.9874
       241.0004        205.0004
  22794511.1164    5543516.40649   4331902.47846  22794510.1694   22794515.2874
       226.0004        180.0004
 04 10 13  2  6 30.0000000  0  7G28G 5G17G24G 4G 9G 7
  24026889.5364    6924106.82549   5405996.22245  24026888.5814   24026893.2614
       209.0004        145.0004
  22413073.5294   -4261317.82749  -3287695.53046  22413073.1024   22413078.0214
       232.0004        187.0004
  22942519.8254   -8316499.26749  -5959006.97646  22942518.3054   22942524.5814
       226.0004        178.0004
  20690809.2744  -10114088.53549  -7841840.78347  20690808.8714   20690814.1854
       243.0004        208.0004
  20676193.3744   -1664453.39049  -1281582.85348  20676193.2694   20676197.6534
       245.0004        214.0004
  21166624.4374   -1353687.53449  -1021198.85947  21166624.1714   21166628.6134
       241.0004        205.0004
  22806062.5764    5604220.40449   4379204.30246  22806061.8024   22806066.6704
       225.0004        179.0004
 04 10 13  2  7  0.0000000  0  7G28G 5G17G24G 4G 9G 7
  24042702.1484    7007202.80449   5470746.34245  24042700.4754   24042705.7584
       208.0004        142.0004
  22397358.8094   -4343899.42049  -3352044.77647  22397358.2524   22397363.3714
       232.0004        188.0004
  22925338.4384   -8406787.14449  -6029361.09146  22925337.2594   22925343.5564
       218.0004        173.0004
  20682149.2354  -10159597.23049  -7877302.06647  20682148.8264   20682154.0144
       243.0004        208.0004
  20681819.4714   -1634887.90249  -1258544.79748  20681819.6544   20681823.6024
       245.0004        214.0004
  21170998.3164   -1330702.59249  -1003288.50447  21170998.1134   21171002.3794
       241.0004        205.0004
  22817622.1134    5664966.53749   4426538.96346  22817620.6004   22817626.1904
       225.0004        178.0004
 04 10 13  2  7 30.0000000  0  7G28G 5G17G24G 4G 9G 7
  24058554.2074    7090506.53649   5535658.33245  24058554.2194   24058556.7214
       210.0004        140.0004
  22381669.5794   -4426346.99449  -3416289.59647  22381669.0634   22381673.4694
       233.0004        189.0004
  22908198.8474   -8496854.96649  -6099543.72046  22908198.2744   22908203.9684
       217.0004        170.0004
  20673587.6694  -10204588.41249  -7912360.09547  20673587.4734   20673592.2444
       243.0004        209.0004
  20687553.1954   -1604757.17249  -1235066.28748  20687553.4254   20687557.1584
       246.0004        214.0004
  21175483.6604   -1307131.90449   -984921.72747  21175483.1284   21175487.7684
       241.0004        205.0004
  22829187.7894    5725744.77449   4473898.62646  22829186.5634   22829191.6774
       224.0004        176.0004
 04 10 13  2  8  0.0000000  0  7G28G 5G17G24G 4G 9G 7
  24074446.6554    7174021.53749   5600734.95045  24074446.8174   24074451.2714
       206.0004        138.0004
  22366007.0334   -4508654.26749  -3480425.08447  22366006.4064   22366010.7434
       233.0004        189.0004
  22891102.5634   -8586696.31849  -6169549.88846  22891102.2504   22891107.3364
       221.0004        168.0004
  20665125.6744  -10249056.53449  -7947010.55047  20665125.4714   20665130.0164
       243.0004        209.0004
  20693395.0344   -1574058.32449  -1211145.08348  20693395.1514   20693398.8094
       246.0004        213.0004
  21180081.0554   -1282972.11449   -966095.90547  21180080.4154   21180085.3264
       239.0004        204.0004
  22840760.2974    5786558.98749   4521286.33746  22840758.9424   22840764.1714
       224.0004        175.0004
 04 10 13  2  8 30.0000000  0  7G28G 5G17G24G 4G 9G 7
  24090379.1804    7257747.92249   5665976.29045  24090378.0284   24090383.4834
       205.0004        137.0004
  22350371.5844   -4590818.82449  -3544449.37447  22350370.9404   22350376.2774
       233.0004        189.0004
  22874050.0174   -8676308.51149  -6239377.51546  22874049.7254   22874054.9074
       225.0004        170.0004
  20656763.5234  -10292999.75449  -7981251.99147  20656762.9114   20656767.9684
       242.0004        208.0004
  20699344.7304   -1542792.40449  -1186782.00547  20699344.7724   20699348.5314
       244.0004        212.0004
  21184790.3354   -1258223.97049   -946811.62647  21184789.8554   21184794.7064
       239.0004        204.0004
  22852339.7604    5847409.63549   4568702.42546  22852338.8154   22852344.1654
       225.0004        175.0004
 04 10 13  2  9  0.0000000  0  7G28G 5G17G24G 4G 9G 7
  24106352.0424    7341685.71349   5731382.36845  24106353.0394   24106355.8504
       208.0004        136.0004
  22334763.7504   -4672838.40849  -3608360.68547  22334763.2054   22334767.6714
       233.0004        189.0004
  22857041.4724   -8765688.96149  -6309024.57446  22857040.7004   22857045.9734
       227.0004        172.0004
  20648501.3924  -10336416.63049  -8015083.28947  20648500.8404   20648506.0124
       242.0004        207.0004
  20705402.1654   -1510960.07349  -1161977.57647  20705402.1684   20705405.8734
       243.0004        211.0004
  21189611.5644   -1232887.93149   -927069.24947  21189611.4774   21189615.8754
       240.0004        205.0004
  22863926.2214    5908296.97849   4616147.10546  22863925.6144   22863930.3204
       225.0004        176.0004
 04 10 13  2  9 30.0000000  0  7G28G 5G17G24G 4G 9G 7
  24122364.7274    7425832.45649   5796951.24145  24122362.7664   24122368.5544
       205.0004        134.0004
  22319183.5214   -4754712.75349  -3672158.82647  22319182.6914   22319187.3444
       233.0004        189.0004
  22840077.0724   -8854837.31249  -6378490.78846  22840076.1344   22840082.1854
       228.0004        174.0004
  20640339.4194  -10379307.88849  -8048505.01447  20640339.3804   20640344.0914
       244.0004        208.0004
  20711566.7034   -1478564.98949  -1136734.64947  20711566.4114   20711570.2454
       243.0004        209.0004
  21194544.2444   -1206966.94849   -906871.07447  21194544.2924   21194548.4844
       240.0004        205.0004
  22875519.2544    5969218.80849   4663618.65946  22875519.1584   22875523.4104
       226.0004        176.0004
 04 10 13  2 10  0.0000000  0  7G28G 5G17G24G 4G 9G 7
  24138417.0524    7510188.45449   5862683.20045  24138416.3824   24138421.9444
       203.0004        133.0004
  22303631.5254   -4836438.64849  -3735841.29047  22303630.8684   22303635.4544
       233.0004        189.0004
  22823157.4414   -8943750.32149  -6447773.60946  22823156.2984   22823162.6914
       225.0004        175.0004
  20632277.9374  -10421671.66049  -8081515.71247  20632277.8714   20632282.5764
       244.0004        209.0004
  20717838.2074   -1445607.54549  -1111053.51647  20717838.2194   20717841.9814
       245.0004        210.0004
  21199588.2344   -1180461.38349   -886217.37647  21199588.3904   21199592.3254
       241.0004        205.0004
  22887119.0834    6030175.94549   4711117.74446  22887118.8474   22887123.1654
       226.0004        177.0004
 04 10 13  2 10 30.0000000  0  7G28G 5G17G24G 4G 9G 7
  24154508.9144    7594751.29749   5928576.32345  24154508.7924   24154512.5734
       204.0004        133.0004
  22288107.9304   -4918015.96949  -3799407.97947  22288107.2844   22288111.9524
       233.0004        189.0004
  22806282.5564   -9032427.94049  -6516872.97846  22806281.3404   22806288.2794
       222.0004        174.0004
  20624316.6624  -10463508.54749  -8114115.85047  20624316.4934   20624321.5084
       243.0004        210.0004
  20724216.1724   -1412091.31249  -1084936.95247  20724216.4244   20724220.1874
       248.0004        212.0004
  21204742.8184   -1153374.21849   -865110.48247  21204742.7224   21204746.8014
       240.0004        204.0004
  22898725.3384    6091166.47449   4758642.84146  22898724.6834   22898729.7674
       225.0004        177.0004
 04 10 13  2 11  0.0000000  0  7G28G 5G17G24G 4G 9G 7
  24170640.2654    7679521.81049   5994631.28944  24170640.7744   24170642.5914
       200.0004        130.0004
  22272613.1244   -4999441.51649  -3862856.40447  22272612.5114   22272617.0834
       233.0004        190.0004
  22789453.0984   -9120866.39249  -6585785.97046  22789452.2514   22789458.4604
       221.0004        174.0004
  20616456.1114  -10504816.05749  -8146303.48647  20616455.6954   20616460.8794
       243.0004        209.0004
  20730700.5444   -1378016.33849  -1058384.99948  20730701.1444   20730704.4844
       249.0004        214.0004
  21210007.9834   -1125705.45249   -843550.39747  21210007.6774   21210011.9694
       239.0004        203.0004
  22910338.0504    6152191.39149   4806194.74046  22910337.7134   22910341.6664
       226.0004        176.0004
 04 10 13  2 11 30.0000000  0  7G28G 5G17G24G 4G 9G 7
  24186810.8464    7764499.29849   6060847.51444  24186810.5294   24186813.6344
       201.0004        128.0004
  22257147.5284   -5080713.45649  -3926185.12947  22257146.8484   22257151.3674
       233.0004        190.0004
  22772669.6244   -9209063.94849  -6654511.26646  22772669.5394   22772674.8944
       226.0004        176.0004
  20608696.3964  -10545593.37149  -8178077.98247  20608696.0174   20608701.2814
       243.0004        210.0004
  20737290.8734   -1343384.54249  -1031399.15348  20737291.0924   20737294.3994
       248.0004        214.0004
  21215383.5244   -1097456.49049   -821538.21347  21215383.3164   21215387.5644
       239.0004        203.0004
  22921957.2064    6213250.42349   4853773.20946  22921956.7404   22921961.0704
       226.0004        175.0004
 04 10 13  2 12  0.0000000  0  7G28G 5G17G24G 4G 9G 7
  24203020.7054    7849681.92949   6127223.58244  24203023.0064   24203025.5034
       201.0004        128.0004
  22241711.3844   -5161830.73549  -3989393.34747  22241710.8344   22241715.4504
       233.0004        190.0004
  22755932.4794   -9297019.26449  -6723047.80746  22755932.3064   22755938.2794
       229.0004        180.0004
  20601037.6384  -10585840.29549  -8209439.19147  20601037.3694   20601042.3714
       244.0004        210.0004
  20743986.5814   -1308198.25249  -1003981.23147  20743986.4474   20743989.9374
       246.0004        212.0004
  21220869.1424   -1068629.46049   -799075.58247  21220869.0084   21220873.1664
       240.0004        203.0004
  22933582.6704    6274342.50049   4901377.44046  22933582.1514   22933586.5934
       226.0004        175.0004
 04 10 13  2 12 30.0000000  0  7G28G 5G17G24G 4G 9G 7
  24219269.5874    7935070.07659   6193759.67044  24219268.0704   24219276.0354
       198.0004        122.0004
  22226305.1244   -5242790.72149  -4052479.21747  22226304.6194   22226309.1824
       233.0004        190.0004
  22739241.9694   -9384729.66049  -6791393.73646  22739242.3204   22739246.8294
       232.0004        182.0004
  20593480.2334  -10625554.66659  -8240385.53147  20593480.0804   20593485.2314
       244.0004        211.0004
  20750787.6084   -1272458.00059   -976131.76847  20750787.5094   20750791.3844
       244.0004        210.0004
  21226464.7074   -1039224.97059   -776163.19947  21226464.6644   21226468.5134
       240.0004        203.0004
  22945214.5934    6335468.65259   4949008.09546  22945213.8294   22945218.7674
       227.0004        174.0004
 04 10 13  2 13  0.0000000  0  7G28G 5G17G24G 4G 9G 7
  24235557.2174    8020662.07249   6260454.59444  24235557.8024   24235559.9774
       200.0004        121.0004
  22210929.1464   -5323592.31649  -4115441.44547  22210928.5344   22210933.1654
       233.0004        190.0004
  22722598.1764   -9472193.96549  -6859547.68146  22722597.2434   22722603.5514
       233.0004        183.0004
  20586023.9144  -10664738.14749  -8270918.18847  20586024.1524   20586028.7874
       244.0004        211.0004
  20757693.3594   -1236167.88149   -947853.85047  20757693.3184   20757697.6064
       242.0004        209.0004
  21232169.7074   -1009245.31449   -752802.41747  21232169.7454   21232173.7514
       240.0004        203.0004
  22956852.5654    6396626.19549   4996663.22846  22956851.8624   22956855.7134
       226.0004        174.0004
 04 10 13  2 13 30.0000000  0  7G28G 5G17G24G 4G 9G 7
  24251883.7004    8106457.20149   6327307.99144  24251883.0314   24251889.3444
       198.0004        122.0004
  22195583.7604   -5404233.59049  -4178278.74047  22195583.4174   22195587.8024
       233.0004        190.0004
  22706001.5434   -9559409.95249  -6927508.14346  22706000.8534   22706005.6914
       231.0004        182.0004
  20578669.0674  -10703388.42449  -8301035.25547  20578668.9244   20578673.4364
       244.0004        210.0004
  20764703.6914   -1199328.02449   -919147.46947  20764703.8454   20764707.8794
       242.0004        209.0004
  21237983.8474    -978691.84649   -728994.50747  21237983.6804   21237988.1524
       240.0004        203.0004
  22968496.7314    6457816.38549   5044343.90146  22968495.8614   22968500.1534
       226.0004        174.0004
 04 10 13  2 14  0.0000000  0  7G28G 5G17G24G 4G 9G 7
  24268248.6314    8192455.81749   6394319.93344  24268249.0614   24268250.7614
       196.0004        121.0004
  22180269.3564   -5484711.26249  -4240988.56647  22180268.8794   22180272.9934
       233.0004        189.0004
  22689452.6364   -9646374.64949  -6995272.80946  22689451.8594   22689456.9094
       229.0004        179.0004
  20571415.9704  -10741503.89649  -8330735.59547  20571415.7154   20571420.1344
       243.0004        209.0004
  20771818.4574   -1161939.66849   -890013.68847  20771818.6394   20771822.7164
       243.0004        211.0004
  21243907.1124    -947564.91749   -704739.75647  21243906.9194   21243911.3734
       239.0004        203.0004
  22980147.0884    6519039.64449   5092050.33646  22980146.4864   22980150.8564
       224.0004        173.0004
 04 10 13  2 14 30.0000000  0  7G28G 5G17G24G 4G 9G 7
  24284652.3434    8278657.68949   6461490.22744  24284649.7174   24284656.9304
       197.0004        121.0004
  22164986.5074   -5565022.95549  -4303569.05947  22164985.7304   22164990.3694
       232.0004        189.0004
  22672952.0524   -9733085.69749  -7062839.81846  22672951.8224   22672956.9414
       226.0004        177.0004
  20564264.7694  -10779083.46749  -8360018.35347  20564264.4664   20564269.0604
       243.0004        209.0004
  20779037.3754   -1124004.31049   -860453.67148  20779037.8514   20779041.7364
       245.0004        213.0004
  21249939.2654    -915865.50449   -680038.90547  21249939.0434   21249943.5164
       240.0004        203.0004
  22991803.7394    6580296.17949   5139782.70646  22991803.2864   22991806.8104
       223.0004        172.0004
 04 10 13  2 15  0.0000000  0  7G28G 5G17G24G 4G 9G 7
  24301093.9704    8365058.49548   6528815.52744  24301095.8214   24301096.6524
       191.0004        119.0004
  22149734.9184   -5645170.44949  -4366021.60347  22149734.2984   22149738.7344
       231.0004        188.0004
  22656499.4544   -9819544.50949  -7130210.24546  22656498.8524   22656503.8274
       225.0004        177.0004
  20557215.0534  -10816129.86949  -8388885.64147  20557214.4874   20557219.5614
       243.0004        209.0004
  20786359.4344   -1085527.20149   -830471.49348  20786359.8334   20786363.6054
       246.0004        215.0004
  21256079.4434    -883598.75549   -654895.96747  21256079.2734   21256083.4514
       239.0004        203.0004
  23003466.0424    6641582.24449   5187538.07846  23003465.1224   23003470.5984
       223.0004        171.0004
 04 10 13  2 15 30.0000000  0  7G28G 5G17G24G 4G 9G 7
  24317573.6714    8451660.87148   6596297.91944  24317573.6744   24317579.1674
       194.0004        116.0004
  22134515.5684   -5725148.38049  -4428342.03047  22134515.0944   22134519.3184
       232.0004        188.0004
  22640095.8614   -9905745.82149  -7197380.02746  22640095.1684   22640100.7474
       226.0004        178.0004
  20550267.5784  -10852638.71749  -8417334.06947  20550267.1564   20550272.0144
       243.0004        209.0004
  20793784.8044   -1046506.70049   -800065.89048  20793784.9424   20793789.0184
       246.0004        214.0004
  21262327.9074    -850762.85549   -629309.54647  21262327.5174   21262331.9944
       240.0004        203.0004
  23015134.5874    6702900.93449   5235318.87646  23015133.6754   23015138.7244
       223.0004        172.0004
 04 10 13  2 16  0.0000000  0  7G28G 5G17G24G 4G 9G 7
  24334091.7094    8538463.97548   6663936.75044  24334089.9304   24334098.1314
       194.0004        114.0004
  22119328.8894   -5804954.75449  -4490528.77747  22119328.3884   22119332.3934
       232.0004        188.0004
  22623741.6164   -9991687.69249  -7264347.64946  22623741.0704   22623747.0724
       229.0004        181.0004
  20543422.5584  -10888609.45449  -8445363.18847  20543422.4154   20543426.7504
       243.0004        209.0004
  20801313.1104   -1006944.96249   -769238.54948  20801313.1214   20801317.1854
       244.0004        213.0004
  21268684.3584    -817359.49649   -603280.95247  21268684.1964   21268688.6844
       240.0004        203.0004
  23026809.3684    6764251.95549   5283124.86346  23026808.8224   23026813.9114
       224.0004        172.0004
 04 10 13  2 16 30.0000000  0  7G28G 5G17G24G 4G 9G 7
  24350647.6504    8625466.08448   6731730.58744  24350648.9674   24350650.1824
       190.0004        110.0004
  22104175.0444   -5884588.50949  -4552581.01046  22104174.1794   22104178.7134
       230.0004        187.0004
  22607436.9234  -10077369.06949  -7331112.30146  22607436.2584   22607442.0684
       230.0004        184.0004
  20536679.8414  -10924042.64749  -8472973.43847  20536679.4534   20536683.8294
       243.0004        209.0004
  20808943.9024    -966844.60349   -737991.50647  20808943.9484   20808947.9454
       244.0004        211.0004
  21275148.2514    -783391.05549   -576812.03547  21275148.2014   21275152.6684
       240.0004        203.0004
  23038490.0894    6825634.23649   5330955.20446  23038489.4864   23038494.2534
       224.0004        172.0004
 04 10 13  2 17  0.0000000  0  7G28G 5G17G24G 4G 9G 7
  24367241.1334    8712666.48648   6799678.95344  24367239.4514   24367242.2704
       189.0004        111.0004
  22089054.4084   -5964047.33749  -4614496.93846  22089053.6964   22089058.1564
       231.0004        187.0004
  22591182.2134  -10162787.97949  -7397672.43546  22591181.6904   22591186.6794
       230.0004        185.0004
  20530039.6124  -10958936.98349  -8500163.80747  20530039.1704   20530044.1694
       243.0004        209.0004
  20816676.9334    -926207.35549   -706326.10447  20816677.2744   20816680.7574
       246.0004        210.0004
  21281719.4124    -748859.25349   -549904.13247  21281719.2024   21281723.5754
       239.0004        203.0004
  23050176.6094    6887047.63849   5378809.79646  23050176.2954   23050180.4474
       223.0004        171.0004
 04 10 13  2 17 30.0000000  0  7G28G 5G17G24G 4G 9G 7
  24383872.3014    8800064.87548   6867781.62044                  24383873.9754
       189.0004        109.0004
  22073967.6434   -6043329.04849  -4676274.84846  22073967.4204   22073971.4154
       232.0004        187.0004
  22574977.9794  -10247941.82049  -7464026.01046  22574976.8594   22574982.5194
       228.0004        184.0004
  20523502.1344  -10993291.42549  -8526933.47247  20523501.8354   20523507.0504
       244.0004        210.0004
  20824511.8524    -885034.96749   -674243.69947  20824512.2004   20824515.7504
       246.0004        211.0004
  21288397.5604    -713765.18949   -522558.09547  21288397.1994   21288401.9134
       239.0004        202.0004
  23061869.1184    6948492.35249   5426688.80146  23061868.0814   23061872.7204
       224.0004        169.0004
 04 10 13  2 18  0.0000000  0  7G28G 5G17G24G 4G 9G 7
  24400540.9134    8887659.62758   6936037.29844                  24400537.4294
       184.0004        104.0004
  22058914.8064   -6122432.35949  -4737913.75446  22058914.3614   22058918.8844
       231.0004        187.0004
  22558824.2964  -10332829.69949  -7530172.35846  22558823.4124   22558828.3944
       228.0004        180.0004
  20517067.3674  -11027106.40749  -8553282.78247  20517067.2704   20517072.2814
       245.0004        211.0004
  20832448.1164    -843329.80549   -641746.14547  20832448.5464   20832452.0054
       247.0004        212.0004
  21295182.2924    -678111.19749   -494775.76347  21295181.9224   21295186.2544
       239.0004        202.0004
  23073567.5484    7009967.53949   5474591.54046  23073567.4524   23073571.2824
       224.0004        169.0004
 04 10 13  2 18 30.0000000  0  7G28G 5G17G24G 4G 9G 7
                   8975449.60458   7004445.09244
       186.0004        103.0004
  22043896.1974   -6201355.55349  -4799412.30946  22043896.2284   22043900.1394
       233.0004        187.0004
  22542721.5244  -10417449.83649  -7596110.07146  22542720.2694   22542725.4554
       226.0004        177.0004
  20510735.3384  -11060381.67949  -8579211.54347  20510735.3234   20510739.7044
       246.0004        211.0004
  20840485.2754    -801094.40249   -608835.41747  20840485.5924   20840489.0204
       247.0004        212.0004
  21302073.1774    -641899.23549   -466558.65247  21302072.8924   21302077.0894
       239.0004        201.0004
  23085271.7044    7071472.61449   5522517.58246  23085271.9494   23085274.9514
       225.0004        169.0004
 04 10 13  2 19  0.0000000  0  7G28G 5G17G24G 4G 9G 7
  24433990.0254    9063434.81248   7073005.01444                  24433986.1734
       185.0004        105.0004
  22028912.3724   -6280096.02349  -4860768.49146  22028911.8224   22028915.9544
       233.0004        187.0004
  22526670.2114  -10501799.54349  -7661837.06546  22526669.8314   22526674.8554
       228.0004        176.0004
  20504506.2484  -11093115.83649  -8604718.65147  20504505.9964   20504510.3904
       245.0004        210.0004
  20848623.1614    -758329.74849   -575512.29447  20848623.2484   20848626.6424
       245.0004        212.0004
  21309070.0124    -605130.42549   -437907.62847  21309069.7184   21309073.9594
       238.0004        200.0004
  23096981.6084    7133008.11449   5570467.33546  23096980.8234   23096985.5904
       226.0004        170.0004
 04 10 13  2 19 30.0000000  0  7G28G 5G17G24G 4G 9G 7
                   9151613.84958                                  10687880.84443
       185.0004         74.0004
  22013963.5314   -6358652.41749  -4921981.22246  22013962.6414   22013967.2264
       233.0004        187.0004
  22510670.6674  -10585877.46049  -7727352.27446  22510669.8484   22510674.6964
       230.0004        178.0004
  20498380.1494  -11125308.66249  -8629803.94447  20498379.9774   20498384.2094
       246.0004        210.0004
  20856861.1994    -715038.42749   -541778.79047  20856860.9464   20856864.7574
       242.0004        210.0004
  21316172.3974    -567807.07549   -408824.49647  21316171.9514   21316176.3614
       237.0004        200.0004
  23108697.1104    7194573.45649   5618440.32546  23108696.4724   23108700.8954
       226.0004        171.0004
 04 10 13  2 20  0.0000000  0  7G28G 5G17G24G 4G 9G 7
                   9239986.13258                                  10756708.75443
       185.0004         74.0004
  21999050.1194   -6437022.27549  -4983048.60546  21999049.5554   21999053.7264
       233.0004        187.0004
  22494723.2154  -10669681.43149  -7792654.02646  22494722.4784   22494727.6414
       231.0004        181.0004
  20492357.3024  -11156959.44849  -8654466.86747  20492357.4764   20492361.6064
       247.0004        211.0004
  20865198.9504    -671222.40849   -507636.43947  20865198.5344   20865202.8244
       241.0004        207.0004
  21323380.1144    -529930.36349   -379310.17247  21323380.0114   21323384.1684
       238.0004        200.0004
  23120418.2264    7256168.56349   5666436.52046  23120417.9684   23120421.7634
       224.0004        171.0004
 04 10 13  2 20 30.0000000  0  6G 5G17G24G 4G 9G 7
  21984173.6034   -6515198.64349  -5043965.20546  21984172.9544   21984177.1844
       233.0004        187.0004
  22478829.2194  -10753204.63749  -7857736.98946  22478828.5314   22478833.7694
       231.0004        183.0004
  20486438.5484  -11188063.01449  -8678703.38647  20486438.1344   20486442.8434
       246.0004        212.0004
  20873637.1724    -626878.40849   -473082.66847  20873637.1224   20873641.0934
       241.0004        207.0004
  21330693.7614    -491497.13749   -349362.19647  21330693.5984   21330697.8604
       239.0004        201.0004
  23132145.9284    7317798.36249   5714459.74746  23132144.6794   23132149.8004
       224.0004        170.0004
 04 10 13  2 21  0.0000000  0  6G 5G17G24G 4G 9G 7
  21969333.5094   -6593183.61649  -5104732.67946  21969332.8674   21969337.1554
       234.0004        187.0004
  22462988.3004  -10836449.18549  -7922602.83046  22462987.4674   22462993.1834
       229.0004        184.0004
  20480623.2144  -11218622.55749  -8702515.99647  20480622.8804   20480627.7914
       246.0004        212.0004
  20882174.8184    -582012.73949   -438122.39747  20882174.9114   20882179.0694
       243.0004        208.0004
  21338112.1804    -452513.47849   -318985.32247  21338111.9924   21338116.3934
       239.0004        202.0004
  23143879.4434    7379458.61649   5762506.69346  23143878.4664   23143883.6924
       222.0004        168.0004
 04 10 13  2 21 30.0000000  0  6G 5G17G24G 4G 9G 7
  21954529.6244   -6670978.60649  -5165352.10946  21954528.9964   21954533.0754
       235.0004        187.0004
  22447200.0084  -10919416.68849  -7987252.77246  22447199.0474   22447204.4464
       228.0004        184.0004
  20474910.8724  -11248640.90549  -8725906.89447  20474910.5744   20474915.4074
       246.0004        212.0004
  20890810.7614    -536630.82849   -402759.85847  20890811.0324   20890814.5234
       245.0004        209.0004
  21345634.2824    -412984.53549   -288183.55147  21345634.1754   21345638.1164
       239.0004        202.0004
  23155618.0314    7441145.65349   5810574.52246  23155617.2604   23155621.7294
       221.0004        166.0004
 04 10 13  2 22  0.0000000  0  6G 5G17G24G 4G 9G 7
  21939762.6994   -6748579.82049  -5225820.54547  21939761.9094   21939766.3194
       235.0004        188.0004
  22431465.0494  -11002103.78149  -8051684.20846  22431463.6014   22431469.8024
       227.0004        184.0004
  20469301.8544  -11278116.27849  -8748874.69047  20469301.4274   20469306.4124
       246.0004        212.0004
  20899544.8504    -490733.16049   -366995.41947  20899545.1864   20899548.6434
       246.0004        211.0004
  21353260.1074    -372910.57249   -256957.09147  21353260.1164   21353264.0384
       239.0004        202.0004
  23167361.9634    7502860.96149   5858664.36946  23167360.6704   23167365.5084
       221.0004        165.0004
 04 10 13  2 22 30.0000000  0  6G 5G17G24G 4G 9G 7
  21925032.6684   -6825986.61849  -5286137.48847  21925031.9664   21925036.2124
       236.0004        189.0004
  22415783.6124  -11084509.87949  -8115896.68846  22415782.7764   22415788.5004
       228.0004        184.0004
  20463795.9644  -11307049.67149  -8771420.17147  20463795.6794   20463800.5834
       245.0004        212.0004
  20908376.4384    -444323.09349   -330831.71147  20908376.6824   20908380.0994
       247.0004        212.0004
  21360989.0444    -332294.87749   -225308.49547  21360988.7954   21360993.0984
       239.0004        201.0004
  23179111.0344    7564603.07149   5906775.08546  23179110.1364   23179114.5574
       221.0004        164.0004
 04 10 13  2 23  0.0000000  0  6G 5G17G24G 4G 9G 7
  21910340.4034   -6903194.57749  -5346299.49147  21910340.0074   21910343.8854
       235.0004        190.0004
  22400156.4864  -11166630.91949  -8179887.04646  22400155.9754   22400161.2794
       229.0004        186.0004
  20458393.7204  -11335438.49849  -8793541.31147  20458393.4794   20458398.2694
       246.0004        212.0004
  20917305.5054    -397400.81149   -294268.87547  20917305.6414   20917309.3854
       246.0004        212.0004
  21368821.1364    -291136.96549   -193237.39147  21368820.7234   21368825.3884
       238.0004        201.0004
  23190865.6584    7626373.86249   5954908.16246  23190865.2684   23190869.3414
       221.0004        164.0004
 04 10 13  2 23 30.0000000  0  6G 5G17G24G 4G 9G 7
  21895686.3264   -6980201.90549  -5406305.16147  21895685.8824   21895689.9414
       235.0004        190.0004
  22384584.0754  -11248464.96249  -8243653.77946  22384583.5254   22384589.1454
       231.0004        187.0004
  20453095.3154  -11363282.03749  -8815237.54647  20453095.2174   20453099.7274
       245.0004        212.0004
  20926331.6504    -349967.97349   -257308.21347  20926331.7624   20926335.4464
       245.0004        212.0004
  21376756.0194    -249438.89849   -160745.39347  21376755.9004   21376760.1454
       238.0004        201.0004
  23202625.7654    7688173.40649   6003063.64746  23202625.0474   23202629.6504
       220.0004        163.0004
 04 10 13  2 24  0.0000000  0  6G 5G17G24G 4G 9G 7
  21881070.7374   -7057007.10449  -5466153.32547  21881069.9214   21881074.4814
       236.0004        191.0004
  22369066.4814  -11330010.68949  -8307195.84247  22369066.0584   22369070.9634
       232.0004        189.0004
  20447900.6654  -11390580.28049  -8836508.87347  20447900.2934   20447904.7844
       244.0004        212.0004
  20935454.4424    -302027.27849   -219951.82047  20935454.4764   20935458.2664
       244.0004        212.0004
  21384793.3544    -207202.71949   -127834.08447  21384793.3964   21384797.5404
       239.0004        202.0004
  23214391.1764    7750001.19649   6051241.15145  23214389.9524   23214395.8124
       219.0004        162.0004
 04 10 13  2 24 30.0000000  0  6G 5G17G24G 4G 9G 7
  21866494.2234   -7133607.16449  -5525841.64747  21866493.2024   21866498.0374
       235.0004        192.0004
  22353604.2734  -11411265.53449  -8370511.25647  22353603.4524   22353608.6744
       234.0004        190.0004
  20442809.7884  -11417332.69549  -8857354.89147  20442809.3084   20442813.9254
       244.0004        212.0004
  20944673.5814    -253580.21549   -182200.86347  20944673.6644   20944677.6134
       244.0004        211.0004
  21392932.8834    -164429.67549    -94504.43847  21392932.7314   21392936.7364
       238.0004        201.0004
  23226161.9774    7811857.70849   6099441.03445  23226160.7634   23226166.4634
       219.0004        160.0004
 04 10 13  2 25  0.0000000  0  6G 5G17G24G 4G 9G 7
  21851957.0484   -7210000.48249  -5585368.86847  21851956.2354   21851960.7254
       236.0004        192.0004
  22338197.6054  -11492228.11249  -8433598.94647  22338196.9684   22338201.7654
       234.0004        190.0004
  20437822.8064  -11443539.10949  -8877775.44547  20437822.3504   20437826.9624
       244.0004        211.0004
  20953988.6004    -204629.40249   -144057.36647  20953988.7254   20953992.7604
       244.0004        211.0004
  21401173.9934    -121122.48549    -60758.57347  21401173.8164   21401178.0354
       239.0004        201.0004
  23237938.1904    7873742.51849   6147662.96245  23237938.5604   23237942.2284
       219.0004        159.0004
 04 10 13  2 25 30.0000000  0  6G 5G17G24G 4G 9G 7
  21837459.5814   -7286184.93049  -5644733.33847  21837458.8424   21837463.4884
       235.0004        193.0004
  22322846.8784  -11572896.58549  -8496457.46447  22322846.6654   22322850.8574
       235.0004        189.0004
  20432939.8304  -11469199.17849  -8897770.27847  20432939.3604   20432944.4424
       244.0004        212.0004
  20963399.0554    -155176.92749   -105522.95447  20963399.1814   20963403.0954
       244.0004        210.0004
  21409516.2834     -77283.18849    -26598.08447  21409515.8714   21409520.4184
       238.0004        201.0004
  23249719.9364    7935655.48049   6195906.84145  23249718.7854   23249723.7704
       219.0004        157.0004
 04 10 13  2 26  0.0000000  0  6G 5G17G24G 4G 9G 7
  21823002.2264   -7362158.56949  -5703933.53747  21823001.6504   21823005.7324
       236.0004        194.0004
  22307552.3784  -11653269.46949  -8559085.64946  22307551.4334   22307555.9454
       233.0004        187.0004
  20428160.8344  -11494312.85449  -8917339.35447  20428160.5494   20428165.3174
       244.0004        212.0004
  20972904.5464    -105225.21349    -66599.53147  20972904.7904   20972908.5754
       244.0004        209.0004
  21417959.4184     -32913.66749      7975.56447  21417959.0454   21417963.5834
       238.0004        200.0004
  23261507.0134    7997596.36649   6244172.46445  23261506.1744   23261510.0854
       218.0004        156.0004
 04 10 13  2 26 30.0000000  0  6G 5G17G24G 4G 9G 7
  21808585.4574   -7437918.98649  -5762967.58947  21808584.9314   21808589.2644
       236.0004        194.0004
  22292314.6474  -11733344.05749  -8621481.39246  22292314.2424   22292318.2734
       233.0004        185.0004
  20423485.9064  -11518879.69949  -8936482.32447  20423485.3754   20423490.3314
       244.0004        212.0004
  20982504.7924     -54775.71949    -27288.22047  20982504.7444   20982508.1054
       243.0004        207.0004
  21426503.2294      11984.40249     42961.07147  21426502.9214   21426507.2134
       238.0004        200.0004
  23273299.5644    8059565.73249   6292460.25845  23273298.5714   23273303.6324
       217.0004        154.0004
 04 10 13  2 27  0.0000000  0  6G 5G17G24G 4G 9G 7
  21794209.5224   -7513464.64149  -5821834.30447  21794208.7734   21794213.0414
       236.0004        195.0004
  22277133.8824  -11813119.38649  -8683643.94946  22277133.4414   22277137.4944
       234.0004        185.0004
  20418914.9924  -11542899.70649  -8955199.18947  20418914.5904   20418919.0924
       244.0004        212.0004
  20992199.1454      -3831.48849     12408.59147  20992199.1034   20992202.2454
       241.0004        204.0004
  21435147.1134      57408.49549     78356.47047  21435146.3874   21435151.1484
       237.0004        200.0004
  23285097.2144    8121562.66149   6340769.56245  23285095.7644   23285100.7654
       214.0004        152.0004
 04 10 13  2 27 30.0000000  0  6G 5G17G24G 4G 9G 7
  21779875.0234   -7588792.98349  -5880531.68447  21779874.2274   21779878.8154
       236.0004        195.0004
  22262010.4654  -11892593.51049  -8745571.80446  22262010.2614   22262014.1644
       234.0004        186.0004
  20414448.2594  -11566372.34949  -8973489.53547  20414447.8324   20414452.3494
       244.0004        212.0004
  21001987.2424      47605.77049     52489.58047  21001986.9674   21001990.3744
       241.0004        202.0004
  21443890.6864     103357.01349    114160.50747  21443889.9244   21443894.9214
       237.0004        199.0004
  23296900.0094    8183587.52049   6389100.60745  23296898.2934   23296903.2394
       210.0004        150.0004
 04 10 13  2 28  0.0000000  0  6G 5G17G24G 4G 9G 7
  21765582.2504   -7663902.16549  -5939058.28247  21765581.6514   21765585.9594
       236.0004        196.0004
  22246944.8084  -11971764.58749  -8807263.52546  22246944.1014   22246948.3594
       234.0004        187.0004
  20410085.7444  -11589297.30949  -8991353.12347  20410085.2824   20410089.8344
       244.0004        211.0004
  21011868.6774      99533.52349     92952.77547  21011868.9064   21011872.3654
       241.0004        203.0004
  21452733.6504     149827.71849    150371.43747  21452733.5324   21452737.8684
       236.0004        199.0004
  23308708.0654    8245639.98949   6437453.17545  23308706.9384   23308711.3564
       209.0004        148.0004
 04 10 13  2 28 30.0000000  0  6G 5G17G24G 4G 9G 7
  21751331.5854   -7738789.58249  -5997412.08047  21751330.8974   21751335.3114
       235.0004        196.0004
  22231937.1094  -12050630.54349  -8868717.47146  22231936.0714   22231940.8024
       232.0004        187.0004
  20405827.4984  -11611674.33849  -9008789.74047  20405827.0604   20405831.7984
       244.0004        211.0004
  21021843.2204     151950.03849    133796.83247  21021843.2714   21021847.1044
       244.0004        205.0004
  21461675.8584     196818.88349    186987.93247  21461675.8614   21461680.0364
       237.0004        199.0004
  23320521.6104    8307720.59449   6485827.66845  23320521.3694   23320525.8774
       210.0004        148.0004
 04 10 13  2 29  0.0000000  0  6G 5G17G24G 4G 9G 7
  21737123.5154   -7813452.86949  -6055591.23947  21737122.7134   21737127.3634
       235.0004        196.0004
  22216987.6514  -12129189.30949  -8929932.05246  22216986.6204   22216991.7424
       232.0004        187.0004
  20401673.5154  -11633503.35149  -9025799.33747  20401673.1364   20401677.7424
       244.0004        211.0004
  21031910.3864     204853.18849    175020.07847  21031910.6614   21031914.6384
       245.0004        208.0004
  21470716.7164     244328.29449    224008.25047  21470716.6424   21470720.9674
       238.0004        200.0004
  23332340.7024    8369829.42049   6534224.14445  23332340.8374   23332344.4754
       210.0004        150.0004
 04 10 13  2 29 30.0000000  0  6G 5G17G24G 4G 9G 7
  21722958.2904   -7887891.07749  -6113595.00747  21722957.8494   21722962.1234
       235.0004        196.0004
  22202096.7944  -12207440.53249  -8990906.98647  22202095.8694   22202100.9994
       233.0004        188.0004
  20397623.7014  -11654785.18549  -9042382.55847  20397623.4494   20397628.3194
       244.0004        212.0004
  21042069.5794     258239.68849    216619.96147  21042069.9684   21042073.6244
       246.0004        211.0004
  21479855.5224     292352.88149    261430.00647  21479855.3064   21479860.0574
       238.0004        201.0004
  23344164.9094    8431965.18549   6582641.60445  23344163.8424   23344168.7654
       210.0004        149.0004
 04 10 13  2 30  0.0000000  0  6G 5G17G24G 4G 9G 7
  21708836.5484   -7962101.43349  -6171421.22147  21708836.0064   21708840.4404
       236.0004        196.0004
  22187265.0394  -12285381.59749  -9051640.24347  22187264.3864   22187269.3634
       233.0004        189.0004
  20393678.1654  -11675519.17249  -9058538.88747  20393677.8514   20393682.5184
       244.0004        212.0004
  21052320.3944     312107.86549    258595.17447  21052320.8324   21052324.3214
       246.0004        212.0004
  21489092.1084     340891.10849    299252.00347  21489092.0914   21489096.6944
       237.0004        201.0004
  23355994.2794    8494128.66249   6631080.66845  23355993.7724   23355997.9424
       210.0004        149.0004
 04 10 13  2 30 30.0000000  0  6G 5G17G24G 4G 9G 7
  21694758.4914   -8036082.11949  -6229068.47747  21694757.7824   21694762.2744
       236.0004        196.0004
  22172492.6344  -12363011.04549  -9112130.68947  22172492.2334   22172497.1044
       234.0004        190.0004
  20389836.9014  -11695705.32449  -9074268.33647  20389836.7604   20389841.1244
       245.0004        212.0004
  21062662.3684     366455.00949    300943.61147  21062662.5024   21062666.1434
       245.0004        212.0004
  21498425.9884     389940.62949    337472.41147  21498425.8894   21498430.5594
       237.0004        201.0004
  23367828.7034    8556319.37349   6679540.94045  23367828.4094   23367832.1714
       210.0004        148.0004
 04 10 13  2 31  0.0000000  0  6G 5G17G24G 4G 9G 7
  21680724.2494   -8109832.55949  -6286536.31947  21680723.5374   21680727.9704
       237.0004        196.0004
  22157779.6204  -12440328.81949  -9172378.27447  22157778.8394   22157783.6224
       233.0004        189.0004
  20386099.5884  -11715345.15249  -9089572.08247  20386099.3974   20386103.9674
       245.0004        212.0004
  21073094.7554     421277.40649    343662.36947  21073094.8004   21073098.4104
       244.0004        212.0004
  21507856.3594     439497.66249    376088.28447  21507855.9214   21507860.7754
       237.0004        201.0004
  23379667.9984    8618535.92149   6728021.37145  23379667.0334   23379672.1984
       209.0004        148.0004
 04 10 13  2 31 30.0000000  0  6G 5G17G24G 4G 9G 7
  21666734.8094   -8183347.70349  -6343820.81847  21666734.2924   21666738.3314
       237.0004        197.0004
  22143126.6714  -12517330.26049  -9232379.36747  22143125.7634   22143130.8284
       232.0004        188.0004
  20382466.7324  -11734435.81849  -9104447.90247  20382466.4524   20382470.9034
       245.0004        212.0004
  21083617.6334     476575.69849    386751.94947  21083617.5454   21083621.3554
       242.0004        210.0004
  21517383.3784     489562.90149    415100.16047  21517382.9364   21517387.5984
       237.0004        201.0004
  23391512.8684    8680781.16749   6776524.14645  23391512.5534   23391516.9804
       209.0004        148.0004
 04 10 13  2 32  0.0000000  0  6G 5G17G24G 4G 9G 7
  21652790.3674   -8256626.41549  -6400921.08247  21652789.6564   21652793.9944
       238.0004        197.0004
  22128534.0854  -12594014.53249  -9292133.31247  22128533.2754   22128538.2844
       232.0004        189.0004
  20378938.1984  -11752978.29449  -9118896.55647  20378937.8654   20378942.3574
       244.0004        212.0004
  21094230.3614     532346.45349    430209.68347  21094230.1084   21094234.0904
       241.0004        208.0004
  21527006.4804     540133.09949    454505.50947  21527006.0644   21527010.6934
       237.0004        200.0004
  23403362.9634    8743053.94649   6825048.38145  23403361.5204   23403367.5634
       210.0004        149.0004
 04 10 13  2 32 30.0000000  0  6G 5G17G24G 4G 9G 7
  21638891.4144   -8329665.74649  -6457834.81547  21638890.7384   21638894.8254
       238.0004        197.0004
  22114002.2914  -12670379.66349  -9351638.56247  22114001.5854   22114006.8334
       233.0004        191.0004
  20375514.0844  -11770972.18349  -9132917.75148  20375513.9354   20375518.3324
       245.0004        213.0004
  21104932.7104     588588.05749    474034.31247  21104932.5194   21104936.5644
       242.0004        206.0004
  21536725.3844     591206.42849    494302.90547  21536725.1854   21536729.9244
       236.0004        200.0004
  23415218.4234    8805354.93449   6873594.58245  23415218.0124   23415222.3864
       211.0004        150.0004
 04 10 13  2 33  0.0000000  0  6G 5G17G24G 4G 9G 7
  21625037.9774   -8402465.99249  -6514562.24847  21625037.2984   21625041.6394
       239.0004        198.0004
  22099531.0964  -12746426.04849  -9410895.44347  22099530.2744   22099535.9364
       234.0004        192.0004
  20372193.9714  -11788419.62549  -9146513.13548  20372193.7344   20372198.4044
       246.0004        214.0004
  21115723.7554     645295.59849    518222.01047  21115723.9684   21115727.8054
       241.0004        205.0004
  21546539.1074     642778.40949    534488.86047  21546538.8924   21546543.7304
       236.0004        199.0004
  23427078.7574    8867681.77949   6922160.93845  23427077.7424   23427082.7064
       209.0004        150.0004
 04 10 13  2 33 30.0000000  0  6G 5G17G24G 4G 9G 7
  21611230.9204   -8475022.72749  -6571099.93647  21611230.2074   21611234.6224
       239.0004        198.0004
  22085121.1924  -12822149.87249  -9469900.99447  22085120.3594   22085126.4254
       233.0004        193.0004
  20368978.3064  -11805318.30249  -9159680.91748  20368977.8604   20368982.7334
       244.0004        214.0004
  21126603.5354     702469.36849    562773.00247  21126603.7974   21126607.6444
       242.0004        204.0004
  21556447.8484     694849.27949    575063.55147  21556448.0224   21556452.3664
       236.0004        199.0004
  23438944.3384    8930036.83849   6970749.28145  23438943.2574   23438947.8134
       209.0004        151.0004
 04 10 13  2 34  0.0000000  0  6G 5G17G24G 4G 9G 7
  21597470.3214   -8547335.00449  -6627447.13947  21597469.7634   21597473.6684
       239.0004        198.0004
  22070772.9054  -12897550.44649  -9528654.65447  22070772.2024   22070777.6954
       233.0004        193.0004
  20365866.6544  -11821669.82849  -9172422.34848  20365866.2544   20365870.9354
       244.0004        213.0004
  21137571.3544     760105.43149    607684.23047  21137571.4344   21137575.4524
       243.0004        205.0004
  21566451.0444     747415.60549    616024.32247  21566451.1074   21566455.2634
       237.0004        199.0004
  23450815.2794    8992418.84849   7019358.62845  23450815.8184   23450819.1064
       210.0004        152.0004
 04 10 13  2 34 30.0000000  0  6G 5G17G24G 4G 9G 7
  21583756.5554   -8619401.15749  -6683602.55747  21583755.9374   21583759.6324
       239.0004        198.0004
  22056486.3574  -12972626.83349  -9587155.70247  22056485.5334   22056490.6204
       233.0004        191.0004
  20362859.0794  -11837474.47949  -9184737.64348  20362858.6764   20362863.3084
       244.0004        213.0004
  21148626.6414     818201.16349    652953.63447  21148626.8804   21148630.6024
       244.0004        206.0004
  21576547.9974     800474.53949    657368.94247  21576547.8474   21576552.1194
       237.0004        199.0004
  23462691.3674    9054827.48549   7067988.73245  23462691.0174   23462695.2664
       212.0004        154.0004
 04 10 13  2 35  0.0000000  0  6G 5G17G24G 4G 9G 7
  21570090.0824   -8691218.95249  -6739564.45147  21570089.6284   21570093.4174
       240.0004        198.0004
  22042261.7744  -13047377.36949  -9645402.83747  22042261.1004   22042265.9704
       233.0004        190.0004
  20359955.5074  -11852732.59749  -9196627.06648  20359954.9764   20359959.8654
       244.0004        213.0004
  21159768.9424     876754.10049    698579.30447  21159769.3864   21159772.8494
       245.0004        207.0004
  21586738.0194     854023.42149    699095.34247  21586737.7324   21586741.8914
       236.0004        199.0004
  23474572.6114    9117262.43649   7116639.33145  23474572.5424   23474576.7124
       213.0004        157.0004
 04 10 13  2 35 30.0000000  0  6G 5G17G24G 4G 9G 7
  21556471.3094   -8762786.11849  -6795331.05647  21556470.8064   21556474.9984
       240.0004        198.0004
  22028099.5644  -13121800.20149  -9703394.62747  22028099.2044   22028104.0524
       235.0004        190.0004
  20357155.9284  -11867444.19849  -9208090.63547  20357155.3354   20357160.4194
       243.0004        212.0004
  21170997.8574     935762.14249    744559.59647  21170997.9034   21171001.7194
       244.0004        207.0004
  21597020.8444     908060.27149    741201.96747  21597020.7644   21597024.8074
       237.0004        199.0004
  23486458.9554    9179724.33949   7165310.92545  23486458.8634   23486462.8844
       214.0004        158.0004
 04 10 13  2 36  0.0000000  0  6G 5G17G24G 4G 9G 7
  21542900.6654   -8834100.44249  -6850900.63247  21542900.0414   21542904.0554
       240.0004        198.0004
  22014000.1584  -13195893.52349  -9761129.64047  22013999.6954   22014004.5854
       239.0004        194.0004
  20354460.3584  -11881609.10449  -9219128.20047  20354459.8714   20354464.5954
       244.0004        212.0004
  21182312.8184     995222.80949    790892.58847  21182312.7904   21182316.4944
       244.0004        206.0004
  21607396.1344     962582.79649    783687.04647  21607395.7714   21607400.4024
       236.0004        199.0004
  23498350.2964    9242213.05949   7214003.40745  23498349.6514   23498354.3584
       214.0004        159.0004
 04 10 13  2 36 30.0000000  0  6G 5G17G24G 4G 9G 7
  21529378.5934   -8905159.18849  -6906271.05547  21529378.0824   21529382.0794
       239.0004        198.0004
  21999963.8634  -13269655.33249  -9818606.34847  21999963.5324   21999968.5324
       238.0004        197.0004
  20351868.9754  -11895227.09249  -9229739.59747  20351868.9144   20351872.9744
       244.0004        212.0004
  21193713.5244    1055134.18949    837576.78747  21193713.7774   21193717.5984
       245.0004        206.0004
  21617863.5234    1017589.20449    826549.16947  21617863.1754   21617867.9414
       237.0004        199.0004
  23510246.7144    9304729.12649   7262717.20445  23510246.0754   23510250.4714
       214.0004        159.0004
 04 10 13  2 37  0.0000000  0  6G 5G17G24G 4G 9G 7
  21515905.6854   -8975959.57549  -6961440.16047  21515905.0794   21515909.2124
       239.0004        198.0004
  21985991.0044  -13343083.56649  -9875823.12247  21985990.3564   21985995.6554
       238.0004        199.0004
  20349381.6764  -11908297.99049  -9239924.69047  20349381.3264   20349385.6684
       244.0004        212.0004
  21205199.7324    1115494.48349    884610.79247  21205199.9664   21205203.4484
       245.0004        206.0004
  21628422.6564    1073077.70949    869786.95347  21628422.5554   21628426.8534
       236.0004        199.0004
  23522148.3754    9367273.31549   7311452.92445  23522147.0564   23522152.4194
       213.0004        159.0004
 04 10 13  2 37 30.0000000  0  6G 5G17G24G 4G 9G 7
  21502481.9954   -9046501.22549  -7016407.66147  21502481.1824   21502485.6294
       239.0004        198.0004
  21972081.4864  -13416178.32749  -9932780.05047  21972080.6154   21972086.1254
       236.0004        199.0004
  20346998.0494  -11920823.87149  -9249685.10447  20346997.7074   20347002.1474
       244.0004        211.0004
  21216770.6194    1176299.47749    931991.31347  21216770.7254   21216774.2744
       244.0004        205.0004
  21639072.6944    1129043.80649    913396.89047  21639072.8024   21639077.0394
       236.0004        199.0004
  23534055.0024    9429843.61749   7360209.00345  23534053.6144   23534059.0874
       213.0004        158.0004
 04 10 13  2 38  0.0000000  0  6G 5G17G24G 4G 9G 7
  21489108.2804   -9116780.02149  -7071170.33847  21489107.5304   21489111.7664
       239.0004        198.0004
  21958236.0134  -13488936.20349  -9989474.46347  21958235.0904   21958240.3404
       236.0004        197.0004
  20344718.5124  -11932803.02249  -9259019.49347  20344718.4154   20344722.5514
       245.0004        212.0004
  21228425.9324    1237548.61149    979717.91847  21228425.9674   21228429.5994
       243.0004        204.0004
  21649813.4954    1185487.15449    957378.70847  21649813.2864   21649817.6594
       235.0004        199.0004
  23545967.0494    9492442.20349   7408987.11345  23545966.1674   23545971.7374
       214.0004        158.0004
 04 10 13  2 38 30.0000000  0  6G 5G17G24G 4G 9G 7
  21475784.7864   -9186795.14049  -7125727.78047  21475784.6044   21475787.6914
       239.0004        198.0004
  21944454.6234  -13561357.05349 -10045906.48847  21944454.1114   21944458.8334
       234.0004        196.0004
  20342542.7534  -11944237.02149  -9267929.32047  20342542.7614   20342546.5574
       245.0004        212.0004
  21240165.0174    1299237.99049   1027787.34147  21240165.4494   21240168.0274
       244.0004        203.0004
  21660644.4134    1242404.06149   1001729.30347  21660644.5484   21660648.8934
       236.0004        198.0004
  23557884.2674    9555067.64449   7457785.97445  23557883.5474   23557891.8334
       215.0004        157.0004
 04 10 13  2 39  0.0000000  0  6G 5G17G24G 4G 9G 7
  21462512.3434   -9256542.60249  -7180076.40847  21462511.8924   21462515.9834
       238.0004        199.0004
  21930738.2574  -13633437.18749 -10102072.76947  21930737.7064   21930742.9964
       235.0004        196.0004
  20340471.0104  -11955124.20149  -9276412.80247  20340470.6254   20340475.1564
       243.0004        212.0004
  21251987.8534    1361367.30249   1076199.82047  21251988.0954   21251991.2474
       244.0004        203.0004
  21671565.4094    1299793.93249   1046448.69147  21671565.3874   21671569.9084
       236.0004        199.0004
  23569806.9914    9617721.96149   7506607.46745  23569806.2034   23569811.6594
       216.0004        158.0004
 04 10 13  2 39 30.0000000  0  6G 5G17G24G 4G 9G 7
  21449290.8974   -9326022.07249  -7234216.22847  21449290.5054   21449294.5804
       238.0004        199.0004
  21917086.5884  -13705177.14849 -10157974.00147  21917085.5174   21917091.2464
       234.0004        196.0004
  20338502.8024  -11965466.96549  -9284472.07447  20338502.5484   20338507.0804
       244.0004        212.0004
  21263893.5084    1423931.79949   1124951.38347  21263893.8134   21263897.1074
       244.0004        204.0004
  21682575.5774    1357652.30549   1091533.13847  21682575.5054   21682579.9504
       237.0004        199.0004
  23581734.8344    9680403.39849   7555450.12845  23581734.8254   23581739.4924
       215.0004        159.0004
 04 10 13  2 40  0.0000000  0  6G 5G17G24G 4G 9G 7
  21436120.8634   -9395231.29749  -7288145.47747  21436120.3534   21436124.4144
       238.0004        200.0004
  21903499.8654  -13776575.41549 -10213608.97847  21903498.8634   21903504.0504
       233.0004        195.0004
  20336638.1014  -11975265.78349  -9292107.49647  20336637.7494   20336642.3974
       243.0004        211.0004
  21275881.5544    1486929.23749   1174040.29847  21275881.6744   21275885.1494
       243.0004        205.0004
  21693674.4244    1415976.71049   1136980.72247  21693674.1824   21693678.8014
       237.0004        199.0004
  23593667.8734    9743111.78849   7604313.80245  23593667.3144   23593672.6304
       214.0004        158.0004
 04 10 13  2 40 30.0000000  0  6G 5G17G24G 4G 9G 7
  21423002.6064   -9464168.42849  -7341862.70447  21423002.1544   21423006.2454
       240.0004        200.0004
  21889978.3664  -13847630.65649 -10268976.64847  21889977.8044   21889982.5524
       232.0004        193.0004
  20334876.8474  -11984521.05049  -9299319.37747  20334876.4984   20334881.0724
       243.0004        211.0004
  21287951.4264    1550356.84949   1223464.40347  21287951.5584   21287955.2144
       242.0004        205.0004
  21704861.3854    1474764.53349   1182789.40447  21704861.1174   21704865.6684
       237.0004        199.0004
  23605606.0784    9805847.27249   7653198.58545  23605606.2794   23605610.2774
       216.0004        157.0004
 04 10 13  2 41  0.0000000  0  6G 5G17G24G 4G 9G 7
  21409936.6204   -9532830.72549  -7395365.77147  21409936.1204   21409940.1164
       240.0004        201.0004
  21876522.6294  -13918341.01249 -10324075.57947  21876521.5894   21876527.0624
       234.0004        193.0004
  20333219.0144  -11993232.78949  -9306107.72247  20333218.7064   20333223.1384
       243.0004        211.0004
  21300102.7254    1614212.66549   1273222.17547  21300102.6264   21300106.1854
       241.0004        205.0004
  21716136.0404    1534013.33749   1228957.29247  21716135.9524   21716140.0444
       237.0004        199.0004
  23617549.5884    9868610.08549   7702104.65345  23617549.2614   23617553.5364
       215.0004        157.0004
 04 10 13  2 41 30.0000000  0  6G 5G17G24G 4G 9G 7
  21396923.2644   -9601216.11749  -7448653.07047  21396922.5194   21396926.7104
       240.0004        201.0004
  21863132.8234  -13988704.82749 -10378904.49247  21863132.5584   21863137.0904
       236.0004        194.0004
  20331664.6174  -12001401.21549  -9312472.70347  20331664.4024   20331669.0724
       244.0004        212.0004
  21312335.0374    1678494.10649   1323311.61247  21312334.9684   21312338.8304
       241.0004        204.0004
  21727497.9244    1593720.80349   1275482.58347  21727497.5164   21727502.0954
       237.0004        199.0004
  23629498.3764    9931400.43449   7751032.17445  23629497.6094   23629502.8334
       217.0004        156.0004
 04 10 13  2 42  0.0000000  0  6G 5G17G24G 4G 9G 7
  21383963.0554   -9669322.22849  -7501722.75347  21383962.6414   21383966.6464
       241.0004        202.0004
  21849809.3714  -14058720.64549 -10433462.26047  21849809.2124   21849812.9864
       238.0004        195.0004
  20330213.5324  -12009026.94049  -9318414.81648  20330213.5564   20330218.0484
       244.0004        213.0004
  21324647.9734    1743198.80049   1373730.84447  21324648.2534   21324651.8384
       241.0004        204.0004
  21738946.7044    1653884.55949   1322363.42447  21738946.6204   21738951.1224
       237.0004        199.0004
  23641452.4114    9994218.62549   7799981.39445  23641452.4934   23641455.8724
       215.0004        155.0004
 04 10 13  2 42 30.0000000  0  6G 5G17G24G 4G 9G 7
  21371056.4314   -9737147.07849  -7554573.26247  21371055.6164   21371059.9634
       241.0004        202.0004
  21836552.4504  -14128387.17149 -10487747.84947  21836551.9104   21836555.7544
       237.0004        194.0004
  20328865.5924  -12016110.79949  -9323934.69248  20328865.4794   20328870.0374
       245.0004        214.0004
  21337040.9114    1808323.85949   1424477.63347  21337041.2544   21337044.7414
       241.0004        203.0004
  21750481.7644    1714501.85949   1369597.68247  21750481.5554   21750486.1754
       236.0004        199.0004
  23653411.6414   10057064.41549   7848952.12845  23653410.8544   23653415.3814
       212.0004        153.0004
 04 10 13  2 43  0.0000000  0  6G 5G17G24G 4G 9G 7
  21358203.7534   -9804688.17649  -7607202.67847  21358203.0644   21358207.0904
       241.0004        202.0004
  21823362.0804  -14197702.65449 -10541759.88547  21823361.0124   21823366.0694
       234.0004        194.0004
  20327620.7204  -12022652.86049  -9329032.39048  20327620.6214   20327625.0904
       245.0004        214.0004
  21349513.4394    1873867.21049   1475550.36947  21349513.7594   21349517.2614
       242.0004        203.0004
  21762102.7074    1775570.19349   1417183.39447  21762102.6804   21762107.3824
       237.0004        199.0004
  23665376.1874   10119938.30049   7897944.75745  23665376.2914   23665379.4814
       212.0004        151.0004
 04 10 13  2 43 30.0000000  0  6G 5G17G24G 4G 9G 7
  21345405.4884   -9871943.29249  -7659609.24647  21345405.0144   21345409.0304
       242.0004        202.0004
  21810238.6814  -14266665.58749 -10595497.20347  21810237.7774   21810242.6194
       234.0004        194.0004
  20326478.8604  -12028653.40449  -9333708.12048  20326478.8024   20326483.2684
       245.0004        214.0004
  21362065.0824    1939826.32049   1526947.07947  21362065.2604   21362068.9954
       242.0004        203.0004
  21773809.0194    1837087.08249   1465118.63147  21773808.8564   21773813.4044
       237.0004        199.0004
  23677346.0114   10182840.29549   7946959.28545  23677345.2054   23677349.4654
       212.0004        151.0004
 04 10 13  2 44  0.0000000  0  6G 5G17G24G 4G 9G 7
  21332662.1964   -9938910.19149  -7711791.22047  21332661.8564   21332665.5564
       243.0004        203.0004
  21797182.7774  -14335274.68949 -10648958.79347  21797182.0554   21797187.1824
       236.0004        196.0004
  20325439.8814  -12034113.33149  -9337962.59248  20325439.4214   20325444.1424
       244.0004        214.0004
  21374695.2894    2006198.53349   1578665.70047  21374695.3364   21374698.7014
       243.0004        203.0004
  21785600.2174    1899049.79549   1513401.26447  21785600.0834   21785604.5044
       237.0004        199.0004
  23689321.1114   10245770.38349   7995995.68745  23689321.3144   23689324.9824
       212.0004        151.0004
 04 10 13  2 44 30.0000000  0  6G 5G17G24G 4G 9G 7
  21319973.9434  -10005588.00449  -7763747.95147  21319973.5294   21319977.1594
       243.0004        203.0004
  21784194.2514  -14403529.84649 -10702144.59547  21784193.6974   21784198.6664
       237.0004        197.0004
  20324503.3884  -12039034.36649  -9341797.14848  20324503.0494   20324507.8134
       244.0004        214.0004
  21387403.3944    2072979.99049   1630703.21847  21387403.2994   21387406.8444
       244.0004        202.0004
  21797475.4764    1961454.48849   1562028.29747  21797475.1924   21797479.5234
       236.0004        198.0004
  23701301.2974   10308727.48449   8045053.15745  23701300.4514   23701305.3204
       211.0004        150.0004
 04 10 13  2 45  0.0000000  0  6G 5G17G24G 4G 9G 7
  21307341.4654  -10071972.18849  -7815475.87047  21307340.8754   21307344.6744
       243.0004        203.0004
  21771273.8154  -14471427.28049 -10755051.66647  21771273.5114   21771277.5924
       238.0004        198.0004
  20323669.8384  -12043414.65449  -9345210.34548  20323669.7164   20323674.2604
       244.0004        214.0004
  21400189.3534    2140170.55549   1683059.51947  21400189.2374   21400192.5854
       244.0004        201.0004
  21809434.7554    2024301.05849   1610999.64447  21809434.3334   21809438.4374
       236.0004        197.0004
  23713287.0964   10371713.92349   8094133.48945  23713284.9544   23713291.1424
       209.0004        149.0004
 04 10 13  2 45 30.0000000  0  6G 5G17G24G 4G 9G 7
  21294764.6214  -10138063.60349  -7866975.66547  21294763.9824   21294767.7894
       242.0004        203.0004
  21758421.2114  -14538968.67849 -10807681.30447  21758421.1094   21758425.5224
       239.0004        199.0004
  20322938.5634  -12047257.88749  -9348205.05448  20322938.3134   20322942.7864
       245.0004        214.0004
  21413052.0994    2207764.73749   1735730.32547  21413051.9834   21413055.6024
       243.0004        200.0004
  21821477.0614    2087583.90649   1660310.94747  21821476.8764   21821481.0164
       236.0004        196.0004
  23725278.0024   10434726.96049   8143234.53445  23725276.2934   23725282.2034
       208.0004        147.0004
 04 10 13  2 46  0.0000000  0  6G 5G17G24G 4G 9G 7
  21282244.4344  -10203857.73149  -7918243.79847  21282243.7194   21282247.7694
       242.0004        203.0004
  21745637.1494  -14606150.22349 -10860030.53347  21745636.7594   21745641.4674
       238.0004        200.0004
  20322309.7704  -12050562.28849  -9350779.89748  20322309.6184   20322314.0544
       244.0004        214.0004
  21425991.4764    2275762.04049   1788715.25147  21425991.2354   21425994.8504
       242.0004        200.0004
  21833602.2524    2151302.30449   1709961.64747  21833602.2524   21833606.0714
       237.0004        196.0004
  23737274.4574   10497768.97749   8192358.17745  23737273.7474   23737278.6504
       209.0004        146.0004
 04 10 13  2 46 30.0000000  0  6G 5G17G24G 4G 9G 7
  21269781.1224  -10269352.77549  -7969278.88047  21269780.6574   21269784.5494
       241.0004        203.0004
  21732921.5044  -14672971.19949 -10912098.80247  21732920.5224   21732925.7784
       237.0004        200.0004
  20321783.2234  -12053329.23749  -9352935.94748  20321782.9124   20321787.2394
       244.0004        213.0004
  21439007.0824    2344159.69449   1842012.13147  21439007.2944   21439010.8114
       241.0004        199.0004
  21845809.7564    2215453.19649   1759949.35447  21845809.4114   21845813.7354
       237.0004        196.0004
  23749276.4354   10560839.64349   8241504.13945  23749276.6584   23749281.4524
       208.0004        146.0004
 04 10 13  2 47  0.0000000  0  6G 5G17G24G 4G 9G 7
  21257375.0224  -10334546.97849  -8020079.54247  21257374.5564   21257378.4904
       242.0004        204.0004
  21720274.5924  -14739430.64149 -10963885.35047  21720273.5684   21720279.1194
       237.0004        200.0004
  20321358.7124  -12055559.83349  -9354674.05848  20321358.2864   20321362.6054
       244.0004        213.0004
  21452098.3034    2412954.31249   1895618.33147  21452098.2714   21452102.1504
       240.0004        199.0004
  21858099.0264    2280033.36349   1810271.56047  21858099.3434   21858103.1064
       236.0004        196.0004
  23761283.7634   10623938.52549   8290672.07545  23761283.5264   23761288.2884
       209.0004        147.0004
 04 10 13  2 47 30.0000000  0  6G 5G17G24G 4G 9G 7
  21245026.5614  -10399438.64349  -8070644.45747  21245025.9854   21245029.9724
       243.0004        205.0004
  21707696.6434  -14805527.45049 -11015389.32847  21707695.4754   21707701.2764
       237.0004        200.0004
  20321036.0594  -12057255.16749  -9355995.08148  20321035.7704   20321040.0914
       244.0004        213.0004
  21465264.5934    2482143.40049   1949531.90147  21465264.5874   21465268.3344
       240.0004        199.0004
  21870469.4334    2345040.00149   1860926.07647  21870469.1694   21870473.7424
       237.0004        196.0004
  23773296.5794   10687065.61249   8339862.01545  23773297.6494   23773301.3964
       209.0004        147.0004
 04 10 13  2 48  0.0000000  0  7G 5G17G24G 4G10G 9G 7
  21232736.2484  -10464024.96649  -8120971.43947  21232735.7834   21232739.7394
       243.0004        206.0004
  21695187.9484  -14871259.89349 -11066609.38947  21695186.7254   21695192.5324
       236.0004        199.0004
  20320815.3684  -12058415.00049  -9356898.82848  20320815.1224   20320819.4204
       244.0004        213.0004
  21478505.4074    2551724.46649   2003750.90847  21478505.2204   21478509.2314
       239.0004        199.0004
  24567890.8314   -1492325.71759  -1115148.94945  24567887.4554   24567894.7814
       208.0004        133.0004
  21882920.5354    2410470.76549   1911911.07747  21882920.4494   21882924.2304
       237.0004        196.0004
  23785314.9474   10750221.34149   8389074.26645  23785314.7394   23785319.1704
       213.0004        149.0004
 04 10 13  2 48 30.0000000  0  7G 5G17G24G 4G10G 9G 7
  21220504.1564  -10528304.90649  -8171059.68247  21220503.7414   21220507.1934
       243.0004        207.0004
  21682748.7004  -14936627.78649 -11117545.37947  21682747.6764   21682753.2454
       237.0004        199.0004
  20320696.1904  -12059041.38549  -9357386.90048  20320695.8954   20320699.9764
       244.0004        213.0004
  21491820.1104    2621693.92749   2058272.56447  21491819.9934   21491823.8494
       239.0004        199.0004
  24548609.0874   -1593650.70249  -1194103.36145  24548607.5334   24548614.6724
       209.0004        140.0004
  21895451.6344    2476321.84549   1963223.60647  21895451.4444   21895455.2264
       237.0004        195.0004
  23797338.5864   10813404.80749   8438308.12245  23797338.3064   23797342.7624
       214.0004        151.0004
 04 10 13  2 49  0.0000000  0  7G 5G17G24G 4G10G 9G 7
  21208330.7684  -10592276.57749  -8220907.71747  21208330.2484   21208334.0564
       244.0004        208.0004
  21670379.1374  -15001630.24849 -11168196.62047  21670378.6894   21670383.5744
       239.0004        200.0004
  20320678.2884  -12059135.24649  -9357460.02447  20320677.7874   20320682.2264
       244.0004        212.0004
  21505208.1324    2692048.96749   2113094.66947  21505207.9144   21505212.0804
       239.0004        200.0004
  24529310.1034   -1695066.71949  -1273128.73345  24529309.6824   24529315.9834
       210.0004        143.0004
  21908062.0924    2542590.21949   2014861.29847  21908061.8544   21908065.5984
       237.0004        195.0004
  23809367.3414   10876615.88449   8487563.47745  23809366.7584   23809370.8904
       215.0004        152.0004
 04 10 13  2 49 30.0000000  0  7G 5G17G24G 4G10G 9G 7
  21196216.7994  -10655936.03749  -8270512.47047  21196216.2654   21196219.8504
       244.0004        209.0004
  21658079.8074  -15066264.06649 -11218560.60147  21658079.4644   21658084.0684
       239.0004        201.0004
  20320761.8514  -12058696.07549  -9357117.79447  20320761.4904   20320765.9694
       244.0004        212.0004
  21518669.4204    2762788.48549   2168216.37447  21518669.5854   21518673.4954
       240.0004        200.0004
  24509994.8424   -1796569.15549  -1352221.44745  24509994.2644   24510000.2014
       210.0004        144.0004
  21920751.6634    2609274.57749   2066823.13447  21920751.2304   21920755.6554
       236.0004        195.0004
  23821401.6004   10939856.21249   8536841.62345  23821400.6084   23821405.3084
       214.0004        151.0004
 04 10 13  2 50  0.0000000  0  7G 5G17G24G 4G10G 9G 7
  21184162.7034  -10719280.74849  -8319871.96447  21184162.0004   21184166.0984
       245.0004        210.0004
  21645850.9194  -15130527.79549 -11268636.20247  21645850.5394   21645855.1264
       239.0004        202.0004
  20320946.7664  -12057724.11649  -9356360.41248  20320946.6114   20320951.0614
       244.0004        213.0004
  21532203.4694    2833910.23249   2223635.91347  21532203.8354   21532207.4904
       241.0004        201.0004
  24490663.7344   -1898154.99249  -1431379.13945  24490662.5074   24490667.9364
       210.0004        145.0004
  21933519.9704    2676372.51649   2119107.23947  21933519.6604   21933524.4124
       236.0004        195.0004
  23833441.5294   11003126.38749   8586143.03545  23833440.7224   23833445.1524
       216.0004        152.0004
 04 10 13  2 50 30.0000000  0  7G 5G17G24G 4G10G 9G 7
  21172168.8914  -10782308.54449  -8368984.51647  21172168.2334   21172172.0954
       245.0004        211.0004
  21633692.6564  -15194420.13049 -11318422.40647  21633692.2474   21633696.7504
       240.0004        201.0004
  20321232.9474  -12056220.40649  -9355188.67648  20321232.7334   20321237.4264
       244.0004        214.0004
  21545809.7884    2905411.68749   2279351.32947  21545809.9764   21545813.3994
       241.0004        201.0004
  24471317.2204   -1999821.13949  -1510599.42945  24471316.7804   24471322.1594
       209.0004        145.0004
  21946366.5134    2743881.42549   2171711.58447  21946366.4874   21946370.8164
       235.0004        194.0004
  23845487.1554   11066426.67049   8635467.90545  23845486.6834   23845491.2784
       216.0004        153.0004
 04 10 13  2 51  0.0000000  0  7G 5G17G24G 4G10G 9G 7
  21160236.1254  -10845015.68949  -8417847.20347  21160235.6544   21160239.4324
       245.0004        211.0004
  21621605.5364  -15257938.17149 -11367916.96347  21621604.9444   21621609.7604
       240.0004        201.0004
  20321620.5384  -12054183.86049  -9353601.73748  20321620.1854   20321624.7994
       246.0004        214.0004
  21559488.1564    2977291.79849   2335361.80747  21559488.4874   21559491.8754
       241.0004        201.0004
  24451956.4304   -2101563.16449  -1589878.83545  24451954.8944   24451961.4604
       209.0004        145.0004
  21959290.9804    2811800.10749   2224635.22647  21959290.8094   21959295.3744
       235.0004        194.0004
  23857538.7724   11129758.67249   8684817.49645  23857537.9204   23857542.9254
       216.0004        153.0004
 04 10 13  2 51 30.0000000  0  7G 5G17G24G 4G10G 9G 7
  21148364.2664  -10907402.82649  -8466460.54047  21148363.6624   21148367.6034
       244.0004        210.0004
  21609589.3864  -15321083.70849 -11417121.25847  21609588.9334   21609593.1474
       240.0004        200.0004
  20322108.6654  -12051618.41349  -9351602.66948  20322108.2774   20322113.1474
       246.0004        214.0004
  21573237.4894    3049545.08749   2391663.07447  21573237.6584   21573241.1904
       240.0004        200.0004
  24432581.0224   -2203381.18049  -1669217.47245  24432579.9974   24432585.9474
       207.0004        145.0004
  21972292.3914    2880123.11449   2277873.92847  21972292.0594   21972296.6574
       235.0004        194.0004
  23869595.9154   11193119.81949   8734189.78645  23869595.2734   23869599.8574
       215.0004        153.0004
 04 10 13  2 52  0.0000000  0  7G 5G17G24G 4G10G 9G 7
  21136553.8584  -10969466.84149  -8514822.09747  21136553.0694   21136557.2574
       243.0004        209.0004
  21597644.5344  -15383854.36049 -11466033.43647  21597644.0624   21597648.7234
       239.0004        200.0004
  20322697.5444  -12048523.76849  -9349191.24648  20322696.8004   20322701.9694
       245.0004        214.0004
  21587057.5884    3122170.09649   2448253.98947  21587058.0614   21587061.1324
       240.0004        199.0004
  24413191.7994   -2305271.24149  -1748612.25445  24413190.5604   24413197.4504
       208.0004        145.0004
  21985370.3634    2948848.34149   2331426.04247  21985370.2054   21985374.2724
       234.0004        193.0004
  23881658.7514   11256511.25849   8783585.67945  23881658.5924   23881662.5664
       215.0004        152.0004
 04 10 13  2 52 30.0000000  0  7G 5G17G24G 4G10G 9G 7
  21124805.2374  -11031205.67149  -8562930.26347  21124804.5924   21124808.6604
       243.0004        208.0004
  21585771.1414  -15446249.28049 -11514652.82647  21585770.1224   21585775.0974
       238.0004        199.0004
  20323386.8114  -12044901.23449  -9346368.48248  20323386.2924   20323391.2824
       245.0004        214.0004
  21600947.8304    3195163.56949   2505132.02747  21600947.9254   21600951.5784
       240.0004        198.0004
  24393789.4394   -2407230.73149  -1828061.14345  24393788.8314   24393794.5114
       209.0004        146.0004
  21998524.2594    3017972.57249   2385289.06947  21998523.9894   21998528.4564
       233.0004        193.0004
  23893727.4664   11319932.98949   8833005.17945  23893726.4374   23893730.3164
       214.0004        152.0004
 04 10 13  2 53  0.0000000  0  7G 5G17G24G 4G10G 9G 7
  21113118.8654  -11092617.72149  -8610783.79847  21113118.2624   21113122.2634
       242.0004        206.0004
  21573969.3054  -15508267.70649 -11562978.85147  21573968.4924   21573973.0834
       239.0004        199.0004
  20324176.2934  -12040752.31049  -9343135.54648  20324176.1564   20324180.7454
       246.0004        214.0004
  21614907.5834    3268522.58949   2562294.91047  21614907.3714   21614911.1664
       239.0004        197.0004
  24374374.5084   -2509257.09849  -1907562.14145  24374374.1224   24374379.0834
       210.0004        147.0004
  22011753.5114    3087492.60949   2439460.51347  22011753.4704   22011757.7244
       233.0004        192.0004
  23905801.8954   11383384.42849   8882447.83845  23905801.1184   23905804.9844
       212.0004        152.0004
 04 10 13  2 53 30.0000000  0  7G 5G17G24G 4G10G 9G 7
  21101495.0324  -11153701.22849  -8658381.32047  21101494.3494   21101498.3914
       241.0004        204.0004
  21562239.3484  -15569908.99149 -11611010.99847  21562238.9334   21562243.3814
       239.0004        200.0004
  20325065.7434  -12036078.28349  -9339493.43748  20325065.5804   20325070.0914
       246.0004        215.0004
  21628936.2684    3342244.06749   2619740.22047  21628936.2194   21628939.6844
       237.0004        196.0004
  24354947.4074   -2611347.97649  -1987113.39245  24354945.9824   24354952.0824
       209.0004        147.0004
  22025057.4784    3157405.22549   2493937.87547  22025057.1804   22025061.8474
       234.0004        192.0004
  23917882.0404   11446865.41749   8931913.52745  23917881.7654   23917885.9174
       211.0004        151.0004
 04 10 13  2 54  0.0000000  0  7G 5G17G24G 4G10G 9G 7
  21089934.3354  -11214452.99649  -8705720.34947  21089933.7534   21089937.5384
       240.0004        202.0004
  21550581.6324  -15631170.97549 -11658747.59747  21550580.9334   21550585.1954
       239.0004        200.0004
  20326055.1034  -12030879.17349  -9335442.17448  20326054.7454   20326059.4974
       245.0004        214.0004
  21643033.6134    3416326.46449   2677466.76647  21643033.4204   21643037.2574
       237.0004        195.0004
  24335508.4514   -2713499.65549  -2066712.04045  24335507.2894   24335513.0714
       209.0004        147.0004
  22038435.7574    3227708.56349   2548719.68747  22038435.6284   22038439.8354
       233.0004        192.0004
  23929967.8904   11510377.17449   8981403.21345  23929966.8194   23929971.5514
       209.0004        150.0004
 04 10 13  2 54 30.0000000  0  7G 5G17G24G 4G10G 9G 7
  21078437.2604  -11274870.33449  -8752798.78547  21078436.5024   21078440.3844
       240.0004        201.0004
  21538996.2504  -15692052.17549 -11706187.48047  21538995.2444   21538999.9554
       238.0004        199.0004
  20327144.2704  -12025155.33549  -9330982.03248  20327143.9214   20327148.5844
       245.0004        214.0004
  21657199.1954    3490767.29049   2735472.59647  21657198.9434   21657202.7464
       237.0004        195.0004
  24316058.6204   -2815708.53649  -2146355.24245  24316057.4444   24316063.5544
       209.0004        147.0004
  22051887.9324    3298400.18849   2603804.05847  22051887.5564   22051892.0464
       234.0004        193.0004
  23942059.6954   11573920.14449   9030917.20045  23942059.2474   23942063.2454
       207.0004        148.0004
 04 10 13  2 55  0.0000000  0  7G 5G17G24G 4G10G 9G 7
  21067004.1884  -11334951.44649  -8799615.21747  21067003.6474   21067007.2544
       242.0004        201.0004
  21527483.4274  -15752551.79049 -11753330.01347  21527482.3444   21527487.2974
       237.0004        199.0004
  20328332.9564  -12018908.49549  -9326114.35048  20328332.5084   20328337.3064
       245.0004        214.0004
  21671432.4304    3565563.45749   2793755.32447  21671432.4004   21671436.1324
       237.0004        195.0004
  24296598.4004   -2917972.27549  -2226041.18445  24296597.1364   24296603.2334
       209.0004        147.0004
  22065413.3054    3369476.55549   2659188.24047  22065413.1424   22065417.1734
       234.0004        193.0004
  23954157.3494   11637494.08849   9080455.33645  23954156.7124   23954160.3614
       208.0004        146.0004
 04 10 13  2 55 30.0000000  0  7G 5G17G24G 4G10G 9G 7
  21055635.4004  -11394694.93549  -8846168.57847  21055634.4384   21055638.6394
       243.0004        203.0004
  21516043.2894  -15812669.44349 -11800174.90647  21516042.3544   21516047.7334
       236.0004        199.0004
  20329620.8734  -12012140.26849  -9320840.39548  20329620.5674   20329625.4164
       245.0004        214.0004
  21685732.6994    3640711.60149   2852312.31647  21685733.2494   21685736.2864
       237.0004        195.0004
  24277128.2164   -3020288.66249  -2305768.15045  24277127.6844   24277133.2444
       211.0004        148.0004
  22079011.2494    3440934.21449   2714869.52647  22079011.0094   22079015.5354
       234.0004        193.0004
  23966260.8874   11701098.45949   9130017.16845  23966260.2334   23966264.1864
       208.0004        146.0004
 04 10 13  2 56  0.0000000  0  7G 5G17G24G 4G10G 9G 7
  21044331.3194  -11454098.25749  -8892456.87147  21044330.4634   21044334.6284
       244.0004        204.0004
  21504676.1784  -15872403.46049 -11846720.86747  21504675.5134   21504680.8684
       236.0004        200.0004
  20331007.8754  -12004851.51749  -9315160.83648  20331007.6464   20331012.5404
       245.0004        214.0004
  21700099.5504    3716209.53049   2911141.87347  21700099.8144   21700103.7814
       238.0004        195.0004
  24257648.6764   -3122654.16449  -2385533.38645  24257648.3104   24257653.1204
       213.0004        149.0004
  22092681.3054    3512770.84949   2770846.12047  22092681.3054   22092684.9344
       233.0004        192.0004
  23978370.4584   11764734.02049   9179603.29545  23978369.8704   23978375.4284
       210.0004        146.0004
 04 10 13  2 56 30.0000000  0  7G 5G17G24G 4G10G 9G 7
  21033092.3864  -11513159.02249  -8938478.24347  21033091.6644   21033095.8424
       245.0004        207.0004
  21493382.3844  -15931752.89249 -11892967.15447  21493382.2114   21493386.4394
       238.0004        201.0004
  20332493.7684  -11997043.14249  -9309076.38048  20332493.6884   20332498.1604
       246.0004        214.0004
  21714532.4014    3792054.69449   2970242.00847  21714532.6324   21714536.2074
       237.0004        196.0004
  24238160.3034   -3225065.70049  -2465334.51345  24238159.4314   24238165.1794
       213.0004        152.0004
  22106422.9024    3584983.53049   2827115.72647  22106422.8024   22106427.0644
       233.0004        191.0004
  23990486.0094   11828400.96649   9229213.89745  23990484.6634   23990489.1814
       210.0004        145.0004
 04 10 13  2 57  0.0000000  0  7G 5G17G24G 4G10G 9G 7
  21021919.1074  -11571874.96749  -8984230.92047  21021918.4894   21021922.6874
       246.0004        209.0004
  21482162.1654  -15990716.24949 -11938912.60547  21482161.9394   21482166.0404
       239.0004        201.0004
  20334078.4904  -11988715.62149  -9302587.39548  20334078.3604   20334082.8474
       246.0004        214.0004
  21729030.8974    3868244.87249   3029610.97747  21729030.9554   21729034.9244
       238.0004        196.0004
  24218663.8624   -3327520.27949  -2545169.16845  24218663.1184   24218668.2794
       214.0004        153.0004
  22120235.5594    3657569.54249   2883676.25047  22120235.5304   22120239.9044
       233.0004        190.0004
  24002607.6174   11892099.88749   9278849.38945  24002607.1014   24002612.5774
       211.0004        144.0004
 04 10 13  2 57 30.0000000  0  7G 5G17G24G 4G10G 9G 7
  21010811.4354  -11630246.09249  -9029714.90647  21010811.0284   21010814.8704
       247.0004        212.0004
  21471015.1534  -16049294.69049 -11984558.12147  21471014.5164   21471019.0904
       239.0004        201.0004
  20335761.3534  -11979872.45949  -9295696.60748  20335761.3054   20335765.6244
       247.0004        215.0004
  21743594.1474    3944775.22549   3089245.01647  21743593.9434   21743597.5714
       238.0004        196.0004
  24199159.3324   -3430017.04049  -2625036.70945  24199158.7414   24199164.5574
       213.0004        154.0004
  22134118.3414    3730523.97649   2940523.84847  22134118.3494   22134122.5654
       233.0004        190.0004
  24014734.9634   11955828.69649   9328508.16745  24014735.5654   24014739.3724
       212.0004        143.0004
 04 10 13  2 58  0.0000000  0  7G 5G17G24G 4G10G 9G 7
  20999770.6444  -11688265.95049  -9074925.17048  20999770.1824   20999773.9914
       247.0004        214.0004
  21459942.3794  -16107482.83449 -12029899.51147  21459941.6524   21459946.4354
       239.0004        202.0004
  20337542.9144  -11970510.42949  -9288401.50548  20337542.6724   20337546.9104
       246.0004        214.0004
  21758222.4094    4021647.12149   3149145.19847  21758222.4364   21758226.3934
       238.0004        197.0004
  24179648.2464   -3532548.73049  -2704931.46245  24179647.4384   24179652.5624
       213.0004        155.0004
  22148071.5244    3803847.94349   2997659.40147  22148071.7394   22148075.5714
       234.0004        190.0004
  24026868.7134   12019591.80449   9378193.66845  24026866.1874   24026873.2094
       211.0004        141.0004
 04 10 13  2 58 30.0000000  0  7G 5G17G24G 4G10G 9G 7
  20988796.5294  -11745935.54949  -9119862.50048  20988796.0394   20988799.8364
       247.0004        215.0004
  21448943.3084  -16165282.99949 -12074938.57847  21448942.6864   21448947.6484
       239.0004        203.0004
  20339422.2944  -11960633.98949  -9280705.56348  20339421.8614   20339426.1994
       245.0004        213.0004
  21772914.5814    4098854.77149   3209307.00447  21772914.8154   21772918.3344
       238.0004        197.0004
  24160130.5074   -3635115.46949  -2784853.52445  24160129.5704   24160135.3174
       214.0004        155.0004
  22162093.8774    3877535.34249   3055078.14747  22162093.5424   22162098.2464
       234.0004        190.0004
  24039008.3284   12083386.29649   9427903.62945  24039005.9824   24039012.6654
       205.0004        139.0004
 04 10 13  2 59  0.0000000  0  7G 5G17G24G 4G10G 9G 7
  20977889.4964  -11803252.28849  -9164524.87748  20977888.7504   20977892.9284
       246.0004        215.0004
  21438018.4084  -16222693.60049 -12119674.08347  21438017.9794   21438022.7274
       240.0004        205.0004
  20341399.4514  -11950243.77749  -9272609.28648  20341399.0824   20341403.1554
       244.0004        213.0004
  21787670.1644    4176395.91449   3269728.67247  21787670.1504   21787674.0064
       237.0004        197.0004
  24140606.7134   -3737713.76349  -2864800.17545  24140605.9464   24140611.0184
       213.0004        155.0004
  22176184.8054    3951583.70749   3112778.15847  22176184.2974   22176188.5104
       232.0004        189.0004
  24051153.9274   12147212.81249   9477638.53645  24051152.7934   24051159.9784
       201.0004        138.0004
 04 10 13  2 59 30.0000000  0  7G 5G17G24G 4G10G 9G 7
  20967050.0944  -11860213.39149  -9208910.13048  20967049.3344   20967053.5294
       244.0004        214.0004
  21427168.0784  -16279712.88849 -12164104.67447  21427167.7404   21427172.2124
       241.0004        206.0004
  20343474.2794  -11939340.34249  -9264113.08948  20343474.0064   20343478.3004
       244.0004        213.0004
  21802488.8224    4254268.67349   3330408.74347  21802488.8014   21802492.5304
       238.0004        197.0004
  24121077.6054   -3840339.83049  -2944768.46445  24121076.8364   24121082.1244
       214.0004        155.0004
  22190343.8304    4025990.69749   3170757.61747  22190343.3754   22190348.1044
       232.0004        188.0004
  24063305.7614   12211072.23849   9527399.09845  24063306.5004   24063309.2174
       206.0004        136.0004
 04 10 13  3  0  0.0000000  0  7G 5G17G24G 4G10G 9G 7
  20956278.8074  -11916816.68649  -9253016.56648  20956278.0614   20956282.3514
       243.0004        213.0004
  21416392.2854  -16336340.11849 -12208229.77447  21416391.7314   21416396.4714
       241.0004        206.0004
  20345646.5614  -11927924.83249  -9255217.87748  20345646.2724   20345650.7884
       245.0004        214.0004
  21817370.0854    4332470.25749   3391345.04347  21817370.1094   21817374.0104
       238.0004        197.0004
  24101543.6284   -3942991.10449  -3024756.40345  24101542.6894   24101547.0864
       213.0004        155.0004
  22204570.6644    4100753.32549   3229014.20446  22204570.4764   22204574.9594
       232.0004        187.0004
  24075464.0034   12274964.62849   9577185.34545  24075462.4544   24075468.4864
       202.0004        135.0004
 04 10 13  3  0 30.0000000  0  7G 5G17G24G 4G10G 9G 7
  20945575.6654  -11973061.77549  -9296843.87947  20945575.1404   20945579.1124
       242.0004        211.0004
  21405691.0284  -16392575.98149 -12252049.90747  21405690.2194   21405695.0384
       240.0004        205.0004
  20347915.7764  -11916000.20249  -9245925.94848  20347915.9414   20347919.9184
       245.0004        215.0004
  21832313.0894    4410996.16149   3452534.05547  21832313.5044   21832316.9384
       238.0004        197.0004
  24082005.1294   -4045666.23149  -3104762.93445  24082004.3454   24082009.4914
       213.0004        155.0004
  22218864.3884    4175866.99449   3287544.32846  22218863.7714   22218868.5264
       232.0004        187.0004
  24087628.3634   12338888.51649   9626996.15345  24087626.1134   24087634.5594
       202.0004        135.0004
 04 10 13  3  1  0.0000000  0  7G 5G17G24G 4G10G 9G 7
  20934941.4574  -12028945.01549  -9340389.22947  20934940.8724   20934944.6594
       241.0004        210.0004
  21395064.5484  -16448417.94349 -12295563.09547  21395063.2964   21395068.3284
       238.0004        204.0004
  20350282.0554  -11903565.85449  -9236236.83548  20350282.0234   20350285.9944
       246.0004        215.0004
  21847317.6204    4489845.29449   3513974.93847  21847317.6974   21847321.1584
       237.0004        196.0004
  24062463.0184   -4148360.25849  -3184784.20545  24062462.2544   24062467.3824
       213.0004        154.0004
  22233224.5394    4251330.29549   3346346.89846  22233223.9494   22233228.5254
       230.0004        186.0004
  24099798.9634   12402845.77349   9676832.97245  24099797.4774   24099803.9954
       202.0004        134.0004
 04 10 13  3  1 30.0000000  0  7G 5G17G24G 4G10G 9G 7
  20924376.6614  -12084463.30949  -9383650.21547  20924376.0364   20924380.1014
       242.0004        209.0004
  21384513.2924  -16503864.20949 -12338767.95047  21384512.3104   21384517.1644
       239.0004        203.0004
  20352745.0514  -11890622.69549  -9226151.25248  20352744.4884   20352748.9554
       244.0004        215.0004
  21862383.3384    4569016.00549   3575666.39647  21862383.2274   21862387.0054
       236.0004        195.0004
  24042917.9964   -4251069.73949  -3264817.50545  24042916.8354   24042922.1594
       212.0004        153.0004
  22247650.7274    4327140.94949   3405420.12146  22247650.1724   22247654.8904
       230.0004        185.0004
  24111975.9304   12466837.29849   9726696.47245  24111973.7584   24111980.0354
       196.0004        133.0004
 04 10 13  3  2  0.0000000  0  7G 5G17G24G 4G10G 9G 7
  20913881.4754  -12139615.88549  -9426626.22647  20913880.8424   20913885.0054
       243.0004        208.0004
  21374037.4354  -16558914.99649 -12381664.65147  21374036.8424   21374041.5024
       240.0004        204.0004
  20355304.3124  -11877173.16749  -9215671.09348  20355303.8164   20355308.3364
       244.0004        214.0004
  21877509.4434    4648504.25749   3637605.29147  21877509.6754   21877513.1754
       235.0004        194.0004
  24023370.5494   -4353792.64149  -3344861.26845  24023369.4374   24023374.4014
       214.0004        153.0004
  22262142.2904    4403294.64549   3464760.65446  22262142.7994   22262146.6044
       231.0004        186.0004
  24124159.3874   12530862.23349   9776586.02044  24124159.7224   24124164.7824
       197.0004        131.0004
 04 10 13  3  2 30.0000000  0  7G 5G17G24G 4G10G 9G 7
  20903456.3294  -12194400.26649  -9469315.34147  20903455.6194   20903459.5344
       244.0004        208.0004
  21363637.1614  -16613569.31149 -12424252.41047  21363636.7424   21363641.1894
       240.0004        204.0004
  20357959.7694  -11863218.25849  -9204797.13148  20357959.4384   20357964.0144
       244.0004        214.0004
  21892695.4154    4728307.56349   3699789.67847  21892695.3624   21892699.4244
       234.0004        193.0004
  24003821.1664   -4456525.98049  -3424913.15645  24003820.1814   24003824.7514
       213.0004        153.0004
  22276698.7304    4479788.67249   3524366.37646  22276698.5334   22276702.8324
       231.0004        186.0004
  24136349.4264   12594920.83149   9826501.79744  24136349.8834   24136353.1384
       200.0004        130.0004
 04 10 13  3  3  0.0000000  0  7G 5G17G24G 4G10G 9G 7
  20893101.6204  -12248814.48349  -9511716.02847  20893100.9074   20893104.7764
       246.0004        208.0004
  21353312.3494  -16667826.56149 -12466530.77147  21353311.5904   21353316.2634
       240.0004        204.0004
  20360711.1804  -11848759.55849  -9193530.60248  20360711.1434   20360715.4014
       245.0004        215.0004
  21907940.8434    4808423.07849   3762217.35447  21907940.9184   21907944.8374
       234.0004        192.0004
  23984270.3344   -4559266.64749  -3504970.77145  23984269.3364   23984274.2994
       214.0004        153.0004
  22291319.2504    4556619.81549   3584234.79646  22291318.7214   22291322.8194
       230.0004        186.0004
  24148545.9654   12659013.11449   9876443.81244  24148542.9524   24148551.5254
       197.0004        127.0004
 04 10 13  3  3 30.0000000  0  7G 5G17G24G 4G10G 9G 7
  20882817.8134  -12302856.44849  -9553826.65547  20882817.2464   20882820.7554
       247.0004        208.0004
  21343063.3024  -16721685.44949 -12508498.71447  21343062.5854   21343067.3544
       239.0004        204.0004
  20363558.2974  -11833798.23049  -9181872.40948  20363558.0324   20363562.3554
       245.0004        215.0004
  21923245.1914    4888848.33149   3824886.37647  21923245.2934   21923249.2794
       234.0004        191.0004
  23964718.7284   -4662011.34249  -3585031.51845  23964717.7114   23964722.1584
       213.0004        152.0004
  22306003.2534    4633785.38549   3644363.80046  22306003.0954   22306007.4284
       230.0004        185.0004
  24160748.9924   12723139.67649   9926412.52644  24160749.8114   24160753.4594
       196.0004        124.0004
 04 10 13  3  4  0.0000000  0  7G 5G17G24G 4G10G 9G 7
  20872605.3174  -12356523.61049  -9595645.23347  20872605.0564   20872608.1594
       249.0004        209.0004
  21332890.2574  -16775144.89249 -12550155.39447  21332889.4584   21332894.2594
       240.0004        205.0004
  20366500.8554  -11818335.16949  -9169823.25848  20366500.4354   20366504.7634
       244.0004        214.0004
  21938608.1464    4969580.95249   3887794.90847  21938608.4274   21938612.0734
       234.0004        190.0004
  23945166.9244   -4764756.46649  -3665092.61245  23945166.2064   23945170.3504
       213.0004        151.0004
  22320750.3564    4711282.42549   3704751.09046  22320750.4864   22320754.7944
       230.0004        186.0004
  24172958.4154   12787301.09649   9976408.46044  24172955.3514   24172964.7234
       195.0004        121.0004
 04 10 13  3  4 30.0000000  0  7G 5G17G24G 4G10G 9G 7
  20862464.5104  -12409814.50249  -9637170.61247  20862464.3064   20862467.3914
       249.0004        210.0004
  21322793.3254  -16828204.55749 -12591500.57047  21322792.5684   21322797.5504
       240.0004        206.0004
  20369538.4194  -11802372.36149  -9157384.69948  20369537.9624   20369542.5994
       244.0004        214.0004
  21954029.0184    5050617.96349   3950940.63047  21954029.3924   21954032.1704
       235.0004        190.0004
  23925615.4074   -4867499.68849  -3745152.24045  23925614.2224   23925618.9114
       209.0004        149.0004
  22335559.9744    4789107.41649   3765393.92946  22335559.6944   22335564.5914
       232.0004        187.0004
  24185174.2984   12851496.81348  10026431.05844  24185176.7814   24185179.6654
       191.0004        117.0004
 04 10 13  3  5  0.0000000  0  7G 5G17G24G 4G10G 9G 7
  20852395.7144  -12462726.81449  -9678400.98247  20852395.2074   20852398.8304
       250.0004        211.0004
  21312772.6634  -16880863.31449 -12632533.34547  21312771.8254   21312777.0034
       241.0004        206.0004
  20372670.8944  -11785910.96649  -9144557.63348  20372670.8234   20372675.0334
       244.0004        214.0004
  21969507.3144    5131956.50749   4014321.31547  21969507.6764   21969510.8104
       235.0004        189.0004
  23906064.7954   -4970237.80649  -3825207.88545  23906062.8374   23906068.7464
       211.0004        146.0004
  22350431.5444    4867257.71049   3826290.25347  22350431.4384   22350435.9574
       233.0004        188.0004
  24197396.7474   12915727.41148  10076480.83144  24197395.4824   24197402.1824
       190.0004        117.0004
 04 10 13  3  5 30.0000000  0  7G 5G17G24G 4G10G 9G 7
  20842399.2694  -12515258.32949  -9719334.62847  20842398.4484   20842402.3644
       248.0004        212.0004
  21302828.5264  -16933120.34149 -12673253.08547  21302828.1294   21302832.4704
       241.0004        207.0004
  20375898.0154  -11768952.38549  -9131343.15148  20375897.9094   20375902.0724
       244.0004        215.0004
  21985042.4774    5213594.19049   4077935.09147  21985042.5924   21985045.8794
       235.0004        189.0004
  23886515.7844   -5072967.66649  -3905257.11245  23886514.9604   23886518.8054
       211.0004        145.0004
  22365364.4974    4945730.25149   3887437.67947  22365364.8204   22365368.3814
       233.0004        188.0004
  24209626.0544   12979993.31948  10126558.15444  24209624.9754   24209628.6514
       194.0004        115.0004
 04 10 13  3  6  0.0000000  0  7G 5G17G24G 4G10G 9G 7
  20832475.5594  -12567407.06149  -9759969.99747  20832474.7184   20832478.7404
       247.0004        212.0004
  21292960.9824  -16984975.06049 -12713659.34147  21292960.7904   21292964.9594
       242.0004        208.0004
  20379219.4294  -11751498.04349  -9117742.35948  20379218.9504   20379223.6084
       244.0004        214.0004
  22000633.9424    5295528.10849   4141779.70247  22000634.2284   22000637.0324
       236.0004        189.0004
  23866969.0864   -5175686.37149  -3985297.62945  23866967.9224   23866973.7184
       210.0004        144.0004
  22380358.1444    5024521.58649   3948833.50747  22380357.8014   22380362.1764
       233.0004        188.0004
  24221862.3074   13044294.41049  10176662.90344  24221864.6024   24221867.6954
       197.0004        117.0004
 04 10 13  3  6 30.0000000  0  7G 5G17G24G 4G10G 9G 7
  20822625.1734  -12619171.02249  -9800305.53447  20822624.6474   20822628.5664
       246.0004        212.0004
  21283170.2424  -17036426.53649 -12753751.38147  21283169.8384   21283173.8024
       242.0004        208.0004
  20382634.9044  -11733549.28749  -9103756.29648  20382634.5764   20382639.1634
       245.0004        214.0004
  22016281.2464    5377755.44549   4205852.95847  22016280.9664   22016284.1784
       236.0004        190.0004
  23847425.0874   -5278390.72749  -4065326.96445  23847423.4024   23847429.1954
       210.0004        145.0004
  22395411.7804    5103628.87449   4010475.54847  22395411.3994   22395415.8254
       232.0004        188.0004
  24234105.4474   13108630.93149  10226795.21844  24234103.8094   24234111.5444
       198.0004        119.0004
 04 10 13  3  7  0.0000000  0  7G 5G17G24G 4G10G 9G 7
  20812848.5124  -12670547.56749  -9840339.18547  20812847.9054   20812851.8794
       245.0004        212.0004
  21273456.3604  -17087473.81149 -12793528.46847  21273455.8134   21273459.9864
       243.0004        208.0004
  20386144.3014  -11715107.37249  -9089385.96048  20386144.1264   20386148.5524
       245.0004        214.0004
  22031983.9984    5460274.06549   4270153.18347  22031984.2754   22031987.5314
       236.0004        190.0004
  23827884.3134   -5381077.23249  -4145342.41345  23827883.4404   23827888.3054
       210.0004        145.0004
  22410524.8984    5183049.23349   4072361.52947  22410524.3874   22410529.2014
       232.0004        188.0004
  24246355.4384   13173003.50049  10276955.63944  24246356.2374   24246357.8084
       199.0004        120.0004
 04 10 13  3  7 30.0000000  0  7G 5G17G24G 4G10G 9G 7
  20803145.8694  -12721535.29549  -9880069.85247  20803145.0924   20803149.1184
       245.0004        212.0004
  21263819.3354  -17138116.54249 -12832990.31847  21263818.6254   21263823.0404
       242.0004        208.0004
  20389747.1684  -11696174.20149  -9074632.82848  20389746.8524   20389750.9444
       245.0004        214.0004
  22047741.6264    5543080.79849   4334677.91147  22047741.8164   22047745.0354
       236.0004        190.0004
  23808347.4084   -5483743.24849  -4225341.89745  23808346.2654   23808352.6034
       210.0004        145.0004
  22425696.9854    5262779.33249   4134488.87347  22425697.1834   22425700.9534
       232.0004        188.0004
  24258612.0074   13237411.83449  10327143.90344  24258610.0744   24258617.7374
       195.0004        118.0004
 04 10 13  3  8  0.0000000  0  7G 5G17G24G 4G10G 9G 7
  20793517.7444  -12772131.30049  -9919495.28147  20793517.0784   20793521.0614
       245.0004        212.0004
  21254259.6624  -17188352.97949 -12872135.57947  21254258.9634   21254263.4414
       243.0004        209.0004
  20393443.3694  -11676750.41249  -9059497.39848  20393443.2334   20393447.3494
       245.0004        214.0004
  22063553.7464    5626173.83449   4399425.72747  22063553.9194   22063557.5394
       236.0004        190.0004
  23788815.3284   -5586384.94649  -4305322.42745  23788814.6364   23788820.5724
       211.0004        145.0004
  22440927.7284    5342816.84149   4196855.75147  22440927.8394   22440932.0204
       233.0004        188.0004
  24270875.4864   13301857.07449  10377360.92544  24270874.8534   24270877.7984
       196.0004        116.0004
 04 10 13  3  8 30.0000000  0  7G 5G17G24G 4G10G 9G 7
  20783964.0294  -12822336.38249  -9958616.10548  20783963.4714   20783967.3104
       245.0004        213.0004
  21244776.8504  -17238185.31549 -12910965.96247  21244775.9884   21244780.4744
       242.0004        209.0004
  20397232.1534  -11656840.30749  -9043983.02548  20397231.8904   20397236.4424
       245.0004        214.0004
  22079419.3024    5709547.66549   4464392.34247  22079419.4164   22079422.9394
       234.0004        190.0004
  23769288.0644   -5689001.91149  -4385283.68445  23769286.3954   23769291.6164
       211.0004        145.0004
  22456215.8504    5423155.88449   4259457.59447  22456215.6654   22456219.5574
       233.0004        188.0004
  24283145.6894   13366336.71548  10427604.75144  24283144.2194   24283149.7124
       192.0004        114.0004
 04 10 13  3  9  0.0000000  0  7G 5G17G24G 4G10G 9G 7
  20774485.7314  -12872145.34849  -9997428.26848  20774485.1434   20774489.1384
       247.0004        214.0004
  21235371.5974  -17287610.03749 -12949478.71347  21235370.5394   21235375.0864
       242.0004        208.0004
  20401113.7344  -11636442.45649  -9028088.59148  20401113.6034   20401118.0154
       245.0004        214.0004
  22095338.2534    5793202.43549   4529577.87447  22095338.3964   22095342.3224
       233.0004        189.0004
  23749766.4584   -5791588.30749  -4465221.10145  23749765.9494   23749770.1764
       212.0004        145.0004
  22471561.2734    5503796.15549   4322294.16847  22471561.8014   22471565.5764
       233.0004        188.0004
  24295423.2164   13430853.71448  10477877.69944  24295425.2474   24295431.4744
       185.0004        108.0004
 04 10 13  3  9 30.0000000  0  7G 5G17G24G 4G10G 9G 7
  20765083.0664  -12921556.55149 -10035930.49148  20765082.3334   20765086.6074
       247.0004        214.0004
  21226043.9474  -17336626.53649 -12987673.36547  21226042.9164   21226047.3474
       239.0004        206.0004
  20405087.8254  -11615558.75249  -9011815.56248  20405087.4124   20405092.0324
       245.0004        215.0004
  22111310.0984    5877135.35049   4594980.14047  22111310.3184   22111313.9724
       233.0004        188.0004
  23730251.1704   -5894141.07849  -4545132.34145  23730250.1504   23730255.0374
       211.0004        146.0004
  22486963.3504    5584734.44549   4385362.96047  22486962.6804   22486967.3564
       232.0004        188.0004
  24307707.7114   13495407.98258  10528179.72444                  24307710.0524
       182.0004        104.0004
 04 10 13  3 10  0.0000000  0  7G 5G17G24G 4G10G 9G 7
  20755756.4454  -12970567.91749 -10074121.16948  20755755.8794   20755759.9934
       248.0004        214.0004
  21216794.1294  -17385234.19149 -13025549.43847  21216793.3304   21216797.6244
       240.0004        206.0004
  20409154.0164  -11594190.50549  -8995164.98148  20409153.4374   20409158.3814
       244.0004        215.0004
  22127334.3884    5961343.67549   4660597.00447  22127334.4654   22127338.2774
       233.0004        188.0004
  23710742.9644   -5996656.85049  -4625014.73945  23710742.7144   23710746.6344
       211.0004        147.0004
  22502421.4944    5665967.94949   4448661.77146  22502420.3394   22502425.9654
       230.0004        186.0004
  24319999.1814   13560000.18858  10578511.37244                  24320001.2434
       181.0004        104.0004
 04 10 13  3 10 30.0000000  0  8G30G 5G17G24G 4G10G 9G 7
                  -1611253.37159  -1217132.93844                  22668201.2334
       209.0004        130.0004
  20746506.3384  -13019177.49849 -10111998.76648  20746505.9634   20746509.6624
       247.0004        214.0004
  21207622.2754  -17433432.36949 -13063106.43847  21207621.4794   21207626.2734
       240.0004        206.0004
  20413312.0194  -11572339.51349  -8978138.23048  20413311.6484   20413316.5324
       244.0004        214.0004
  22143410.6604    6045824.69649   4726426.36946  22143410.9564   22143414.8704
       232.0004        187.0004
  23691242.7324   -6099132.49249  -4704865.86245  23691243.1344   23691247.1074
       213.0004        149.0004
  22517934.9214    5747492.99049   4512187.76346  22517934.4184   22517938.9524
       229.0004        185.0004
  24332298.0744   13624630.39158  10628872.49244                  24332297.7714
       186.0004        105.0004
 04 10 13  3 11  0.0000000  0  8G30G 5G17G24G 4G10G 9G 7
  22650539.6564   -1704056.75749  -1289447.21245  22650540.5074   22650543.8294
       208.0004        141.0004
  20737333.0864  -13067383.50549 -10149561.89548  20737332.6734   20737336.1374
       248.0004        213.0004
  21198528.4354  -17481220.68349 -13100344.07047  21198527.5754   21198532.4034
       240.0004        206.0004
  20417561.6164  -11550007.49449  -8960736.65648  20417561.2664   20417566.0814
       244.0004        214.0004
  22159538.2374    6130575.55449   4792465.98646  22159538.4414   22159542.2754
       232.0004        187.0004
  23671750.5354   -6201565.42249  -4784683.71145  23671750.3584   23671754.5734
       215.0004        151.0004
  22533503.3424    5829306.40149   4575938.46046  22533503.4204   22533507.7234
       230.0004        184.0004
                  13689298.45048  18930125.15943
       183.0004         74.0004
 04 10 13  3 11 30.0000000  0  8G30G 5G17G24G 4G10G 9G 7
  22632912.7524   -1796688.18549  -1361627.50845  22632913.3104   22632917.8744
       213.0004        145.0004
  20728236.8224  -13115185.02149 -10186809.82947  20728236.3114   20728240.0674
       247.0004        212.0004
  21189512.4274  -17528599.62449 -13137262.70447  21189511.6464   21189516.1014
       239.0004        205.0004
  20421902.3014  -11527197.09149  -8942962.30848  20421902.0814   20421906.4814
       245.0004        214.0004
  22175716.4374    6215592.47649   4858712.92946  22175716.7414   22175720.7324
       233.0004        187.0004
  23652266.8554   -6303953.54649  -4864466.65045  23652266.8464   23652270.8714
       216.0004        153.0004
  22549126.1464    5911403.77549   4639910.43346  22549126.3854   22549130.4064
       232.0004        185.0004
                  13754003.50048  18980628.10043
       185.0004         74.0004
 04 10 13  3 12  0.0000000  0  8G30G 5G17G24G 4G10G 9G 7
  22615319.0554   -1889144.88949  -1433671.66045  22615318.9704   22615323.7174
       212.0004        147.0004
  20719217.8874  -13162579.89949 -10223740.90247  20719217.2044   20719220.8194
       246.0004        212.0004
  21180574.4954  -17575568.21649 -13173861.58547  21180573.5444   21180578.1354
       239.0004        204.0004
  20426333.7654  -11503910.00349  -8924816.51648  20426333.5844   20426337.8154
       245.0004        214.0004
  22191944.7464    6300872.95849   4925165.24946  22191944.6264   22191948.6164
       232.0004        187.0004
  23632792.4664   -6406293.27049  -4944211.85245  23632791.1294   23632795.8164
       217.0004        153.0004
  22564802.4904    5993782.47749   4704101.63146  22564802.3524   22564806.3584
       231.0004        184.0004
                  13818746.28858  19031219.94543
       183.0004         74.0004
 04 10 13  3 12 30.0000000  0  8G30G 5G17G24G 4G10G 9G 7
  22597759.1024   -1981423.31849  -1505576.90545  22597759.2274   22597763.5814
       212.0004        149.0004
  20710276.9624  -13209564.61749 -10260352.36147  20710276.1644   20710280.0834
       245.0004        212.0004
  21171715.0574  -17622124.35449 -13210139.07647  21171714.1074   21171718.9724
       241.0004        204.0004
  20430855.8864  -11480146.18049  -8906299.23948  20430855.6834   20430859.8374
       245.0004        214.0004
  22208223.0714    6386416.05549   4991822.20446  22208222.8174   22208226.9014
       232.0004        187.0004
  23613327.8274   -6508579.97249  -5023915.77245  23613326.8344   23613330.8814
       217.0004        154.0004
  22580531.8064    6076440.75049   4768510.67746  22580531.3834   22580535.8584
       230.0004        184.0004
                  13883528.33058  19171751.13843
       176.0004         74.0004
 04 10 13  3 13  0.0000000  0  8G30G 5G17G24G 4G10G 9G 7
  22580233.5474   -2073520.55649  -1577340.96545  22580233.9294   22580237.5954
       215.0004        150.0004
  20701414.4964  -13256136.84249 -10296642.40447  20701413.5804   20701417.7784
       245.0004        212.0004
  21162934.2944  -17668267.25349 -13246094.56747  21162933.3964   21162938.4694
       241.0004        205.0004
  20435468.4684  -11455906.85349  -8887411.44648  20435468.2004   20435472.6034
       245.0004        215.0004
  22224550.8664    6472219.20349   5058681.79446  22224551.1334   22224554.2964
       233.0004        186.0004
  23593873.9724   -6610810.33849  -5103575.78045  23593872.7024   23593877.8734
       216.0004        155.0004
  22596313.7374    6159376.05749   4833135.58046  22596313.2684   22596317.7344
       229.0004        183.0004
                  13948350.27558  19222207.01243
       179.0004         74.0004
 04 10 13  3 13 30.0000000  0  8G30G 5G17G24G 4G10G 9G 7
  22562742.8464   -2165434.89349  -1648962.49545  22562742.4484   22562747.3644
       216.0004        153.0004
  20692630.8354  -13302294.92949 -10332609.73148  20692630.3804   20692634.1094
       246.0004        213.0004
  21154232.2474  -17713996.63349 -13281727.84047  21154231.6504   21154236.5634
       241.0004        206.0004
  20440171.1804  -11431194.06749  -8868154.72348  20440171.0144   20440175.4124
       245.0004        215.0004
  22240927.6124    6558279.47349   5125741.74246  22240928.2264   22240931.2214
       232.0004        185.0004
  23574431.3114   -6712981.46749  -5183189.62445  23574430.5314   23574435.9314
       217.0004        157.0004
  22612147.7984    6242584.68649   4897973.47346  22612147.3764   22612152.3754
       230.0004        183.0004
                  14013211.89158  19272642.57843
       178.0004         74.0004
 04 10 13  3 14  0.0000000  0  8G30G 5G17G24G 4G10G 9G 7
  22545287.2054   -2257164.83549  -1720440.34445  22545287.6324   22545291.3964
       217.0004        155.0004
  20683926.3204  -13348037.79649 -10368253.51248  20683925.9364   20683929.7174
       246.0004        214.0004
  21145608.9204  -17759312.89849 -13317039.20647  21145608.6304   21145613.0624
       242.0004        207.0004
  20444963.4304  -11406010.70649  -8848531.31848  20444963.1074   20444967.7044
       244.0004        215.0004
  22257352.5924    6644593.22449   5192999.19846  22257352.5354   22257356.2214
       232.0004        184.0004
  23555000.6504   -6815090.73949  -5262755.25645  23555000.6824   23555005.1934
       219.0004        160.0004
  22628033.1324    6326062.66649   4963021.23846  22628033.0194   22628037.4424
       228.0004        183.0004
                  14078112.55258  19413843.65843
       177.0004         74.0004
 04 10 13  3 14 30.0000000  0  8G30G 5G17G24G 4G10G 9G 7
  22527867.1864   -2348707.43449  -1791772.21645  22527867.1724   22527871.5104
       218.0004        157.0004
  20675301.2994  -13393362.96149 -10403571.80548  20675300.6974   20675304.6074
       248.0004        215.0004
  21137064.4524  -17804214.74449 -13352027.64347  21137063.8254   21137068.3684
       243.0004        208.0004
  20449845.0224  -11380357.50849  -8828541.80248  20449844.7174   20449849.0784
       244.0004        215.0004
  22273825.4274    6731158.66549   5260452.78446  22273825.6814   22273828.8734
       230.0004        184.0004
  23535582.5004   -6917134.51749  -5342269.85945  23535582.0764   23535585.8054
       219.0004        161.0004
  22643969.2614    6409807.30449   5028276.79246  22643969.0564   22643974.0294
       228.0004        181.0004
                  14143053.20258  19464431.40343
       181.0004         74.0004
 04 10 13  3 15  0.0000000  0  8G30G 5G17G24G 4G10G 9G 7
  22510483.3244   -2440060.92349  -1862956.72545  22510483.6764   22510487.0604
       220.0004        159.0004
  20666755.9894  -13438269.05349 -10438563.56148  20666755.3534   20666759.2854
       247.0004        216.0004
  21128598.7344  -17848702.47449 -13386693.39747  21128597.8964   21128603.0494
       242.0004        208.0004
  20454815.6054  -11354236.91949  -8808188.09048  20454815.5164   20454819.6404
       245.0004        214.0004
  22290345.4554    6817972.24149   5328099.71846  22290345.5354   22290348.6174
       230.0004        183.0004
  23516177.0464   -7019110.44149  -5421731.59445  23516175.5504   23516180.0154
       217.0004        160.0004
  22659955.4594    6493814.93449   5093737.26246  22659955.4894   22659959.5264
       227.0004        180.0004
                  14208033.53458  19515029.97143
       184.0004         74.0004
 04 10 13  3 15 30.0000000  0  8G30G 5G17G24G 4G10G 9G 7
  22493135.9244   -2531222.93849  -1933992.02745  22493136.0964   22493139.8394
       221.0004        160.0004
  20658290.7334  -13482753.95849 -10473227.11548  20658290.0234   20658293.9304
       247.0004        216.0004
  21120211.8404  -17892775.38949 -13421035.91247  21120211.0524   21120216.2724
       242.0004        209.0004
  20459874.7744  -11327650.75949  -8787471.59648  20459874.4544   20459879.0054
       244.0004        214.0004
  22306912.1914    6905031.40649   5395938.02046  22306912.3064   22306915.9174
       230.0004        183.0004
  23496785.0434   -7121015.25849  -5501137.92045  23496784.4354   23496788.3174
       217.0004        160.0004
  22675991.0454    6578082.58749   5159400.35546  22675990.3094   22675995.0274
       228.0004        180.0004
                  14273053.89358  19655947.43343
       180.0004         74.0004
 04 10 13  3 16  0.0000000  0  8G30G 5G17G24G 4G10G 9G 7
  22475825.1134   -2622191.87249  -2004876.87745  22475824.5804   22475828.7084
       220.0004        161.0004
  20649905.8884  -13526816.51649 -10507561.56648  20649905.3684   20649908.9714
       247.0004        215.0004
  21111903.8744  -17936433.95249 -13455055.54847  21111903.3834   21111908.1834
       242.0004        209.0004
  20465022.0734  -11300601.33749  -8766394.11648  20465021.6504   20465026.3874
       244.0004        214.0004
  22323525.0734    6992332.88149   5463965.13746  22323524.7354   22323528.9364
       229.0004        183.0004
  23477407.1394   -7222846.63649  -5580487.00945  23477407.2294   23477410.4754
       217.0004        160.0004
  22692075.2864    6662606.26749   5225262.96146  22692074.0844   22692078.6124
       229.0004        180.0004
                  14338113.57858  19706630.65843
       182.0004         74.0004
 04 10 13  3 16 30.0000000  0  8G30G 5G17G24G 4G10G 9G 7
  22458551.7874   -2712963.06949  -2075607.64745  22458552.2184   22458555.2284
       220.0004        162.0004
  20641602.2244  -13570452.65149 -10541563.74248  20641601.5074   20641605.3154
       247.0004        215.0004
  21103675.3744  -17979675.13149 -13488749.96347  21103674.9504   21103679.6994
       243.0004        210.0004
  20470257.6814  -11273088.04649  -8744955.18448  20470257.5864   20470262.1414
       245.0004        215.0004
  22340183.9954    7079876.25149   5532180.73746  22340183.9924   22340187.5404
       230.0004        183.0004
  23458044.5274   -7324598.78249  -5659774.35245  23458043.3944   23458049.3904
       216.0004        161.0004
  22708208.1384    6747385.24649   5291324.50346  22708208.5244   22708213.0244
       229.0004        180.0004
                  14403215.02958  19757323.05443
       176.0004         74.0004
 04 10 13  3 17  0.0000000  0  8G30G 5G17G24G 4G10G 9G 7
  22441316.4834   -2803534.99649  -2146183.14546  22441316.5204   22441319.7114
       222.0004        164.0004
  20633379.8774  -13613661.19449 -10575232.73848  20633379.2794   20633382.8174
       246.0004        213.0004
  21095526.2584  -18022499.44149 -13522119.54947  21095525.9314   21095530.4454
       243.0004        210.0004
  20475581.1424  -11245113.40249  -8723156.75648  20475581.1504   20475585.2404
       246.0004        215.0004
  22356888.2734    7167657.96749   5600582.06146  22356888.6384   22356891.6494
       230.0004        183.0004
  23438697.1984   -7426269.45349  -5738998.21845  23438696.5284   23438701.7374
       215.0004        160.0004
  22724388.9424    6832415.29649   5357581.67646  22724389.0134   22724393.3194
       228.0004        179.0004
                  14468357.85458  19898008.68943
       175.0004         74.0004
 04 10 13  3 17 30.0000000  0  8G30G 5G17G24G 4G10G 9G 7
  22424119.6264   -2893905.30549  -2216601.53346  22424119.9754   22424123.0174
       222.0004        165.0004
  20625239.2624  -13656440.30149 -10608567.10447  20625238.5944   20625242.2914
       246.0004        212.0004
  21087456.5304  -18064906.35849 -13555163.88747  21087455.8484   21087460.6424
       243.0004        211.0004
  20480992.0564  -11216679.19349  -8701000.22348  20480991.8344   20480995.8534
       246.0004        216.0004
  22373637.5104    7255675.66849   5669167.27446  22373637.5634   22373640.8234
       231.0004        184.0004
  23419365.9924   -7527855.36849  -5818156.04045  23419365.0414   23419369.7534
       216.0004        159.0004
  22740616.8724    6917693.32949   5424032.08546  22740616.5694   22740620.2774
       227.0004        178.0004
                  14533542.38358  19948823.33343
       174.0004         74.0004
 04 10 13  3 18  0.0000000  0  8G30G 5G17G24G 4G10G 9G 7
  22406961.5374   -2984071.82949  -2286861.12446  22406962.1034   22406964.6394
       222.0004        166.0004
  20617180.6694  -13698788.20249 -10641565.46747  20617179.9634   20617183.8484
       246.0004        212.0004
  21079466.2284  -18106895.71449 -13587882.84847  21079465.7204   21079470.2984
       242.0004        211.0004
  20486489.9654  -11187787.52649  -8678487.22648  20486489.7884   20486493.7604
       246.0004        216.0004
  22390431.0934    7343926.42049   5737934.08646  22390431.1274   22390434.5584
       231.0004        184.0004
  23400051.4804   -7629353.52549  -5897245.48145  23400049.8634   23400055.6354
       215.0004        158.0004
  22756891.2474    7003216.10349   5490673.19446  22756890.4734   22756894.8284
       226.0004        178.0004
                  14598768.57558  19999729.43443
       179.0004         74.0004
 04 10 13  3 18 30.0000000  0  8G30G 5G17G24G 4G10G 9G 7
  22389842.7234   -3074031.74049  -2356959.71846  22389842.3354   22389846.6914
       223.0004        167.0004
  20609204.5914  -13740702.58249 -10674226.02247  20609204.1954   20609207.9304
       247.0004        212.0004
  21071555.5704  -18148466.65949 -13620275.77347  21071555.0664   21071559.7534
       242.0004        211.0004
  20492074.6464  -11158439.97349  -8655618.99048  20492074.5324   20492078.4594
       247.0004        215.0004
  22407268.5354    7432407.79249   5806880.59946  22407268.7614   22407272.0954
       231.0004        184.0004
  23380754.3444   -7730760.35849  -5976263.76545  23380754.2014   23380757.4924
       214.0004        157.0004
  22773211.5774    7088980.57449   5557502.63546  22773211.5944   22773216.4574
       226.0004        178.0004
                  14664037.10258  20140121.70643
       173.0004         74.0004
 04 10 13  3 19  0.0000000  0  8G30G 5G17G24G 4G10G 9G 7
  22372763.4984   -3163782.90549  -2426895.65746  22372762.8894   22372767.6434
       222.0004        168.0004
  20601311.3704  -13782181.93649 -10706547.59848  20601311.1394   20601314.4424
       247.0004        213.0004
  21063724.5294  -18189619.05049 -13652342.55647  21063724.0674   21063728.3154
       242.0004        210.0004
  20497745.8064  -11128638.12749  -8632396.76848  20497745.7064   20497749.7344
       246.0004        216.0004
  22424149.4274    7521117.25349   5876004.84546  22424149.7144   22424153.1274
       231.0004        184.0004
  23361475.1334   -7832072.58149  -6055208.34645  23361474.2184   23361478.8514
       215.0004        157.0004
  22789577.3834    7174983.57749   5624517.94546  22789577.3244   22789581.9334
       227.0004        179.0004
                  14729347.94758  20191011.31643
       167.0004         74.0004
 04 10 13  3 19 30.0000000  0  8G30G 5G17G24G 4G10G 9G 7
  22355724.5824   -3253322.10349  -2496666.43246  22355724.6944   22355727.7494
       224.0004        169.0004
  20593501.4714  -13823223.47049 -10738528.01048  20593501.0064   20593504.7574
       248.0004        214.0004
  21055973.3604  -18230351.71249 -13684082.27847  21055972.6634   21055977.4734
       241.0004        210.0004
  20503503.1034  -11098383.26449  -8608821.54648  20503502.6204   20503507.1224
       245.0004        215.0004
  22441073.3334    7610052.59949   5945305.10546  22441073.5084   22441077.4384
       231.0004        184.0004
  23342214.8544   -7933286.32049  -6134076.16145  23342214.5314   23342219.1124
       216.0004        157.0004
  22805988.1834    7261222.59849   5691717.16046  22805987.9934   22805992.5814
       228.0004        180.0004
                  14794702.12657  20241927.31343
       158.0004         74.0004
 04 10 13  3 20  0.0000000  0  7G30G 5G17G24G 4G10G 9
  22338726.0164   -3342649.84649  -2566272.43846  22338726.0424   22338729.4194
       226.0004        170.0004
  20585774.7024  -13863828.16949 -10770168.03448  20585774.0654   20585778.0884
       248.0004        216.0004
  21048301.5414  -18270667.13549 -13715496.88547  21048300.7054   21048305.7234
       240.0004        210.0004
  20509345.6684  -11067680.01849  -8584896.93948  20509345.0664   20509349.6404
       245.0004        215.0004
  22458039.1834    7699208.67649   6014777.35546  22458039.2734   22458042.3814
       231.0004        183.0004
  23322973.5444   -8034401.04949  -6212866.81845  23322973.1324   23322976.5064
       217.0004        157.0004
  22822442.7624    7347691.72349   5759095.69346  22822442.8224   22822446.8604
       230.0004        181.0004
 04 10 13  3 20 30.0000000  0  7G30G 5G17G24G 4G10G 9
  22321768.6234   -3431761.66849  -2635710.19046  22321768.9714   22321771.8054
       225.0004        172.0004
  20578131.6464  -13903992.39149 -10801464.82648  20578131.1264   20578135.1194
       247.0004        216.0004
  21040709.5764  -18310562.84749 -13746584.43547  21040708.7604   21040713.7954
       239.0004        209.0004
  20515273.5554  -11036528.34149  -8560622.90348  20515273.1324   20515277.5924
       245.0004        214.0004
  22475046.8904    7788584.82249   6084421.10746  22475046.6794   22475050.3474
       231.0004        183.0004
  23303751.8424   -8135411.78649  -6291576.45845  23303750.0804   23303755.9194
       215.0004        157.0004
  22838940.9044    7434389.67749   5826652.53546  22838940.7604   22838945.5034
       230.0004        181.0004
 04 10 13  3 21  0.0000000  0  7G30G 5G17G24G 4G10G 9
  22304852.8244   -3520655.08149  -2704977.76546  22304852.9424   22304856.1094
       227.0004        174.0004
  20570572.8194  -13943713.98249 -10832416.71048  20570572.2494   20570576.2564
       247.0004        217.0004
  21033197.5374  -18350038.59749 -13777344.73347  21033196.7114   21033201.6704
       240.0004        208.0004
  20521286.5074  -11004930.03949  -8536000.84948  20521286.2494   20521290.6794
       245.0004        215.0004
  22492095.9794    7878178.64749   6154234.46346  22492096.3264   22492100.0064
       231.0004        182.0004
  23284550.1684   -8236315.17849  -6370202.46445  23284548.6424   23284555.4924
       215.0004        157.0004
  22855482.0734    7521313.55449   5894385.42046  22855481.6894   22855486.5494
       230.0004        181.0004
 04 10 13  3 21 30.0000000  0  7G30G 5G17G24G 4G10G 9
  22287979.2174   -3609326.74849  -2774072.54946  22287978.9734   22287982.8234
       227.0004        175.0004
  20563098.8254  -13982990.10049 -10863021.46848  20563098.2434   20563102.2814
       247.0004        217.0004
  21025765.7074  -18389092.88749 -13807776.62647  21025765.1264   21025769.7494
       241.0004        209.0004
  20527384.2844  -10972886.07549  -8511031.51248  20527384.0284   20527388.5494
       245.0004        215.0004
  22509186.2164    7967988.38049   6224216.06546  22509185.8154   22509190.3174
       231.0004        182.0004
  23265369.9544   -8337107.00249  -6448741.55045  23265369.4204   23265375.5934
       218.0004        158.0004
  22872065.7584    7608461.15349   5962292.63246  22872065.2794   22872069.6324
       227.0004        180.0004
 04 10 13  3 22  0.0000000  0  7G30G 5G17G24G 4G10G 9
  22271147.9474   -3697775.78749  -2842993.84546  22271148.1754   22271151.6444
       228.0004        177.0004
  20555709.7174  -14021820.42249 -10893278.85448  20555709.0794   20555713.0604
       247.0004        217.0004
  21018413.9124  -18427727.06349 -13837881.16647  21018413.5854   21018417.7014
       242.0004        209.0004
  20533566.2704  -10940399.30849  -8485717.13748  20533565.8684   20533570.4694
       244.0004        214.0004
  22526316.7944    8058009.94449   6294362.73046  22526317.5754   22526320.8824
       231.0004        181.0004
  23246211.7024   -8437784.96649  -6527191.89045  23246210.5834   23246217.1154
       217.0004        160.0004
  22888690.9964    7695827.79449   6030370.51846  22888690.5994   22888696.2644
       226.0004        179.0004
 04 10 13  3 22 30.0000000  0  7G30G 5G17G24G 4G10G 9
  22254359.6294   -3785999.20549  -2911739.34246  22254359.9174   22254362.9164
       228.0004        178.0004
  20548405.8494  -14060202.74349 -10923187.14748  20548405.5054   20548409.0604
       248.0004        217.0004
  21011142.2414  -18465940.34949 -13867657.73447  21011141.7294   21011146.2284
       242.0004        210.0004
  20539832.1904  -10907471.56149  -8460059.14348  20539831.8004   20539836.3914
       244.0004        214.0004
  22543487.3314    8148241.30649   6364672.87446  22543487.2894   22543491.1394
       231.0004        181.0004
  23227075.7654   -8538345.88649  -6605551.02145  23227075.1014   23227079.7144
       220.0004        161.0004
  22905357.4844    7783410.91249   6098617.10046  22905357.2314   22905362.1274
       226.0004        178.0004
 04 10 13  3 23  0.0000000  0  7G30G 5G17G24G 4G10G 9
  22237614.6364   -3873994.91249  -2980307.40246  22237615.3094   22237618.5764
       230.0004        180.0004
  20541187.5024  -14098135.54249 -10952745.16548  20541187.0424   20541190.5834
       248.0004        217.0004
  21003950.6364  -18503732.58849 -13897106.22347  21003949.9484   21003954.8594
       243.0004        211.0004
  20546181.6774  -10874104.73249  -8434059.01948  20546181.0754   20546185.8744
       244.0004        214.0004
  22560697.2644    8238679.74149   6435144.37246  22560697.4144   22560701.5234
       231.0004        181.0004
  23207962.5144   -8638786.73649  -6683816.59245  23207961.3534   23207965.5514
       218.0004        161.0004
  22922064.5904    7871207.01749   6167029.63446  22922064.1854   22922068.7994
       225.0004        178.0004
 04 10 13  3 23 30.0000000  0  7G30G 5G17G24G 4G10G 9
  22220913.5534   -3961759.85049  -3048695.64446  22220913.3024   22220916.7324
       230.0004        181.0004
  20534055.1434  -14135616.38549 -10981951.02048  20534054.4104   20534058.2324
       248.0004        216.0004
  20996839.2594  -18541103.06349 -13926226.06547  20996838.7814   20996843.4174
       242.0004        211.0004
  20552614.3724  -10840300.23249  -8407717.86048  20552613.9614   20552618.4914
       244.0004        213.0004
  22577946.1894    8329323.04149   6505775.50746  22577946.4534   22577949.8534
       230.0004        180.0004
  23188872.5964   -8739103.58849  -6761985.55945  23188870.8394   23188876.6644
       216.0004        161.0004
  22938811.6994    7959213.40849   6235606.01246  22938811.1914   22938815.7354
       224.0004        177.0004
 04 10 13  3 24  0.0000000  0  7G30G 5G17G24G 4G10G 9
  22204256.4204   -4049293.30849  -3116903.50846  22204255.8744   22204259.7974
       230.0004        182.0004
  20527008.7394  -14172645.27949 -11010804.70348  20527008.1184   20527011.7594
       247.0004        216.0004
  20989807.9174  -18578053.06649 -13955018.25947  20989807.2094   20989811.7814
       242.0004        211.0004
  20559129.7264  -10806061.89249  -8381038.63348  20559129.5914   20559133.7904
       245.0004        214.0004
  22595233.2234    8420166.88949   6576562.91446  22595233.4754   22595237.6564
       230.0004        179.0004
  23169806.7814   -8839294.72049  -6840056.55645  23169805.2084   23169811.6224
       216.0004        161.0004
  22955597.7314    8047425.03349   6304342.32146  22955597.0514   22955602.4824
       223.0004        177.0004
 04 10 13  3 24 30.0000000  0  7G30G 5G17G24G 4G10G 9
  22187644.3374   -4136589.84149  -3184926.76446  22187644.3434   22187648.0654
       231.0004        182.0004
  20520049.2474  -14209217.45849 -11039302.50848  20520048.7664   20520052.3604
       247.0004        216.0004
  20982857.1694  -18614579.50849 -13983480.41247  20982856.4014   20982860.9864
       240.0004        210.0004
  20565727.8884  -10771388.40849  -8354020.33048  20565727.6934   20565731.9904
       245.0004        214.0004
  22612558.5744    8511211.89349   6647507.06246  22612558.5714   22612562.5564
       229.0004        178.0004
  23150765.9794   -8939353.87949  -6918024.72945  23150764.9394   23150771.9334
       216.0004        162.0004
  22972422.8134    8135841.96149   6373238.59946  22972422.4234   22972427.3734
       224.0004        177.0004
 04 10 13  3 25  0.0000000  0  7G30G 5G17G24G 4G10G 9
  22171077.6614   -4223648.01849  -3252764.27846  22171077.7224   22171080.7474
       231.0004        183.0004
  20513176.9174  -14245331.96749 -11067443.69248  20513176.3834   20513180.0794
       247.0004        215.0004
  20975986.8924  -18650683.09049 -14011613.05147  20975986.2374   20975990.2064
       243.0004        210.0004
  20572408.2474  -10736282.84649  -8326665.33848  20572407.9984   20572412.2304
       245.0004        214.0004
  22629921.5154    8602454.53549   6718605.21346  22629922.4014   22629924.8584
       229.0004        177.0004
  23131750.8984   -9039278.76249  -6995888.26646  23131750.9924   23131756.0994
       219.0004        164.0004
  22989286.3814    8224460.07149   6442291.65946  22989286.4084   22989290.4424
       225.0004        178.0004
 04 10 13  3 25 30.0000000  0  7G30G 5G17G24G 4G10G 9
  22154556.6924   -4310466.38549  -3320414.93146  22154556.8494   22154560.6004
       231.0004        184.0004
  20506391.7644  -14280988.25549 -11095227.80948  20506391.3314   20506394.9454
       246.0004        215.0004
  20969196.8654  -18686364.73649 -14039416.92447  20969196.1484   20969200.3314
       241.0004        210.0004
  20579170.3014  -10700748.08049  -8298975.90648  20579170.1774   20579174.2444
       245.0004        214.0004
  22647321.4254    8693891.15249   6789854.51846  22647322.0254   22647325.5684
       227.0004        177.0004
  23112762.0034   -9139067.17049  -7073645.43846  23112761.5384   23112766.4074
       221.0004        165.0004
  23006187.4504    8313275.15849   6511498.20046  23006187.3584   23006191.9734
       223.0004        177.0004
 04 10 13  3 26  0.0000000  0  7G30G 5G17G24G 4G10G 9
  22138081.8214   -4397042.10749  -3387876.50546  22138081.5154   22138085.5094
       230.0004        184.0004
  20499694.1434  -14316184.24949 -11122653.25448  20499693.4884   20499697.3514
       246.0004        215.0004
  20962487.3024  -18721623.71549 -14066891.43447  20962486.5534   20962491.1784
       241.0004        211.0004
  20586013.7374  -10664785.80849  -8270953.35648  20586013.4794   20586017.9124
       245.0004        214.0004
  22664757.8754    8785519.81549   6861253.47046  22664758.9744   22664761.1834
       227.0004        176.0004
  23093799.6614   -9238715.52349  -7151293.48646  23093798.7964   23093803.8194
       221.0004        165.0004
  23023125.3074    8402284.36349   6580856.00346  23023124.3734   23023129.6754
       221.0004        174.0004
 04 10 13  3 26 30.0000000  0  7G30G 5G17G24G 4G10G 9
  22121653.5554   -4483372.57549  -3455146.97846  22121653.8484   22121657.4484
       231.0004        185.0004
  20493084.4884  -14350918.03849 -11149718.53948  20493083.9334   20493087.7904
       247.0004        215.0004
  20955858.1694  -18756459.82549 -14094036.44147  20955857.4824   20955861.7894
       242.0004        211.0004
  20592938.0414  -10628398.05949  -8242599.26248  20592937.4864   20592942.4484
       244.0004        214.0004
  22682230.3404    8877337.89749   6932800.01946  22682230.6084   22682233.9714
       226.0004        175.0004
  23074864.4494   -9338220.22549  -7228829.60046  23074863.7244   23074868.5184
       220.0004        165.0004
  23040099.3744    8491484.74849   6650362.77246  23040098.8914   23040103.4754
       220.0004        171.0004
 04 10 13  3 27  0.0000000  0  7G30G 5G17G24G 4G10G 9
  22105272.6514   -4569454.16749  -3522223.52546  22105272.9784   22105276.5774
       230.0004        185.0004
  20486563.3694  -14385186.70049 -11176421.38648  20486562.6084   20486566.4354
       247.0004        215.0004
  20949309.7914  -18790871.57049 -14120850.78347  20949309.1454   20949313.5714
       242.0004        211.0004
  20599943.2214  -10591585.26649  -8213913.96648  20599942.7964   20599947.7784
       244.0004        214.0004
  22699738.5644    8969344.19149   7004493.21746  22699738.6384   22699741.7894
       224.0004        174.0004
  23055957.3074   -9437576.93349  -7306250.42446  23055956.9534   23055961.6894
       220.0004        166.0004
  23057109.5164    8580874.21849   6720016.88446  23057109.6254   23057114.1844
       219.0004        169.0004
 04 10 13  3 27 30.0000000  0  7G30G 5G17G24G 4G10G 9
  22088939.4364   -4655285.83749  -3589105.31746  22088939.7454   22088943.3614
       232.0004        185.0004
  20480130.7794  -14418990.02349 -11202761.63148  20480130.4114   20480133.9584
       247.0004        216.0004
  20942841.8824  -18824860.44249 -14147335.59947  20942840.9134   20942845.5874
       241.0004        210.0004
  20607028.6234  -10554350.94949  -8184900.21248  20607028.3614   20607032.8324
       244.0004        213.0004
  22717281.7644    9061534.61249   7076329.90046  22717281.6234   22717285.1904
       223.0004        173.0004
  23037079.1684   -9536783.43149  -7383554.16746  23037079.0524   23037082.9434
       222.0004        167.0004
  23074154.9314    8670448.39449   6789814.90846  23074155.0454   23074159.5224
       220.0004        167.0004
 04 10 13  3 28  0.0000000  0  7G30G 5G17G24G 4G10G 9
  22072654.2774   -4740865.43949  -3655790.69946  22072654.3294   22072657.8564
       232.0004        185.0004
  20473787.0834  -14452326.48849 -11228738.09448  20473786.6524   20473790.4904
       247.0004        216.0004
  20936454.3964  -18858426.45349 -14173490.91247  20936453.7154   20936458.3484
       241.0004        210.0004
  20614193.8444  -10516697.41249  -8155559.79748  20614193.7614   20614197.8284
       244.0004        213.0004
  22734859.5014    9153906.39949   7148307.89346  22734859.8644   22734862.6484
       222.0004        171.0004
  23018230.1404   -9635836.77649  -7460738.56546  23018229.6314   23018234.7444
       221.0004        168.0004
  23091234.9154    8760203.86349   6859754.20346  23091234.8514   23091239.4294
       222.0004        167.0004
 04 10 13  3 28 30.0000000  0  7G30G 5G17G24G 4G10G 9
  22056417.6444   -4826190.05349  -3722277.38246  22056418.6194   22056421.5764
       232.0004        186.0004
  20467532.6434  -14485194.01149 -11254349.14648  20467532.1424   20467535.9564
       248.0004        217.0004
  20930147.5044  -18891569.18749 -14199316.40047  20930146.7714   20930151.4624
       242.0004        211.0004
  20621438.5344  -10478626.32249  -8125894.01148  20621438.3054   20621442.6094
       244.0004        213.0004
  22752471.3604    9246457.59049   7220425.68946  22752471.2624   22752475.4794
       222.0004        171.0004
  22999410.7304   -9734733.34649  -7537800.80246  22999409.5304   22999414.5474
       220.0004        167.0004
  23108348.8814    8850137.55949   6929832.39146  23108348.7734   23108352.7614
       224.0004        168.0004
 04 10 13  3 29  0.0000000  0  7G30G 5G17G24G 4G10G 9
  22040229.8714   -4911257.39449  -3788563.60046  22040230.3064   22040233.6274
       231.0004        186.0004
  20461367.6764  -14517591.15849 -11279593.67648  20461367.1504   20461370.9574
       248.0004        217.0004
  20923921.1474  -18924288.61549 -14224812.04447  20923920.6814   20923925.4174
       242.0004        211.0004
  20628762.2884  -10440139.84449  -8095904.54748  20628762.1454   20628766.4284
       245.0004        213.0004
  22770116.9494    9339185.56449   7292681.23246  22770116.8364   22770121.0494
       222.0004        171.0004
  22980621.6774   -9833469.88549  -7614738.35146  22980620.2484   22980626.3384
       219.0004        167.0004
  23125496.1134    8940246.21549   7000046.92046  23125496.2724   23125500.2614
       227.0004        170.0004
 04 10 13  3 29 30.0000000  0  7G30G 5G17G24G 4G10G 9
  22024091.7614   -4996063.79649  -3854646.48546  22024091.9384   22024095.1774
       231.0004        186.0004
  20455292.7174  -14549515.28249 -11304469.61748  20455292.2464   20455295.8244
       248.0004        217.0004
  20917775.6794  -18956583.48149 -14249976.86347  20917775.2364   20917779.9064
       242.0004        211.0004
  20636164.9814  -10401238.77849  -8065592.02248  20636164.9804   20636169.3294
       245.0004        214.0004
  22787795.8524    9432088.78049   7365073.33046  22787795.6874   22787799.5224
       223.0004        171.0004
  22961863.8464   -9932041.90049  -7691547.71246  22961863.4634   22961868.3944
       220.0004        167.0004
  23142676.2574    9030528.15849   7070396.48746  23142675.8794   23142680.4204
       226.0004        172.0004
 04 10 13  3 30  0.0000000  0  7G30G 5G17G24G 4G10G 9
  22008003.6314   -5080607.60449  -3920524.75546  22008004.0564   22008006.8464
       231.0004        185.0004
  20449307.9934  -14580965.39349 -11328976.19648  20449307.3694   20449311.1584
       248.0004        217.0004
  20911710.8504  -18988454.54649 -14274811.44547  20911710.2544   20911714.8924
       242.0004        211.0004
  20643646.0624  -10361925.83549  -8034958.55048  20643645.8814   20643650.1374
       246.0004        214.0004
  22805507.5504    9525164.38649   7437599.76346  22805507.5164   22805511.4974
       223.0004        172.0004
  22943138.0174  -10030447.14849  -7768227.09746  22943137.1074   22943142.2264
       220.0004        167.0004
  23159888.5574    9120979.15249   7140877.77046  23159887.7134   23159892.7004
       227.0004        173.0004
 04 10 13  3 30 30.0000000  0  7G30G 5G17G24G 4G10G 9
  21991965.9414   -5164886.20349  -3986196.36546  21991965.9694   21991969.4764
       230.0004        185.0004
  20443413.7744  -14611939.66049 -11353111.99048  20443413.2994   20443417.1814
       248.0004        217.0004
  20905726.6894  -19019901.57549 -14299315.61447  20905725.9774   20905730.4924
       241.0004        211.0004
  20651205.1044  -10322203.03249  -8004005.71248  20651204.9084   20651209.1174
       246.0004        214.0004
  22823251.4464    9618409.56649   7510258.32446  22823251.6024   22823255.1194
       224.0004        173.0004
  22924444.6204  -10128681.96449  -7844773.69446  22924444.3274   22924448.7224
       221.0004        168.0004
  23177132.4024    9211596.17749   7211488.42746  23177132.5854   23177137.2494
       228.0004        174.0004
 04 10 13  3 31  0.0000000  0  7G30G 5G17G24G 4G10G 9
  21975979.1714   -5248897.26149  -4051659.50146  21975979.1164   21975982.2794
       231.0004        185.0004
  20437610.3834  -14642436.71249 -11376875.92348  20437610.0074   20437613.5554
       248.0004        218.0004
  20899823.1364  -19050924.83049 -14323489.56247  20899822.5244   20899826.8214
       242.0004        210.0004
  20658841.7044  -10282072.46049  -7972735.13048  20658841.6724   20658845.7234
       246.0004        215.0004
  22841027.0704    9711821.61849   7583046.92346  22841027.5564   22841030.9244
       224.0004        175.0004
  22905784.2534  -10226743.36049  -7921185.15446  22905783.9864   22905788.7134
       222.0004        169.0004
  23194407.3494    9302376.04949   7282225.98046  23194407.1964   23194411.6814
       228.0004        175.0004
 04 10 13  3 31 30.0000000  0  7G30G 5G17G24G 4G10G 9
  21960043.4494   -5332639.75849  -4116913.37846  21960043.3784   21960047.0814
       230.0004        184.0004
  20431897.8444  -14672456.40949 -11400267.89048  20431897.1624   20431900.9914
       248.0004        217.0004
  20894000.0604  -19081525.58549 -14347334.29447  20893999.5654   20894003.4674
       243.0004        210.0004
  20666555.2364  -10241537.64849  -7941149.56148  20666555.0324   20666559.2474
       245.0004        215.0004
  22858833.8274    9805396.94149   7655962.75146  22858834.2384   22858837.3664
       226.0004        176.0004
  22887157.2234  -10324629.45349  -7997460.02046  22887156.0224   22887161.8704
       222.0004        168.0004
  23211712.4444    9393314.15749   7353086.84846  23211711.9064   23211716.4314
       228.0004        174.0004
 04 10 13  3 32  0.0000000  0  7G30G 5G17G24G 4G10G 9
  21944159.7124   -5416108.95449  -4181954.28846  21944159.6244   21944162.8224
       231.0004        184.0004
  20426276.7814  -14701994.90749 -11423284.90048  20426276.1134   20426279.8924
       249.0004        217.0004
  20888257.8014  -19111701.58049 -14370848.04547  20888257.2204   20888261.3644
       243.0004        210.0004
  20674345.7054  -10200598.43549  -7909248.87848  20674345.4984   20674350.0314
       245.0004        215.0004
  22876671.7084    9899135.41049   7729005.68446  22876671.5304   22876675.8564
       227.0004        177.0004
  22868564.4754  -10422334.47749  -8073593.80146  22868563.6134   22868568.8544
       222.0004        168.0004
  23229047.5064    9484409.65949   7424070.33646  23229046.8064   23229051.5154
       225.0004        173.0004
 04 10 13  3 32 30.0000000  0  7G30G 5G17G24G 4G10G 9
  21928328.5824   -5499302.27949  -4246780.23146  21928328.7844   21928331.6684
       231.0004        184.0004
  20420747.6094  -14731050.77049 -11445925.82948  20420747.2214   20420750.6524
       249.0004        216.0004
  20882596.3574  -19141452.93549 -14394030.90747  20882595.6704   20882600.0214
       243.0004        211.0004
  20682212.7404  -10159256.90749  -7877034.70648  20682212.3824   20682217.1614
       244.0004        215.0004
  22894540.1414    9993034.44649   7802173.75046  22894540.3304   22894544.2144
       228.0004        179.0004
  22850006.8494  -10519855.13849  -8149583.92446  22850005.6504   22850011.0454
       222.0004        168.0004
  23246411.8134    9575659.58049   7495174.15346  23246410.7854   23246416.3204
       226.0004        171.0004
 04 10 13  3 33  0.0000000  0  7G30G 5G17G24G 4G10G 9
  21912550.3234   -5582217.83649  -4311389.73946  21912550.5874   21912553.8234
       231.0004        184.0004
  20415310.5904  -14759622.80549 -11468189.75448  20415310.0954   20415313.5754
       249.0004        216.0004
  20877015.5754  -19170779.94049 -14416883.10947  20877014.9134   20877019.3404
       242.0004        211.0004
  20690155.7234  -10117515.79449  -7844509.17048  20690155.1144   20690159.9834
       243.0004        214.0004
  22912438.5774   10087091.06949   7875464.60246  22912438.5394   22912443.1134
       228.0004        179.0004
  22831484.8614  -10617188.63049  -8225428.19146  22831484.2624   22831488.1274
       223.0004        169.0004
  23263804.5524    9667059.80949   7566395.08646  23263804.3534   23263808.8274
       222.0004        169.0004
 04 10 13  3 33 30.0000000  0  7G30G 5G17G24G 4G10G 9
  21896825.2714   -5664853.34549  -4375781.01946  21896825.2134   21896828.1304
       231.0004        184.0004
  20409965.8354  -14787709.57149 -11490075.54548  20409965.2454   20409968.7864
       249.0004        215.0004
  20871515.4584  -19199682.97849 -14439404.94647  20871514.5314   20871519.1384
       242.0004        211.0004
  20698174.4114  -10075377.02449  -7811673.76547  20698174.1424   20698178.3994
       244.0004        212.0004
  22930366.4954   10181302.72149   7948876.25846  22930366.1284   22930370.3894
       228.0004        180.0004
  22812999.0944  -10714331.72049  -8301124.07546  22812997.2314   22813002.8654
       221.0004        169.0004
  23281225.2524    9758607.20349   7637730.70746  23281224.4544   23281228.7564
       221.0004        168.0004
 04 10 13  3 34  0.0000000  0  7G30G 5G17G24G 4G10G 9
  21881154.0264   -5747205.67449  -4439951.65046  21881154.2224   21881157.7114
       231.0004        183.0004
  20404713.8564  -14815308.89749 -11511581.51948  20404713.1514   20404716.7594
       249.0004        215.0004
  20866096.1344  -19228161.44449 -14461595.94947  20866095.4834   20866099.8944
       241.0004        211.0004
  20706268.5554  -10032842.18549  -7778529.73447  20706268.2994   20706272.2574
       244.0004        211.0004
  22948323.5244   10275667.48549   8022407.22346  22948323.2764   22948327.3504
       227.0004        180.0004
  22794550.1034  -10811280.68149  -8376668.71646  22794548.3334   22794554.7894
       219.0004        169.0004
  23298673.5034    9850299.19449   7709178.99646  23298673.1844   23298677.9444
       220.0004        167.0004
 04 10 13  3 34 30.0000000  0  7G30G 5G17G24G 4G10G 9
  21865537.2404   -5829271.86449  -4503899.30746  21865537.5234   21865540.9654
       231.0004        183.0004
  20399554.9694  -14842419.03449 -11532706.30148  20399554.2924   20399558.0154
       248.0004        215.0004
  20860757.6534  -19256215.07249 -14483455.89647  20860756.8094   20860761.4274
       241.0004        211.0004
  20714437.6914   -9989913.12049  -7745078.50147  20714437.4334   20714441.2294
       245.0004        211.0004
  22966309.2464   10370183.45849   8096056.01946  22966308.5154   22966313.7144
       227.0004        180.0004
  22776138.7264  -10908031.82049  -8452059.18846  22776138.1384   22776142.8224
       219.0004        169.0004
  23316148.8954    9942133.15649   7780737.92346  23316149.3464   23316152.7884
       223.0004        167.0004
 04 10 13  3 35  0.0000000  0  7G30G 5G17G24G 4G10G 9
  21849975.2864   -5911050.67449  -4567623.04546  21849976.1664   21849978.8094
       231.0004        183.0004
  20394489.1974  -14869039.56349 -11553449.57848  20394488.6394   20394492.4154
       249.0004        215.0004
  20855499.7534  -19283845.16049 -14504985.82147  20855499.0484   20855503.6814
       242.0004        211.0004
  20722681.2694   -9946593.10249  -7711322.62947  20722681.0364   20722684.8974
       246.0004        211.0004
  22984323.0124   10464846.86249   8169819.69546  22984322.8344   22984326.8754
       228.0004        181.0004
  22757765.6244  -11004583.12649  -8527293.95046  22757764.7574   22757770.1574
       219.0004        168.0004
  23333650.5824   10034104.64349   7852404.00346  23333650.1504   23333655.0894
       223.0004        167.0004
 04 10 13  3 35 30.0000000  0  7G30G 5G17G24G 4G10G 9
  21834468.5694   -5992539.62049  -4631120.90446  21834468.4724   21834472.3994
       232.0004        183.0004
  20389516.9254  -14895169.17049 -11573810.31348  20389516.3124   20389520.0874
       249.0004        216.0004
  20850322.4934  -19311051.80649 -14526185.79447  20850321.9924   20850326.5284
       242.0004        212.0004
  20730998.7954   -9902884.09249  -7677263.64547  20730998.4484   20731002.7424
       245.0004        212.0004
  23002364.4734   10559655.50149   8243696.54146  23002364.7344   23002368.2754
       228.0004        181.0004
  22739431.3494  -11100930.85749  -8602370.08146  22739431.1294   22739436.0854
       220.0004        168.0004
  23351177.8754   10126210.44949   7924174.75746  23351177.7564   23351182.6684
       223.0004        167.0004
 04 10 13  3 36  0.0000000  0  7G30G 5G17G24G 4G10G 9
  21819017.4024   -6073736.08549  -4694390.85346  21819017.2594   21819020.8934
       232.0004        182.0004
  20384638.4244  -14920806.23849 -11593787.24848  20384637.8194   20384641.7894
       250.0004        217.0004
  20845225.8594  -19337834.81549 -14547055.66047  20845225.4314   20845229.8744
       242.0004        212.0004
  20739389.9544   -9858788.15049  -7642903.16047  20739389.7594   20739393.9514
       245.0004        212.0004
  23020433.2094   10654607.23949   8317684.90046  23020432.9864   23020437.7724
       229.0004        180.0004
  22721136.5144  -11197071.62249  -8677284.94446  22721136.1454   22721140.9124
       221.0004        167.0004
  23368730.0554   10218447.73249   7996047.96946  23368729.9754   23368734.7144
       222.0004        167.0004
 04 10 13  3 36 30.0000000  0  7G30G 5G17G24G 4G10G 9
  21803622.3004   -6154637.33249  -4757430.78346  21803622.0174   21803625.7574
       230.0004        182.0004
  20379853.8434  -14945949.32749 -11613379.26848  20379853.1914   20379857.1964
       250.0004        218.0004
  20840209.8654  -19364194.25349 -14567595.47647  20840209.2434   20840213.5524
       243.0004        212.0004
  20747854.3444   -9814307.46749  -7608242.89248  20747854.1594   20747858.4604
       245.0004        213.0004
  23038528.7264   10749699.55349   8391782.78346  23038529.1784   23038532.3484
       230.0004        180.0004
  22702881.5754  -11293001.92049  -8752035.81746  22702880.2534   22702885.2584
       221.0004        167.0004
  23386306.7024   10310813.60249   8068021.36146  23386306.8074   23386310.7944
       222.0004        167.0004
 04 10 13  3 37  0.0000000  0  7G30G 5G17G24G 4G10G 9
  21788283.9294   -6235240.31749  -4820238.28546  21788283.6454   21788287.5984
       231.0004        182.0004
  20375163.7344  -14970595.99649 -11632584.46148  20375163.1184   20375167.2024
       250.0004        219.0004
  20835274.5524  -19390129.59149 -14587804.81847  20835273.8804   20835278.3694
       242.0004        212.0004
  20756391.7474   -9769443.31449  -7573283.81448  20756391.3194   20756396.0174
       244.0004        214.0004
  23056650.7154   10844930.89049   8465989.01246  23056650.8534   23056654.0374
       230.0004        180.0004
  22684667.2874  -11388717.74949  -8826619.58546  22684667.1124   22684670.8924
       222.0004        167.0004
  23403907.2944   10403305.31049   8140092.82346  23403907.0824   23403911.0854
       222.0004        167.0004
 04 10 13  3 37 30.0000000  0  7G30G 5G17G24G 4G10G 9
  21773002.8394   -6315542.79549  -4882811.64046  21773003.0744   21773006.7264
       232.0004        182.0004
  20370568.2644  -14994745.63749 -11651402.36148  20370567.7494   20370571.6594
       250.0004        219.0004
  20830419.7744  -19415641.49849 -14607684.21547  20830419.3114   20830423.5254
       242.0004        212.0004
  20765001.5584   -9724198.22749  -7538027.90848  20765001.3294   20765005.9554
       243.0004        213.0004
  23074798.5954   10940298.24549   8540301.22246  23074798.9694   23074801.9894
       229.0004        180.0004
  22666494.3624  -11484216.42749  -8901034.14446  22666493.5134   22666497.9464
       223.0004        168.0004
  23421531.1394   10495919.48949   8212259.69946  23421530.8624   23421534.6954
       222.0004        166.0004
 04 10 13  3 38  0.0000000  0  7G30G 5G17G24G 4G10G 9
  21757779.4044   -6395542.66449  -4945149.18046  21757779.5234   21757782.9954
       232.0004        183.0004
  20366067.6034  -15018396.68949 -11669831.74848  20366066.9654   20366070.8544
       247.0004        218.0004
  20825645.6074  -19440730.24349 -14627233.87147  20825645.1464   20825649.0974
       243.0004        212.0004
  20773683.4594   -9678574.54749  -7502476.98848  20773683.1984   20773687.8674
       244.0004        213.0004
  23092971.8634   11035799.33449   8614717.65646  23092971.8784   23092975.2054
       229.0004        180.0004
  22648363.5394  -11579494.69449  -8975276.94446  22648363.4444   22648367.5624
       226.0004        171.0004
  23439177.6934   10588652.78849   8284519.39346  23439177.6354   23439182.0384
       222.0004        167.0004
 04 10 13  3 38 30.0000000  0  7G30G 5G17G24G 4G10G 9
  21742614.0944   -6475237.26549  -5007248.86446  21742614.1914   21742617.7084
       232.0004        183.0004
  20361662.0264  -15041547.97249 -11687871.70648  20361661.4854   20361665.2394
       247.0004        217.0004
  20820951.8534  -19465396.09949 -14646454.00947  20820951.2654   20820955.3884
       242.0004        212.0004
  20782436.9784   -9632574.45849  -7466632.76548  20782436.8084   20782441.0684
       244.0004        213.0004
  23111170.0744   11131431.52249   8689236.22846  23111170.2704   23111173.6344
       227.0004        179.0004
  22630275.4504  -11674549.26349  -9049345.41246  22630274.9874   22630280.0654
       227.0004        174.0004
  23456846.3944   10681501.93249   8356869.35546  23456845.6044   23456851.3534
       222.0004        168.0004
 04 10 13  3 39  0.0000000  0  7G30G 5G17G24G 4G10G 9
  21727506.9494   -6554625.85149  -5069110.08546  21727507.4104   21727510.3104
       232.0004        184.0004
  20357351.5564  -15064199.55549 -11705522.28348  20357350.8894   20357354.6974
       246.0004        216.0004
  20816338.2434  -19489640.79749 -14665345.96747  20816337.7594   20816341.8474
       243.0004        211.0004
  20791261.3604   -9586202.09849  -7430498.45447  20791261.1094   20791265.2524
       245.0004        212.0004
  23129392.4744   11227191.06049   8763854.04146  23129392.1654   23129396.6424
       228.0004        178.0004
  22612230.2334  -11769378.26949  -9123238.10946  22612230.2094   22612233.6104
       226.0004        176.0004
  23474536.3564   10774462.42849   8429306.08446  23474536.4474   23474540.5024
       220.0004        169.0004
 04 10 13  3 39 30.0000000  0  7G30G 5G17G24G 4G10G 9
  21712458.9414   -6633703.43049  -5130728.96746  21712459.1174   21712461.9924
       233.0004        184.0004
  20353136.8834  -15086347.56049 -11722780.47048  20353136.1074   20353140.0864
       246.0004        215.0004
  20811805.2054  -19513462.18849 -14683908.08047  20811804.5084   20811808.6294
       243.0004        211.0004
  20800156.6984   -9539456.84049  -7394073.58347  20800156.3414   20800160.3414
       245.0004        212.0004
  23147639.0934   11323078.05949   8838571.17646  23147639.3634   23147642.9154
       227.0004        177.0004
  22594228.9224  -11863975.99549  -9196950.60546  22594228.0914   22594232.5314
       224.0004        176.0004
  23492247.2464   10867533.71349   8501829.12546  23492246.6564   23492251.2094
       218.0004        168.0004
 04 10 13  3 40  0.0000000  0  7G30G 5G17G24G 4G10G 9
  21697470.6654   -6712467.20749  -5192103.32746  21697470.8434   21697474.1774
       233.0004        185.0004
  20349018.2964  -15107990.80749 -11739645.33948  20349017.7384   20349021.4244
       246.0004        214.0004
  20807352.7484  -19536860.16949 -14702140.25747  20807352.1104   20807356.2684
       243.0004        212.0004
  20809122.6174   -9492340.58049  -7357359.60148  20809122.4744   20809126.3984
       246.0004        213.0004
  23165909.5974   11419090.40049   8913385.98446  23165909.0454   23165913.4024
       227.0004        176.0004
  22576272.3474  -11958338.87149  -9270480.08546  22576272.0224   22576276.2144
       223.0004        175.0004
  23509978.4304   10960712.78249   8574436.15446  23509977.5514   23509982.2404
       218.0004        167.0004
 04 10 13  3 40 30.0000000  0  7G30G 5G17G24G 4G10G 9
  21682542.5404   -6790915.11449  -5253231.55746  21682542.8584   21682546.2714
       234.0004        185.0004
  20344995.9554  -15129128.09749 -11756115.95348  20344995.2734   20344999.2124
       246.0004        214.0004
  20802980.7084  -19559835.42649 -14720043.03847  20802979.8174   20802984.2634
       242.0004        211.0004
  20818158.6804   -9444855.97549  -7320358.59748  20818158.6994   20818162.7074
       247.0004        214.0004
  23184203.4434   11515225.21649   8988296.22346  23184203.1904   23184207.0684
       226.0004        175.0004
  22558361.0494  -12052463.77649  -9343824.12746  22558360.4124   22558364.7824
       224.0004        174.0004
  23527729.4644   11053996.16449   8647124.47446  23527729.0424   23527733.4694
       218.0004        166.0004
 04 10 13  3 41  0.0000000  0  7G30G 5G17G24G 4G10G 9
  21667674.9114   -6869044.98649  -5314111.96846  21667674.8914   21667678.2164
       234.0004        186.0004
  20341070.0554  -15149758.58949 -11772191.66248  20341069.2214   20341073.3384
       245.0004        214.0004
  20798688.8974  -19582388.60049 -14737616.92747  20798688.1084   20798692.3684
       242.0004        211.0004
  20827264.4254   -9397005.54549  -7283072.54148  20827264.3554   20827268.6724
       247.0004        215.0004
  23202520.1204   11611479.98549   9063299.92646  23202521.0794   23202524.1424
       226.0004        174.0004
  22540495.6144  -12146348.03549  -9416980.66146  22540495.6304   22540499.5674
       224.0004        174.0004
  23545499.7894   11147380.27549   8719891.29346  23545499.7204   23545504.3044
       221.0004        168.0004
 04 10 13  3 41 30.0000000  0  7G30G 5G17G24G 4G10G 9
  21652868.1874   -6946854.77949  -5374742.96346  21652868.4714   21652871.6644
       234.0004        187.0004
  20337240.7674  -15169881.27749 -11787871.67548  20337240.1224   20337244.0864
       246.0004        215.0004
  20794477.3474  -19604520.28249 -14754862.37847  20794476.9534   20794480.7794
       244.0004        211.0004
  20836439.2474   -9348791.82149  -7245503.39348  20836438.9634   20836443.1264
       246.0004        215.0004
  23220859.1124   11707852.01649   9138395.00646  23220858.5144   23220862.8024
       225.0004        173.0004
  22522676.4004  -12239988.60149  -9489947.30346  22522675.0964   22522680.0754
       226.0004        173.0004
  23563288.8374   11240861.86649   8792734.07346  23563289.6444   23563293.5464
       222.0004        169.0004
 04 10 13  3 42  0.0000000  0  7G30G 5G17G24G 4G10G 9
  21638122.8764   -7024341.79049  -5435122.44247  21638122.8194   21638126.4044
       234.0004        188.0004
  20333508.4234  -15189494.74049 -11803154.88948  20333508.0354   20333511.9274
       247.0004        216.0004
  20790346.0644  -19626230.62049 -14771779.52047  20790345.5734   20790349.5994
       244.0004        211.0004
  20845682.7514   -9300216.71249  -7207652.65748  20845682.2544   20845686.5034
       244.0004        214.0004
  23239219.9934   11804339.04149   9213579.68746  23239220.7424   23239224.0804
       225.0004        172.0004
  22504904.1004  -12333382.03049  -9562721.40546  22504902.6804   22504907.1744
       226.0004        173.0004
  23581095.8764   11334437.93449   8865650.47746  23581096.0574   23581101.0034
       223.0004        170.0004
 04 10 13  3 42 30.0000000  0  7G30G 5G17G24G 4G10G 9
  21623439.5874   -7101502.64449  -5495247.78047  21623439.5544   21623443.0824
       234.0004        188.0004
  20329873.4534  -15208596.82149 -11818039.62748  20329872.8124   20329877.0554
       247.0004        217.0004
  20786294.9884  -19647519.13449 -14788367.96247  20786294.3584   20786298.4014
       244.0004        212.0004
  20854994.6974   -9251281.68549  -7169521.47247  20854993.8984   20854998.6964
       242.0004        212.0004
  23257602.5424   11900939.82649   9288853.01646  23257602.2174   23257606.1994
       225.0004        172.0004
  22487179.5924  -12426524.19049  -9635299.71146  22487178.6804   22487183.0054
       228.0004        174.0004
  23598920.3934   11428106.35649   8938638.83446  23598919.9184   23598925.4294
       223.0004        170.0004
 04 10 13  3 43  0.0000000  0  7G30G 5G17G24G 4G10G 9
  21608818.7304   -7178335.63149  -5555117.62247  21608819.0364   21608822.4834
       234.0004        189.0004
  20326335.8784  -15227187.07549 -11832525.53248  20326335.5314   20326339.3974
       247.0004        218.0004
  20782323.9934  -19668386.86149 -14804628.51747  20782323.2774   20782327.2514
       244.0004        211.0004
  20864374.5064   -9201989.74349  -7131112.17747  20864373.8054   20864378.8144
       243.0004        211.0004
  23276006.0574   11997651.09649   9364212.43646  23276006.4464   23276010.3914
       224.0004        171.0004
  22469503.4244  -12519412.49549  -9707680.22146  22469502.1974   22469506.5434
       227.0004        175.0004
  23616761.6114   11521862.76749   9011695.77146  23616761.2264   23616766.1274
       223.0004        169.0004
 04 10 13  3 43 30.0000000  0  7G30G 5G17G24G 4G10G 9
  21594260.8384   -7254837.97049  -5614729.81947  21594261.4744   21594264.4644
       234.0004        190.0004
  20322896.0104  -15245264.15349 -11846611.55948  20322895.5324   20322899.4124
       248.0004        218.0004
  20778433.0174  -19688833.73249 -14820561.13347  20778432.2714   20778436.4694
       243.0004        211.0004
  20873821.8904   -9152342.91149  -7092426.33647  20873821.4044   20873826.3144
       244.0004        211.0004
  23294430.2594   12094471.13449   9439656.60946  23294430.8514   23294434.9404
       223.0004        169.0004
  22451876.3524  -12612043.31749  -9779860.07346  22451874.9704   22451879.4934
       226.0004        175.0004
  23634619.1144   11615704.77549   9084819.40946  23634618.7844   23634623.8564
       225.0004        169.0004
 04 10 13  3 44  0.0000000  0  7G30G 5G17G24G 4G10G 9
  21579766.3154   -7331007.13249  -5674082.39547  21579766.3894   21579769.8444
       234.0004        191.0004
  20319553.9734  -15262826.97149 -11860296.86948  20319553.4464   20319557.3444
       248.0004        218.0004
  20774622.0034  -19708860.24749 -14836166.20347  20774621.1594   20774625.6184
       242.0004        210.0004
  20883336.5214   -9102343.10349  -7053465.44947  20883336.0974   20883341.0274
       245.0004        211.0004
  23312874.7534   12191397.55849   9515183.68046  23312874.5634   23312878.9124
       223.0004        168.0004
  22434298.8444  -12704413.34049  -9851836.69746  22434297.7194   22434303.0894
       223.0004        175.0004
  23652492.3944   11709629.28449   9158007.34546  23652492.2904   23652496.9844
       225.0004        168.0004
 04 10 13  3 44 30.0000000  0  7G30G 5G17G24G 4G10G 9
  21565335.6294   -7406840.75949  -5733173.51847  21565335.6694   21565339.4044
       234.0004        191.0004
  20316309.9804  -15279874.17249 -11873580.40548  20316309.5124   20316313.3924
       249.0004        218.0004
  20770890.9174  -19728466.79849 -14851444.01847  20770890.3324   20770894.4644
       243.0004        211.0004
  20892917.8954   -9051992.67949  -7014231.34147  20892917.7644   20892922.0834
       246.0004        211.0004
  23331339.0044   12288427.97849   9590791.79446  23331340.0394   23331343.2884
       221.0004        167.0004
  22416771.4914  -12796519.23649  -9923607.47746  22416769.6634   22416776.3274
       220.0004        174.0004
  23670380.7814   11803633.31849   9231257.24946  23670380.8164   23670385.6924
       224.0004        167.0004
 04 10 13  3 45  0.0000000  0  7G30G 5G17G24G 4G10G 9
  21550969.2414   -7482336.27549  -5792001.17747  21550969.5844   21550972.6184
       233.0004        191.0004
  20313164.4004  -15296404.48349 -11886461.17148  20313163.9694   20313167.8074
       249.0004        218.0004
  20767239.7844  -19747653.66749 -14866394.80947  20767239.4594   20767243.4834
       244.0004        211.0004
  20902565.5974   -9001293.85149  -6974725.75247  20902565.5654   20902569.6314
       247.0004        212.0004
  23349822.6594   12385560.35649   9666479.36046  23349823.6234   23349827.1054
       220.0004        165.0004
  22399294.9834  -12888357.55849  -9995169.74846  22399293.5924   22399299.7804
       220.0004        173.0004
  23688283.7394   11897713.69949   9304566.64346  23688283.7924   23688288.4104
       224.0004        166.0004
 04 10 13  3 45 30.0000000  0  7G30G 5G17G24G 4G10G 9
  21536667.7874   -7557490.86749  -5850563.18547  21536668.0154   21536671.5314
       233.0004        192.0004
  20310117.4414  -15312416.50849 -11898938.08348  20310117.0594   20310120.8084
       249.0004        219.0004
  20763668.5844  -19766420.78549 -14881018.52947  20763668.1524   20763672.4534
       243.0004        211.0004
  20912279.2404   -8950248.69549  -6934950.29747  20912279.1104   20912283.1844
       247.0004        212.0004
  23368325.2854   12482792.62549   9742244.74146  23368325.3454   23368328.2914
       220.0004        163.0004
  22381870.1724  -12979924.84849 -10066520.85446  22381869.6544   22381874.6604
       224.0004        174.0004
  23706200.7264   11991867.80549   9377933.46546  23706200.7694   23706205.7414
       223.0004        164.0004
 04 10 13  3 46  0.0000000  0  7G30G 5G17G24G 4G10G 9
  21522431.5874   -7632302.62949  -5908858.04347  21522431.8014   21522435.1144
       234.0004        192.0004
  20307169.1874  -15327909.71049 -11911010.70748  20307168.6904   20307172.3684
       248.0004        219.0004
  20760176.9784  -19784769.31949 -14895316.07347  20760176.3794   20760180.5414
       242.0004        211.0004
  20922058.2384   -8898859.79349  -6894906.98047  20922057.8614   20922062.1724
       246.0004        211.0004
  23386846.4744   12580122.21449   9818085.98045  23386846.5834   23386850.6404
       219.0004        161.0004
  22364497.7064  -13071218.11549 -10137658.43846  22364497.6704   22364501.8414
       228.0004        176.0004
  23724131.0184   12086091.91849   9451354.85146  23724130.3964   23724135.3104
       222.0004        163.0004
 04 10 13  3 46 30.0000000  0  7G30G 5G17G24G 4G10G 9
  21508261.1334   -7706769.07649  -5966883.82547  21508261.4504   21508264.7194
       234.0004        192.0004
  20304319.8714  -15342883.19849 -11922678.36848  20304319.4924   20304323.2604
       248.0004        219.0004
  20756764.8774  -19802699.79949 -14909287.86447  20756764.3514   20756768.6674
       243.0004        211.0004
  20931902.1704   -8847129.34649  -6854597.53347  20931901.7564   20931906.3324
       245.0004        211.0004
  23405385.6834   12677546.39149   9894000.91445  23405384.9694   23405390.2674
       218.0004        159.0004
  22347177.9934  -13162234.24949 -10208580.08646  22347177.3114   22347182.0064
       230.0004        178.0004
  23742073.9684   12180382.86349   9524828.30845  23742072.7954   23742078.9634
       221.0004        161.0004
 04 10 13  3 47  0.0000000  0  7G30G 5G17G24G 4G10G 9
  21494156.5804   -7780889.07849  -6024639.65347  21494156.9954   21494160.2624
       234.0004        193.0004
  20301569.4694  -15357336.74249 -11933940.86548  20301568.8364   20301572.7594
       247.0004        218.0004
  20753432.0864  -19820213.77449 -14922935.10847  20753431.4984   20753436.0314
       242.0004        211.0004
  20941810.4224   -8795061.01049  -6814024.79847  20941810.2264   20941814.5984
       245.0004        211.0004
  23423942.3054   12775062.02649   9969987.11445  23423942.4824   23423946.6374
       217.0004        158.0004
  22329911.3654  -13252971.41249 -10279284.36146  22329910.7344   22329916.0684
       230.0004        179.0004
  23760028.7734   12274736.24849   9598350.43545  23760028.1754   23760033.6214
       219.0004        159.0004
 04 10 13  3 47 30.0000000  0  7G30G 5G17G24G 4G10G 9
  21480118.9204   -7854657.58749  -6082121.59047  21480119.3634   21480122.5434
       235.0004        193.0004
  20298918.5994  -15371266.91749 -11944795.54448  20298917.9224   20298921.9854
       247.0004        218.0004
  20750178.9434  -19837309.13249 -14936256.15847  20750178.2414   20750182.6304
       242.0004        211.0004
  20951783.1184   -8742654.43749  -6773188.51247  20951782.9724   20951787.3924
       246.0004        212.0004
  23442516.4574   12872669.57649  10046044.93245  23442516.7834   23442519.5624
       216.0004        156.0004
  22312698.8944  -13343423.53849 -10349766.54046  22312698.6004   22312703.5644
       229.0004        179.0004
  23777995.4174   12369151.75749   9671920.93545  23777995.0674   23778000.2674
       218.0004        157.0004
 04 10 13  3 48  0.0000000  0  7G30G 5G17G24G 4G10G 9
  21466148.4684   -7928073.09849  -6139328.45847  21466148.6754   21466151.9284
       235.0004        194.0004
  20296367.3484  -15384673.61249 -11955242.31348  20296366.6884   20296370.6074
       246.0004        217.0004
  20747005.1444  -19853987.35749 -14949252.16647  20747004.4584   20747008.9914
       241.0004        211.0004
  20961819.6244   -8689912.62749  -6732090.99847  20961819.5744   20961823.7594
       245.0004        212.0004
  23461107.4644   12970365.62749  10122171.72245  23461108.1434   23461111.7494
       215.0004        154.0004
  22295541.1524  -13433588.35549 -10420024.82246  22295541.2084   22295545.9654
       229.0004        179.0004
  23795973.2124   12463625.26449   9745536.64745  23795973.8904   23795977.3714
       218.0004        156.0004
 04 10 13  3 48 30.0000000  0  7G30G 5G17G24G 4G10G 9
  21452245.7444   -8001132.65949  -6196257.96747  21452246.1894   21452249.4704
       235.0004        194.0004
  20293916.0104  -15397555.54949 -11965280.17948  20293915.6154   20293919.3774
       247.0004        218.0004
  20743910.7334  -19870248.41449 -14961923.11047  20743910.2104   20743914.5514
       241.0004        211.0004
  20971919.5174   -8636837.70249  -6690733.91448  20971919.3424   20971923.3904
       246.0004        213.0004
  23479715.0174   13068148.47849  10198366.14445  23479715.5714   23479719.1764
       216.0004        153.0004
  22278438.7604  -13523462.18149 -10490056.34446  22278438.1084   22278442.7384
       226.0004        178.0004
  23813961.6944   12558154.28449   9819195.59845  23813961.7074   23813965.0354
       217.0004        156.0004
 04 10 13  3 49  0.0000000  0  7G30G 5G17G24G 4G10G 9
  21438411.1094   -8073834.09849  -6252908.41947  21438411.4274   21438414.4744
       236.0004        194.0004
  20291564.7544  -15409911.64249 -11974908.30048  20291564.4024   20291568.2214
       248.0004        218.0004
  20740895.5774  -19886093.21149 -14974269.68947  20740895.0474   20740899.3044
       242.0004        212.0004
  20982082.3294   -8583431.88349  -6649118.98848  20982082.0374   20982086.2234
       246.0004        213.0004
  23498338.6204   13166015.75549  10274626.35445  23498339.3084   23498342.4614
       213.0004        151.0004
  22261392.2964  -13613042.00749 -10559858.75446  22261391.5494   22261395.8754
       225.0004        177.0004
  23831960.0054   12652735.59649   9892895.30645  23831960.1674   23831963.3624
       217.0004        156.0004
 04 10 13  3 49 30.0000000  0  7G30G 5G17G24G 4G10G 9
  21424645.1054   -8146174.54949  -6309277.59047  21424645.1674   21424648.6504
       236.0004        195.0004
  20289313.8124  -15421740.78849 -11984125.82048  20289313.3814   20289317.0054
       249.0004        219.0004
  20737959.6144  -19901521.70249 -14986291.87247  20737958.7004   20737963.3864
       241.0004        212.0004
  20992307.7214   -8529696.88849  -6607247.56547  20992307.3884   20992311.6094
       245.0004        212.0004
  23516977.9064   13263965.63349  10350950.91245  23516978.2154   23516982.0764
       213.0004        149.0004
  22244402.4654  -13702324.08649 -10629429.16746  22244401.7114   22244406.4064
       226.0004        178.0004
  23849967.6384   12747366.38649   9966633.56445  23849967.8314   23849971.1094
       216.0004        156.0004
 04 10 13  3 50  0.0000000  0  7G30G 5G17G24G 4G10G 9
  21410948.1264   -8218152.36349  -6365364.19147  21410948.5194   21410951.6174
       238.0004        195.0004
  20287163.1974  -15433042.55549 -11992932.39748  20287162.8794   20287166.3574
       249.0004        219.0004
  20735102.5774  -19916535.27149 -14997990.74547  20735102.0084   20735106.5074
       241.0004        212.0004
  21002595.0534   -8475636.22149  -6565122.36847  21002594.6164   21002598.7224
       245.0004        211.0004
  23535632.3694   13361995.12449  10427337.52245  23535632.8304   23535636.3684
       210.0004        148.0004
  22227469.7984  -13791305.88349 -10698765.60746  22227469.3434   22227473.6784
       229.0004        180.0004
  23867983.9364   12842042.99449  10040407.53645  23867984.0684   23867988.0214
       215.0004        154.0004
 04 10 13  3 50 30.0000000  0  7G30G 5G17G24G 4G10G 9
  21397321.0114   -8289763.65649  -6421165.17947  21397321.6924   21397324.4964
       239.0004        196.0004
  20285113.3584  -15443814.72049 -12001326.29748  20285112.9594   20285116.6024
       249.0004        219.0004
  20732324.7774  -19931132.99049 -15009365.57947  20732324.1014   20732328.7424
       240.0004        212.0004
  21012944.3254   -8421250.34449  -6522743.76247  21012944.1714   21012948.1564
       245.0004        210.0004
  23554301.8004   13460103.77049  10503785.80445  23554301.9864   23554306.5264
       210.0004        146.0004
  22210595.2204  -13879982.71349 -10767864.41546  22210594.7154   22210598.3954
       231.0004        182.0004
  23886008.7194   12936763.81249  10114215.94145  23886008.7304   23886013.1244
       215.0004        154.0004
 04 10 13  3 51  0.0000000  0  7G30G 5G17G24G 4G10G 9
  21383763.9934   -8361006.92349  -6476679.39847  21383764.1484   21383767.2494
       239.0004        196.0004
  20283164.3174  -15454057.22849 -12009307.47248  20283163.8284   20283167.4374
       249.0004        220.0004
  20729625.7404  -19945316.32649 -15020417.52047  20729625.0994   20729629.4084
       241.0004        212.0004
  21023354.8414   -8366542.73249  -6480114.44247  21023354.4054   21023358.6504
       244.0004        209.0004
  23572985.6664   13558288.38249  10580293.28345  23572985.8314   23572989.7824
       208.0004        144.0004
  22193779.1004  -13968352.59149 -10836724.04546  22193778.7574   22193783.1114
       232.0004        184.0004
  23904041.2964   13031524.89249  10188055.73645  23904041.0974   23904045.1364
       217.0004        156.0004
 04 10 13  3 51 30.0000000  0  7G30G 5G17G24G 4G10G 9
  21370277.3484   -8431879.98249  -6531905.15147  21370277.4454   21370280.5504
       239.0004        196.0004
  20281316.0844  -15463769.67649 -12016875.61648  20281315.3684   20281319.2164
       249.0004        220.0004
  20727005.4174  -19959086.22449 -15031147.30947  20727004.7934   20727009.1814
       241.0004        212.0004
  21033826.0474   -8311516.04349  -6437236.50147  21033825.8854   21033830.1664
       244.0004        209.0004
  23591683.4924   13656546.24849  10656857.84945  23591683.1984   23591687.3204
       208.0004        143.0004
  22177021.9804  -14056412.32849 -10905342.00346  22177021.4384   22177026.4844
       229.0004        183.0004
  23922080.8254   13126322.85049  10261924.26545  23922080.5384   23922085.0034
       217.0004        157.0004
 04 10 13  3 52  0.0000000  0  7G30G 5G17G24G 4G10G 9
  21356861.6174   -8502379.91249  -6586840.16147  21356861.7024   21356864.7214
       239.0004        196.0004
  20279568.9934  -15472950.54249 -12024029.54748  20279568.4774   20279571.9504
       249.0004        219.0004
  20724463.7464  -19972442.69949 -15041554.94647  20724463.2434   20724467.6114
       241.0004        212.0004
  21044357.7264   -8256171.79149  -6394111.11147  21044357.5344   21044361.8944
       244.0004        209.0004
  23610395.0384   13754875.90749  10733478.35145  23610395.2834   23610398.3014
       206.0004        141.0004
  22160324.3584  -14144158.14649 -10973715.33946  22160322.8484   22160328.7254
       225.0004        180.0004
  23940126.8534   13221155.28549  10335819.65445  23940125.5264   23940130.9304
       218.0004        157.0004
 04 10 13  3 52 30.0000000  0  7G30G 5G17G24G 4G10G 9
  21343517.3424   -8572504.09249  -6641482.37747  21343517.6404   21343520.4604
       239.0004        195.0004
  20277923.3234  -15481598.74349 -12030768.40748  20277922.8264   20277926.3584
       248.0004        219.0004
  20722000.7384  -19985386.02949 -15051640.64647  20722000.0584   20722004.6764
       242.0004        212.0004
  21054949.5164   -8200511.94849  -6350739.80647  21054949.2924   21054953.6764
       244.0004        209.0004
  23629119.8194   13853275.57549  10810153.40545  23629119.1514   23629124.2664
       205.0004        138.0004
  22143687.0484  -14231586.41949 -11041841.23846  22143685.4764   22143691.1924
       225.0004        177.0004
  23958178.8354   13316019.48149  10409739.78845  23958178.9684   23958183.1984
       217.0004        159.0004
 04 10 13  3 53  0.0000000  0  7G30G 5G17G24G 4G10G 9
  21330245.1114   -8642249.93149  -6695829.78347  21330245.6184   21330248.3724
       240.0004        195.0004
  20276379.1864  -15489713.25549 -12037091.40148  20276378.5054   20276382.2684
       248.0004        219.0004
  20719616.2244  -19997916.89249 -15061404.93047  20719615.5094   20719620.0034
       242.0004        212.0004
  21065600.8504   -8144538.79449  -6307124.36747  21065600.3184   21065605.0794
       244.0004        209.0004
  23647857.5664   13951743.29049  10886881.49245  23647858.9384   23647862.2864
       203.0004        137.0004
  22127110.9254  -14318694.07649 -11109717.30946  22127110.4004   22127114.8094
       229.0004        178.0004
  23976236.2684   13410912.25649  10483682.19745  23976235.6774   23976240.9714
       216.0004        159.0004
 04 10 13  3 53 30.0000000  0  7G30G 5G17G24G 4G10G 9
  21317045.2464   -8711615.61449  -6749880.96347  21317045.6364   21317048.5014
       240.0004        195.0004
  20274936.6054  -15497293.85849 -12042998.36348  20274935.9644   20274939.6324
       247.0004        218.0004
  20717309.8984  -20010036.48449 -15070848.75847  20717309.3554   20717313.4104
       242.0004        212.0004
  21076311.1934   -8088255.24749  -6263267.06347  21076310.6444   21076315.4274
       244.0004        210.0004
  23666607.6314   14050276.19349  10963660.35745  23666607.0594   23666611.6744
       202.0004        135.0004
  22110596.6054  -14405478.49849 -11177341.50846  22110596.4234   22110599.8624
       232.0004        182.0004
  23994298.4224   13505830.14249  10557644.17745  23994297.9934   23994302.8874
       216.0004        158.0004
 04 10 13  3 54  0.0000000  0  7G30G 5G17G24G 4G10G 9
  21303918.2964   -8780598.34449  -6803633.74147  21303918.1144   21303921.9444
       239.0004        195.0004
  20273595.8754  -15504339.25349 -12048488.27348  20273595.1424   20273599.0154
       247.0004        217.0004
  20715081.8614  -20021744.87249 -15079972.16347  20715081.4184   20715085.4014
       242.0004        212.0004
  21087080.3644   -8031662.65049  -6219168.92647  21087080.0884   21087084.5784
       245.0004        210.0004
  23685369.7974   14148872.70149  11040488.79145  23685370.0504   23685375.1754
       202.0004        134.0004
  22094144.4884  -14491935.66749 -11244710.71946  22094143.4834   22094147.9144
       232.0004        184.0004
  24012364.9264   13600770.67749  10631623.81445  24012364.5064   24012369.3324
       217.0004        159.0004
 04 10 13  3 54 30.0000000  0  7G30G 5G17G24G 4G10G 9
  21290864.2594   -8849197.63649  -6857087.73447  21290864.4014   21290867.5424
       240.0004        194.0004
  20272356.7854  -15510850.55149 -12053562.01148  20272356.0404   20272359.9374
       247.0004        217.0004
  20712931.6044  -20033044.62549 -15088777.15847  20712931.0064   20712935.1454
       241.0004        212.0004
  21097907.4694   -7974765.54949  -6174833.51947  21097907.0334   21097911.3764
       245.0004        211.0004
  23704143.2894   14247528.62549  11117363.51145  23704142.3044   23704148.2684
       202.0004        133.0004
  22077754.6834  -14578064.53249 -11311824.11346  22077754.0094   22077758.1484
       231.0004        184.0004
  24030434.9004   13695728.80749  10705617.14745  24030435.0664   24030440.0874
       219.0004        161.0004
 04 10 13  3 55  0.0000000  0  7G30G 5G17G24G 4G10G 9
  21277884.2514   -8917408.03749  -6910238.69747  21277884.2574   21277887.4324
       239.0004        194.0004
  20271219.9914  -15516824.08349 -12058216.70948  20271219.2574   20271223.4014
       247.0004        217.0004
  20710859.4924  -20043933.45749 -15097261.95047  20710858.6614   20710863.2174
       241.0004        212.0004
  21108792.6854   -7917563.26549  -6130260.31647  21108792.5274   21108796.5244
       245.0004        211.0004
  23722928.2504   14346245.03049  11194285.38644  23722927.2094   23722935.4874
       200.0004        131.0004
  22061428.4914  -14663858.91649 -11378676.85546  22061427.3724   22061431.5864
       228.0004        183.0004
  24048508.2774   13790704.57349  10779624.23146  24048508.1444   24048512.9014
       218.0004        163.0004
 04 10 13  3 55 30.0000000  0  7G30G 5G17G24G 4G10G 9
  21264978.5234   -8985228.17849  -6963085.55647  21264978.9114   21264981.4644
       238.0004        194.0004
  20270185.5624  -15522260.09049 -12062452.55348  20270184.9434   20270188.9224
       248.0004        218.0004
  20708865.2364  -20054413.06149 -15105427.85647  20708864.5914   20708869.1044
       242.0004        212.0004
  21119735.4074   -7860058.93249  -6085451.73947  21119735.1924   21119739.1674
       245.0004        211.0004
  23741724.2034   14445019.07849  11271252.17644  23741722.8774   23741729.1934
       202.0004        129.0004
  22045166.2464  -14749316.74649 -11445267.33946  22045165.0704   22045169.7304
       228.0004        181.0004
  24066584.2244   13885694.11649  10853642.04846  24066583.9814   24066588.8894
       218.0004        163.0004
 04 10 13  3 56  0.0000000  0  7G30G 5G17G24G 4G10G 9
  21252147.6084   -9052654.81549  -7015625.78447  21252147.3154   21252150.5614
       237.0004        194.0004
  20269253.6564  -15527157.33149 -12066268.58748  20269253.2784   20269256.9924
       248.0004        218.0004
  20706948.9334  -20064483.29649 -15113274.78047  20706948.1684   20706952.7824
       241.0004        212.0004
  21130735.2644   -7802254.25149  -6040409.12547  21130735.0574   21130739.5554
       244.0004        210.0004
  23760530.9524   14543849.37049  11348262.78144  23760532.8154   23760535.8654
       201.0004        127.0004
  22028968.9854  -14834433.71949 -11511592.23046  22028968.0334   22028972.2484
       229.0004        181.0004
  24084662.3074   13980695.33949  10927668.96445  24084662.3654   24084667.3054
       218.0004        162.0004
 04 10 13  3 56 30.0000000  0  7G30G 5G17G24G 4G10G 9
  21239391.7774   -9119686.63749  -7067858.36747  21239391.7754   21239395.0584
       236.0004        194.0004
  20268424.2894  -15531515.76349 -12069664.77548  20268423.8724   20268427.7764
       248.0004        219.0004
  20705110.1654  -20074145.91049 -15120804.08047  20705109.6014   20705113.7384
       241.0004        212.0004
  21141791.6354   -7744152.45849  -5995135.00647  21141791.2824   21141795.9044
       243.0004        208.0004
  23779347.8754   14642732.64549  11425314.66244  23779349.1694   23779352.5854
       202.0004        127.0004
  22012837.0114  -14919207.73849 -11577649.89346  22012835.8714   22012840.7184
       231.0004        182.0004
  24102741.7754   14075704.19849  11001701.81645  24102742.1294   24102746.6714
       217.0004        161.0004
 04 10 13  3 57  0.0000000  0  7G30G 5G17G24G 4G10G 9
  21226711.6154   -9186321.04449  -7119781.27047  21226711.6034   21226715.0584
       235.0004        194.0004
  20267697.6484  -15535334.40249 -12072640.34248  20267697.1454   20267700.9494
       248.0004        219.0004
  20703348.8854  -20083401.44449 -15128016.17347  20703348.2604   20703352.2984
       241.0004        211.0004
  21152904.2584   -7685755.44649  -5949630.84747  21152904.4094   21152908.6104
       243.0004        208.0004
  23798174.5664   14741666.93749  11502406.30544  23798176.9754   23798179.1904
       200.0004        126.0004
  21996770.9664  -15003635.54249 -11643437.78046  21996769.9034   21996774.9044
       232.0004        184.0004
  24120822.5004   14170718.14349  11075738.64845  24120822.8824   24120826.9454
       221.0004        162.0004
 04 10 13  3 57 30.0000000  0  7G30G 5G17G24G 4G10G 9
  21214107.4594   -9252556.27149  -7171393.11747  21214107.8794   21214110.9044
       236.0004        195.0004
  20267073.6824  -15538613.26949 -12075195.30248  20267073.0674   20267076.7014
       247.0004        218.0004
  20701664.8244  -20092251.06549 -15134911.97247  20701664.2064   20701668.5234
       241.0004        211.0004
  21164072.5514   -7627066.06649  -5903898.86147  21164072.5474   21164076.5364
       244.0004        207.0004
  23817010.5634   14840650.02949  11579535.98244  23817012.3354   23817014.5014
       201.0004        125.0004
  21980771.2434  -15087714.52349 -11708953.85946  21980770.3394   21980775.3314
       230.0004        185.0004
  24138903.5354   14265733.39649  11149776.51045  24138903.3354   24138907.5904
       220.0004        162.0004
 04 10 13  3 58  0.0000000  0  7G30G 5G17G24G 4G10G 9
  21201579.8974   -9318389.31349  -7222691.57447  21201580.1514   21201583.2584
       237.0004        196.0004
  20266552.6074  -15541351.25849 -12077328.79848  20266551.7884   20266555.5264
       247.0004        217.0004
  20700058.0314  -20100694.90549 -15141491.57147  20700057.3484   20700061.9004
       241.0004        212.0004
  21175296.0654   -7568086.21149  -5857940.52847  21175295.6084   21175299.8334
       243.0004        206.0004
  23835855.6344   14939680.49849  11656702.56544  23835855.9704   23835861.2964
       201.0004        124.0004
  21964838.5634  -15171440.58349 -11774194.92446  21964837.7194   21964842.8024
       230.0004        185.0004
  24156984.2584   14360747.78449  11223813.69945  24156984.0584   24156988.4624
       218.0004        161.0004
 04 10 13  3 58 30.0000000  0  7G30G 5G17G24G 4G10G 9
  21189129.3374   -9383817.79849  -7273674.79147  21189129.5914   21189132.7284
       237.0004        198.0004
  20266134.5924  -15543547.46049 -12079040.12148  20266133.9674   20266137.8204
       247.0004        216.0004
  20698528.2194  -20108733.87949 -15147755.69047  20698527.3584   20698531.8354
       241.0004        212.0004
  21186574.3694   -7508817.90549  -5811757.42447  21186573.8604   21186578.4364
       244.0004        206.0004
  23854709.3694   15038756.20949  11733904.41344  23854710.0684   23854711.0764
       198.0004        121.0004
  21948973.7264  -15254810.75349 -11839158.66246  21948973.1824   21948977.7844
       230.0004        185.0004
  24175064.0644   14455758.18149  11297847.76545  24175063.3724   24175068.6644
       217.0004        160.0004
 04 10 13  3 59  0.0000000  0  7G30G 5G17G24G 4G10G 9
  21176756.1784   -9448839.10649  -7324340.73147  21176756.4374   21176759.5894
       237.0004        199.0004
  20265819.8654  -15545201.20349 -12080328.75548  20265819.1554   20265823.1754
       246.0004        216.0004
  20697075.3874  -20116368.41549 -15153704.66547  20697074.8034   20697079.0924
       241.0004        212.0004
  21197907.1104   -7449263.51349  -5765351.39447  21197906.8244   21197911.4514
       244.0004        207.0004
  23873571.2174   15137875.35349  11811140.08844  23873568.7524   23873574.4974
       198.0004        119.0004
  21933177.1884  -15337821.85849 -11903842.61646  21933176.4584   21933181.4504
       230.0004        185.0004
  24193142.5974   14550762.03149  11371876.71345  24193142.1164   24193148.0524
       215.0004        158.0004
 04 10 13  3 59 30.0000000  0  7G30G 5G17G24G 4G10G 9
  21164461.0814   -9513449.98949  -7374686.85547  21164461.2284   21164464.5494
       238.0004        200.0004
  20265608.6234  -15546311.08349 -12081193.60248  20265608.1314   20265612.0924
       246.0004        216.0004
  20695699.5164  -20123598.49849 -15159338.48847  20695698.7864   20695703.3544
       241.0004        212.0004
  21209294.1394   -7389424.18249  -5718723.33447  21209293.9314   21209298.3064
       244.0004        207.0004
  23892441.1034   15237036.84749  11888408.79544  23892439.3084   23892443.9774
       197.0004        119.0004
  21917449.8144  -15420469.70249 -11968243.52746  21917448.9564   21917454.1024
       231.0004        186.0004
  24211219.4884   14645757.29049  11445898.97945  24211218.4624   24211224.1234
       216.0004        157.0004
 04 10 13  4  0  0.0000000  0  7G30G 5G17G24G 4G10G 9
  21152244.4304   -9577648.87649  -7424711.94647  21152244.6564   21152247.7694
       239.0004        201.0004
  20265500.9544  -15546877.13949 -12081634.68448  20265500.4764   20265504.1884
       247.0004        216.0004
  20694400.3554  -20130425.52749 -15164658.23647  20694399.5754   20694404.4024
       241.0004        212.0004
  21220734.8624   -7329302.99849  -5671875.65147  21220734.5814   21220738.9964
       244.0004        208.0004
  23911318.5334   15336238.27149  11965708.58044  23911318.4394   23911322.4894
       195.0004        119.0004
  21901792.1114  -15502751.89649 -12032359.50346  21901791.0664   21901795.9624
       231.0004        186.0004
  24229294.1544   14740740.48449  11519911.85545  24229293.8794   24229298.1714
       215.0004        157.0004
 04 10 13  4  0 30.0000000  0  7G30G 5G17G24G 4G10G 9
  21140106.5094   -9641433.89649  -7474414.54347  21140106.6594   21140109.8884
       240.0004        202.0004
  20265496.7974  -15546899.19249 -12081651.86248  20265496.2794   20265499.9634
       246.0004        216.0004
  20693177.6384  -20136850.70449 -15169664.85247  20693177.0824   20693181.6874
       241.0004        212.0004
  21232228.7634   -7268902.50249  -5624810.32347  21232228.7144   21232232.7804
       245.0004        209.0004
  23930203.1044   15435476.79349  12043037.30844  23930205.3644   23930203.9834
       198.0004        117.0004
  21886204.4594  -15584665.42549 -12096188.21146  21886203.1774   21886208.1434
       230.0004        185.0004
  24247365.8464   14835708.23049  11593912.69845  24247365.3684   24247369.0044
       214.0004        154.0004
 04 10 13  4  1  0.0000000  0  7G30G 5G17G24G 4G10G 9
  21128048.1424   -9704801.19349  -7523791.64247  21128048.5564   21128051.7314
       241.0004        203.0004
  20265596.4254  -15546375.40549 -12081243.71848  20265595.9004   20265599.7654
       246.0004        216.0004
  20692031.5434  -20142873.47949 -15174357.91547  20692031.1554   20692035.6584
       241.0004        212.0004
  21243775.6234   -7208223.66549  -5577528.11147  21243775.5504   21243779.4794
       243.0004        209.0004
  23949094.6764   15534752.39748  12120394.91244  23949092.4684   23949097.5254
       192.0004        116.0004
  21870687.6304  -15666206.16949 -12159726.43546  21870686.5494   21870691.6424
       230.0004        185.0004
  24265434.3024   14930658.83049  11667900.18145  24265434.3394   24265439.0474
       214.0004        153.0004
 04 10 13  4  1 30.0000000  0  7G30G 5G17G24G 4G10G 9
  21116069.4374   -9767749.81249  -7572842.50547  21116069.9294   21116072.6454
       242.0004        204.0004
  20265799.8154  -15545306.73749 -12080410.98748  20265799.4294   20265803.2284
       247.0004        216.0004
  20690961.6594  -20148496.01949 -15178739.11047  20690961.2864   20690965.4494
       241.0004        212.0004
  21255374.7484   -7147270.02249  -5530031.77447  21255374.3714   21255378.7474
       242.0004        209.0004
  23967992.5614   15634061.26448  12197778.40444  23967993.1544   23967995.4144
       193.0004        114.0004
  21855242.1074  -15747372.24649 -12222972.70846  21855241.3914   21855246.2834
       230.0004        185.0004
  24283498.8394   15025588.15749  11741871.09245  24283499.1134   24283502.7894
       212.0004        151.0004
 04 10 13  4  2  0.0000000  0  7G30G 5G17G24G 4G10G 9
  21104170.5864   -9830278.97449  -7621566.52247  21104171.1064   21104173.8804
       242.0004        204.0004
  20266106.7494  -15543694.19049 -12079154.46248  20266106.1474   20266110.0344
       248.0004        217.0004
  20689967.4774  -20153720.59649 -15182810.21247  20689966.9344   20689971.3914
       241.0004        212.0004
  21267025.4074   -7086045.32049  -5482324.22947  21267025.1754   21267029.6024
       241.0004        208.0004
  23986896.1594   15733400.28748  12275185.46344  23986900.4944   23986898.4644
       191.0004        113.0004
  21839868.3474  -15828161.78749 -12285925.58346  21839867.6744   21839872.5264
       231.0004        186.0004
  24301558.5294   15120491.86249  11815822.00845  24301558.6114   24301563.1364
       212.0004        150.0004
 04 10 13  4  2 30.0000000  0  7G30G 5G17G24G 4G10G 9
  21092352.4724   -9892383.85649  -7669959.93047  21092352.6284   21092355.4164
       243.0004        203.0004
  20266517.6264  -15541534.82349 -12077471.84148  20266517.1324   20266520.8744
       247.0004        217.0004
  20689049.3174  -20158545.56249 -15186569.91347  20689048.6404   20689053.0124
       241.0004        212.0004
  21278727.7084   -7024549.11349  -5434405.11447  21278727.1544   21278731.9034
       240.0004        207.0004
  24005805.5334   15832769.86048  12352616.28944  24005803.0684   24005806.7914
       193.0004        113.0004
  21824567.3894  -15908569.51449 -12348580.92847  21824566.6574   21824571.8054
       232.0004        188.0004
  24319613.1724   15215369.57749  11889752.67445  24319612.4434   24319617.7744
       212.0004        150.0004
 04 10 13  4  3  0.0000000  0  7G30G 5G17G24G 4G10G 9
  21080615.3684   -9954062.57749  -7718021.26647  21080615.4544   21080618.6414
       242.0004        202.0004
  20267032.6864  -15538828.43349 -12075362.97248  20267032.4154   20267036.1434
       248.0004        218.0004
  20688206.9274  -20162972.14549 -15190019.18947  20688206.3134   20688210.7344
       241.0004        212.0004
  21290481.0744   -6962784.16049  -5386276.58847  21290480.2774   21290485.3104
       238.0004        205.0004
  24024720.4584   15932167.80948  12430069.19844  24024718.7434   24024722.0504
       194.0004        112.0004
  21809339.6404  -15988592.64649 -12410936.58147  21809339.2394   21809343.3934
       233.0004        189.0004
  24337662.2264   15310217.95849  11963660.50245  24337662.1974   24337666.7954
       212.0004        149.0004
 04 10 13  4  3 30.0000000  0  7G30G 5G17G24G 4G10G 9
  21068959.7974  -10015312.66549  -7765748.60747  21068959.8834   21068963.1814
       241.0004        201.0004
  20267652.0054  -15535574.29149 -12072827.27848  20267651.5174   20267655.1744
       247.0004        217.0004
  20687440.3154  -20167000.96949 -15193158.52647  20687439.7434   20687443.9704
       242.0004        212.0004
  21302285.1814   -6900752.60849  -5337940.32647  21302284.6954   21302289.4144
       239.0004        204.0004
  24043640.3864   16031592.32648  12507542.82844                  24043647.1894
       190.0004        109.0004
  21794185.6564  -16068227.95449 -12472990.03847  21794184.8804   21794189.7194
       233.0004        189.0004
  24355705.1974   15405034.48849  12037543.52845  24355704.9364   24355709.7074
       212.0004        149.0004
 04 10 13  4  4  0.0000000  0  7G30G 5G17G24G 4G10G 9
  21057386.3094  -10076131.54849  -7813139.94447  21057386.4254   21057389.7184
       240.0004        199.0004
  20268375.6164  -15531771.71949 -12069864.24448  20268375.0364   20268378.6014
       247.0004        217.0004
  20686749.2264  -20170632.80649 -15195988.52447  20686748.4524   20686752.7724
       241.0004        212.0004
  21314139.7104   -6838456.55849  -5289397.96047  21314139.4484   21314143.8294
       240.0004        205.0004
  24062565.0124   16131041.94248  12585036.00544  24062563.5544   24062570.2154
       191.0004        110.0004
  21779105.9554  -16147472.13549 -12534738.72347  21779105.0794   21779109.6054
       232.0004        189.0004
  24373741.6324   15499816.30149  12111399.49145  24373741.3504   24373746.6154
       208.0004        146.0004
 04 10 13  4  4 30.0000000  0  7G30G 5G17G24G 4G10G 9
  21045895.3744  -10136516.94849  -7860193.50547  21045895.7404   21045898.4384
       240.0004        198.0004
  20269203.5474  -15527420.67149 -12066473.82248  20269202.9434   20269206.5234
       248.0004        217.0004
  20686133.4394  -20173868.54449 -15198509.87747  20686132.9484   20686137.0764
       241.0004        212.0004
  21326044.2074   -6775898.38149  -5240651.33647  21326044.1774   21326048.4464
       241.0004        205.0004
  24081493.9574   16230514.51048  12662547.06944  24081494.0694   24081494.6934
       189.0004        107.0004
  21764101.1374  -16226322.12649 -12596180.26947  21764099.9574   21764104.9634
       232.0004        188.0004
  24391770.8544   15594560.69649  12185226.28145  24391769.6694   24391775.4584
       207.0004        143.0004
 04 10 13  4  5  0.0000000  0  7G30G 5G17G24G 4G10G 9
  21034487.2594  -10196466.97449  -7906907.81247  21034487.2874   21034490.3084
       238.0004        197.0004
  20270135.9094  -15522521.40749 -12062656.22248  20270135.5374   20270138.9784
       248.0004        217.0004
  20685592.8124  -20176709.48449 -15200723.59247  20685592.0034   20685596.6864
       240.0004        212.0004
  21337998.0304   -6713080.79349  -5191702.56447  21337997.9814   21338001.9784
       242.0004        205.0004
  24100427.1064   16330007.89348  12740074.33944                  24100427.4014
       185.0004        106.0004
  21749171.9314  -16304775.32349 -12657312.61347  21749170.9524   21749175.9014
       233.0004        189.0004
  24409792.3194   15689264.43049  12259021.37345  24409792.6524   24409796.7164
       210.0004        140.0004
 04 10 13  4  5 30.0000000  0  7G30G 5G17G24G 4G10G 9
  21023162.2754  -10255979.83949  -7953281.46747  21023162.3584   21023165.7014
       237.0004        196.0004
  20271172.6734  -15517073.41549 -12058411.04148  20271172.2794   20271175.7194
       248.0004        217.0004
  20685127.0904  -20179156.72149 -15202630.51947  20685126.4854   20685131.0034
       241.0004        212.0004
  21350000.7944   -6650005.84749  -5142553.25147  21350000.6224   21350004.6414
       244.0004        205.0004
                  16429519.90648  12817616.15944
       183.0004        106.0004
  21734318.9304  -16382828.66149 -12718133.37447  21734318.1554   21734322.8924
       234.0004        189.0004
  24427805.5984   15783924.55549  12332782.52545  24427804.7834   24427809.6634
       207.0004        140.0004
 04 10 13  4  6  0.0000000  0  7G30G 5G17G24G 4G10G 9
  21011920.1104  -10315059.18959  -7999317.00246                  21011742.3034
       237.0004        170.0004
  20272941.7844  -15511082.70959 -12053742.61147                  20272735.1874
       248.0004        192.0004
  20684735.0434  -20181219.35659 -15204237.84647  20684736.7254   20684741.0604
       241.0004        212.0004
  21362051.4944   -6586681.07259  -5093208.68247  21362052.9684   21362057.0424
       243.0004        204.0004
                  16529045.59958  12895168.60144
       184.0004        105.0004
  21719541.9114  -16460484.32559 -12778643.67547  21719542.8534   21719547.3124
       234.0004        188.0004
  24445809.8054   15878535.86459  12406505.87845  24445811.2774   24445815.9474
       206.0004        140.0004
 04 10 13  4  6 30.0000000  0  7G30G 5G17G24G 4G10G 9
  21000763.5884  -10373689.56649  -8045002.97947  21000765.3734   21000768.1794
       237.0004        189.0004
  20274188.2534  -15504535.55549 -12048640.91346                  20274030.1714
       249.0004        165.0004
  20684419.4894  -20182880.85449 -15205532.51947  20684420.4744   20684424.7744
       241.0004        212.0004
  21374151.5424   -6523097.77449  -5043663.25347  21374152.7124   21374156.5414
       243.0004        204.0004
                  16628590.50858  27809251.01443
       185.0004         74.0004
  21704843.4734  -16537727.96949 -12838833.50947  21704843.9994   21704848.7584
       234.0004        190.0004
  24463805.3104   15973101.12149  12480193.06645  24463805.7204   24463811.5694
       203.0004        139.0004
 04 10 13  4  7  0.0000000  0  7G30G 5G17G24G 4G10G 9
  20989691.5994  -10431874.87349  -8090342.16747  20989692.5384   20989696.0524
       238.0004        197.0004
                 -15497437.93449 -12043110.32045
       249.0004        151.0004
  20684178.2334  -20184150.70049 -15206522.00348  20684178.8414   20684183.2904
       241.0004        213.0004
  21386299.2164   -6459263.12049  -4993921.95347  21386299.8534   21386303.8044
       243.0004        203.0004
                  16728149.50458  27886808.05543
       182.0004         74.0004
  21690222.7054  -16614561.98349 -12898704.14847  21690222.0724   21690227.2354
       234.0004        190.0004
  24481790.9964   16067615.17049  12553840.37445  24481791.5284   24481795.1964
       202.0004        136.0004
 04 10 13  4  7 30.0000000  0  7G30G 5G17G24G 4G10G 9
  20978704.3194  -10489614.84549  -8135334.34747  20978705.2354   20978708.6004
       239.0004        200.0004
                 -15489791.41249                  21784733.98447  20276369.8494
       249.0004        202.0004
  20684010.9394  -20185031.37749 -15207208.24148  20684011.2874   20684015.7454
       241.0004        213.0004
  21398493.8164   -6395181.20949  -4943987.98447  21398494.2714   21398498.1454
       242.0004        202.0004
                  16827718.98458  27964345.27243
       181.0004         74.0004
  21675680.0014  -16690985.05449 -12958254.58247  21675679.7994   21675684.4674
       234.0004        190.0004
  24499765.9224   16162073.56349  12627444.31945  24499765.4354   24499770.1454
       200.0004        133.0004
 04 10 13  4  8  0.0000000  0  7G30G 5G17G24G 4G10G 9
  20967802.4954  -10546905.64449  -8179976.51647  20967803.5524   20967806.5294
       240.0004        202.0004
  20277925.7844  -15481594.03849  21791121.54548  20277925.8544   20277929.7414
       249.0004        215.0004
  20683917.7544  -20185522.33649 -15207590.79748  20683917.8424   20683922.3784
       242.0004        213.0004
  21410735.2174   -6330852.95549  -4893862.05947  21410735.3964   21410739.6064
       240.0004        201.0004
                  16927298.75858  28047900.09243
       186.0004         74.0004
  21661216.2904  -16766992.72549 -13017481.32747  21661216.0424   21661220.3034
       234.0004        189.0004
  24517729.7694   16256474.87549  12701003.77444  24517728.8794   24517737.2924
       197.0004        130.0004
 04 10 13  4  8 30.0000000  0  7G30G 5G17G24G 4G10G 9
  20956986.6024  -10603744.80249  -8224266.75547  20956987.4004   20956990.4074
       242.0004        204.0004
  20279590.7024  -15472845.71649  21797938.41148  20279590.4224   20279594.3534
       249.0004        217.0004
  20683898.5604  -20185624.33749 -15207670.26848  20683898.5354   20683902.8894
       242.0004        213.0004
  21423023.0864   -6266280.02449  -4843545.48547  21423022.9004   21423027.4294
       239.0004        201.0004
                  17026887.09158  28125505.35443
       180.0004         74.0004
  21646832.3134  -16842581.89849 -13076381.96147  21646832.0004   21646836.2164
       235.0004        190.0004
  24535682.3054   16350816.45849  12774516.70144  24535684.1994   24535687.1534
       199.0004        131.0004
 04 10 13  4  9  0.0000000  0  7G30G 5G17G24G 4G10G 9
  20946257.0204  -10660130.20949  -8268203.42647  20946257.4684   20946260.6804
       242.0004        206.0004
  20281360.4334  -15463546.20549  21805184.77248  20281360.1874   20281363.9584
       248.0004        217.0004
  20683953.0474  -20185338.43949 -15207447.47648  20683952.6784   20683956.9634
       242.0004        213.0004
  21435357.2154   -6201464.16049  -4793039.61647  21435357.2914   21435361.7104
       238.0004        201.0004
                  17126482.50558  28203123.36543
       185.0004         74.0004
  21632528.5344  -16917749.50249 -13134954.10147  21632528.0624   21632532.3224
       235.0004        191.0004
  24553623.2214   16445095.79449  12847981.12544  24553623.7204   24553631.0604
       200.0004        129.0004
 04 10 13  4  9 30.0000000  0  7G30G 5G17G24G 4G10G 9
  20935613.9384  -10716060.38149  -8311785.37247  20935614.2364   20935617.5574
       243.0004        207.0004
  20283234.9494  -15453696.02849  21812860.22448  20283234.6694   20283238.3014
       248.0004        216.0004
  20684081.0684  -20184666.19649 -15206923.64448  20684080.9294   20684084.8534
       242.0004        213.0004
  21447736.8704   -6136408.90549  -4742347.22647  21447736.8314   21447741.3084
       238.0004        201.0004
                  17226082.17858  28286603.59643
       189.0004         74.0004
  21618305.3474  -16992493.23149 -13193195.95247  21618304.4994   21618308.8794
       235.0004        191.0004
  24571551.8444   16539309.22249  12921394.20444  24571552.3284   24571555.2754
       199.0004        127.0004
 04 10 13  4 10  0.0000000  0  7G30G 5G17G24G 4G10G 9
  20925057.5724  -10771534.54849  -8355011.99347  20925057.9444   20925061.1724
       244.0004        208.0004
  20285213.9854  -15443296.46849  21820963.77148  20285213.6594   20285217.2294
       248.0004        216.0004
  20684282.1224  -20183610.15049 -15206100.74448  20684281.5204   20684285.8584
       242.0004        213.0004
  21460161.3244   -6071118.06949  -4691471.26647  21460161.1604   21460165.7874
       238.0004        202.0004
                  17325683.02048  28364219.17343
       190.0004         74.0004
  21604163.0944  -17066811.35749 -13251106.14847  21604161.9404   21604166.4284
       233.0004        190.0004
  24589467.1074   16633452.59649  12994752.67144  24589467.0864   24589468.8754
       198.0004        123.0004
